[[{"header":{"parameterUnit":"m.s-1","parameterCategory":1,"la1":31.0,"la2":29.5877,"lo1":-88.7671,"lo2":-86.6584,"dy":0.0162,"dx":0.0185,"nx":115,"ny":88,"refTime":"2023-09-29T12:00:00:Z","depth":0,"parameterNumber":2,"parameterNumberName":"U-component_of_WINDS"},"data":[0.0,0.0,0.0,0.0,0.0,0.0,0.0,0.0,0.0,0.0,0.0,0.0,0.0,0.0,0.0,0.0,0.0,0.0,0.0,0.0,0.0,0.0,0.0,0.0,0.0,0.0,0.0,0.0,0.0,0.0,0.0,0.0,0.0,0.0,0.0,0.0,0.0,0.0,0.0,0.0,0.0,0.0,0.0,0.0,0.0,0.0,0.0,0.0,0.0,0.0,0.0,0.0,0.0,0.0,0.0,0.0,0.0,0.0,0.0,0.0,0.0,0.0,0.0,0.0,0.0,0.0,0.0,0.0,0.0,0.0,0.0,0.0,0.0,0.0,0.0,0.0,0.0,0.0,0.0,0.0,0.0,0.0,0.0,0.0,0.0,0.0,0.0,0.0,0.0,0.0,0.0,0.0,0.0,0.0,0.0,0.0,0.0,0.0,0.0,0.0,0.0,0.0,0.0,0.0,0.0,0.0,0.0,0.0,0.0,0.0,0.0,0.0,0.0,0.0,0.0,0.0,0.0,0.0,0.0,0.0,0.0,0.0,0.0,0.0,0.0,0.0,0.0,0.0,0.0,0.0,0.0,0.0,0.0,0.0,0.0,0.0,0.0,0.0,0.0,0.0,0.0,0.0,0.0,0.0,0.0,0.0,0.0,0.0,0.0,0.0,0.0,0.0,0.0,0.0,0.0,0.0,0.0,0.0,0.0,0.0,0.0,0.0,0.0,0.0,0.0,0.0,0.0,0.0,0.0,0.0,0.0,0.0,0.0,0.0,0.0,0.0,0.0,0.0,0.0,0.0,0.0,0.0,0.0,0.0,0.0,0.0,0.0,0.0,0.0,0.0,0.0,0.0,0.0,0.0,0.0,0.0,0.0,0.0,0.0,0.0,0.0,0.0,0.0,0.0,0.0,0.0,0.0,0.0,0.0,0.0,0.0,0.0,0.0,0.0,0.0,0.0,0.0,0.0,0.0,0.0,0.0,0.0,0.0,0.0,0.0,0.0,0.0,0.0,0.0,0.0,0.0,0.0,0.0,0.0,0.0,0.0,0.0,0.0,0.0,0.0,0.0,0.0,0.0,0.0,0.0,0.0,0.0,0.0,0.0,0.0,0.0,0.0,0.0,0.0,0.0,0.0,0.0,0.0,0.0,0.0,0.0,0.0,0.0,0.0,0.0,0.0,0.0,0.0,0.0,0.0,0.0,0.0,0.0,0.0,0.0,0.0,0.0,0.0,0.0,0.0,0.0,0.0,0.0,0.0,0.0,0.0,0.0,0.0,0.0,0.0,0.0,0.0,0.0,0.0,0.0,0.0,0.0,0.0,0.0,0.0,0.0,0.0,0.0,0.0,0.0,0.0,0.0,0.0,0.0,0.0,0.0,0.0,0.0,0.0,0.0,0.0,0.0,0.0,0.0,0.0,0.0,0.0,0.0,0.0,0.0,0.0,0.0,0.0,0.0,0.0,0.0,0.0,0.0,0.0,0.0,0.0,0.0,0.0,0.0,0.0,0.0,0.0,0.0,0.0,0.0,0.0,0.0,0.0,0.0,0.0,0.0,0.0,0.0,0.0,0.0,0.0,0.0,0.0,0.0,0.0,0.0,0.0,0.0,0.0,0.0,0.0,0.0,0.0,0.0,0.0,0.0,0.0,0.0,0.0,0.0,0.0,0.0,0.0,0.0,0.0,0.0,0.0,0.0,0.0,0.0,0.0,0.0,0.0,0.0,0.0,0.0,0.0,0.0,0.0,0.0,0.0,0.0,0.0,0.0,0.0,0.0,0.0,0.0,0.0,0.0,0.0,0.0,0.0,0.0,0.0,0.0,0.0,0.0,0.0,0.0,0.0,0.0,0.0,0.0,0.0,0.0,0.0,0.0,0.0,0.0,0.0,0.0,0.0,0.0,0.0,0.0,0.0,0.0,0.0,0.0,0.0,0.0,0.0,0.0,0.0,0.0,0.0,0.0,0.0,0.0,0.0,0.0,0.0,0.0,0.0,0.0,0.0,0.0,0.0,0.0,0.0,0.0,0.0,0.0,0.0,0.0,0.0,0.0,0.0,0.0,0.0,0.0,0.0,0.0,0.0,0.0,0.0,0.0,0.0,0.0,0.0,0.0,0.0,0.0,0.0,0.0,0.0,0.0,0.0,0.0,0.0,0.0,0.0,0.0,0.0,0.0,0.0,0.0,0.0,0.0,0.0,0.0,0.0,0.0,0.0,0.0,0.0,0.0,0.0,0.0,0.0,0.0,0.0,0.0,0.0,0.0,0.0,0.0,0.0,0.0,0.0,0.0,0.0,0.0,0.0,0.0,0.0,0.0,0.0,0.0,0.0,0.0,0.0,0.0,0.0,0.0,0.0,0.0,0.0,0.0,0.0,0.0,0.0,0.0,0.0,0.0,0.0,0.0,0.0,0.0,0.0,0.0,0.0,0.0,0.0,0.0,0.0,0.0,0.0,0.0,0.0,0.0,0.0,0.0,0.0,0.0,0.0,0.0,0.0,0.0,0.0,0.0,0.0,0.0,0.0,0.0,0.0,0.0,0.0,0.0,0.0,0.0,0.0,0.0,0.0,0.0,0.0,0.0,0.0,0.0,0.0,0.0,0.0,0.0,0.0,0.0,0.0,0.0,0.0,0.0,0.0,0.0,0.0,0.0,0.0,0.0,0.0,0.0,0.0,0.0,0.0,0.0,0.0,0.0,0.0,0.0,0.0,0.0,0.0,0.0,0.0,0.0,0.0,0.0,0.0,0.0,0.0,0.0,0.0,0.0,0.0,0.0,0.0,0.0,0.0,0.0,0.0,0.0,0.0,0.0,0.0,0.0,0.0,0.0,0.0,0.0,0.0,0.0,0.0,0.0,0.0,0.0,0.0,0.0,0.0,0.0,0.0,0.0,0.0,0.0,0.0,0.0,0.0,0.0,0.0,0.0,0.0,0.0,0.0,0.0,0.0,0.0,0.0,0.0,0.0,0.0,0.0,0.0,0.0,0.0,0.0,0.0,0.0,0.0,0.0,0.0,0.0,0.0,0.0,0.0,0.0,0.0,0.0,0.0,0.0,0.0,0.0,0.0,0.0,0.0,0.0,0.0,0.0,0.0,0.0,0.0,0.0,0.0,0.0,0.0,0.0,0.0,0.0,0.0,0.0,0.0,0.0,0.0,0.0,0.0,0.0,0.0,0.0,0.0,0.0,0.0,0.0,0.0,0.0,0.0,0.0,0.0,0.0,0.0,0.0,0.0,0.0,0.0,0.0,0.0,0.0,0.0,0.0,0.0,0.0,0.0,0.0,0.0,0.0,0.0,0.0,0.0,0.0,0.0,0.0,0.0,0.0,0.0,0.0,0.0,0.0,0.0,0.0,0.0,0.0,0.0,0.0,0.0,0.0,0.0,0.0,0.0,0.0,0.0,0.0,0.0,0.0,0.0,0.0,0.0,0.0,0.0,0.0,0.0,0.0,0.0,0.0,0.0,0.0,0.0,0.0,0.0,0.0,0.0,0.0,0.0,0.0,0.0,0.0,0.0,0.0,0.0,0.0,0.0,0.0,0.0,0.0,0.0,0.0,0.0,0.0,0.0,0.0,0.0,0.0,0.0,0.0,0.0,0.0,0.0,0.0,0.0,0.0,0.0,0.0,0.0,0.0,0.0,0.0,0.0,0.0,0.0,0.0,0.0,0.0,0.0,0.0,0.0,0.0,0.0,0.0,0.0,0.0,0.0,0.0,0.0,0.0,0.0,0.0,0.0,0.0,0.0,0.0,0.0,0.0,0.0,0.0,0.0,0.0,0.0,0.0,0.0,0.0,0.0,0.0,0.0,0.0,0.0,0.0,0.0,0.0,0.0,0.0,0.0,0.0,0.0,0.0,0.0,0.0,0.0,0.0,0.0,0.0,0.0,0.0,0.0,0.0,0.0,0.0,0.0,0.0,0.0,0.0,0.0,0.0,0.0,0.0,0.0,0.0,0.0,0.0,0.0,0.0,0.0,0.0,0.0,0.0,0.0,0.0,0.0,0.0,0.0,0.0,0.0,0.0,0.0,0.0,0.0,0.0,0.0,0.0,0.0,0.0,0.0,0.0,0.0,0.0,0.0,0.0,0.0,0.0,0.0,0.0,0.0,0.0,0.0,0.0,0.0,0.0,0.0,0.0,0.0,0.0,0.0,0.0,0.0,0.0,0.0,0.0,0.0,0.0,0.0,0.0,0.0,0.0,0.0,0.0,0.0,0.0,0.0,0.0,0.0,0.0,0.0,0.0,0.0,0.0,0.0,0.0,0.0,0.0,1.0895,0.0,0.0,0.0,0.0,0.0,0.0,0.0,0.0,0.0,0.0,0.0,0.0,0.0,0.0,0.0,0.0,0.0,0.0,0.0,0.0,0.0,0.0,0.0,0.0,0.0,0.0,0.0,0.0,0.0,0.0,0.0,0.0,0.0,0.0,0.0,0.0,0.0,0.0,0.0,0.0,0.0,0.0,0.0,0.0,0.0,0.0,0.0,0.0,0.0,0.0,0.0,0.0,0.0,0.0,0.0,0.0,0.0,0.0,0.0,0.0,0.0,0.0,0.0,0.0,0.0,0.0,0.0,0.0,0.0,0.0,0.0,0.0,0.0,0.0,0.0,0.0,0.0,0.0,0.0,0.0,0.0,0.0,0.0,0.0,0.0,0.0,0.0,0.0,0.0,0.0,0.0,0.0,0.0,0.0,0.0,0.0,0.0,0.0,0.0,0.0,0.0,0.0,0.0,0.0,0.0,0.0,0.0,0.0,0.0,0.0,1.2848,1.2561,1.2305,1.1771,1.085,0.0,0.0,0.0,0.0,0.0,0.0,0.0,0.0,0.0,0.0,0.0,0.0,0.0,0.0,0.0,0.0,0.0,0.0,0.0,0.0,0.0,0.0,0.0,0.0,0.0,0.0,0.0,0.0,0.0,0.0,0.0,0.0,0.0,0.0,0.0,0.0,0.0,0.0,0.0,0.0,0.0,0.0,0.0,0.0,0.0,0.0,0.0,0.0,0.0,0.0,0.0,0.0,0.0,0.0,0.0,0.0,0.0,0.0,0.0,0.0,0.0,0.0,0.0,0.0,0.0,0.0,0.0,0.0,0.0,0.0,0.0,0.0,0.0,0.0,0.0,0.0,0.0,0.0,0.0,0.0,0.0,0.0,0.0,0.0,0.0,0.0,0.0,0.0,0.0,0.0,0.0,0.0,0.0,0.0,0.0,0.0,0.0,0.0,0.0,0.0,0.0,0.0,0.0,0.0,0.0,0.0,0.0,0.0,0.0,0.0,0.0,0.0,1.2318,1.1816,1.1063,0.0,0.0,0.0,0.0,0.0,0.0,0.0,0.0,0.0,0.0,0.0,0.0,0.0,0.0,0.0,0.0,0.0,0.0,0.0,0.0,0.0,0.0,0.0,0.0,0.0,0.0,0.0,0.0,0.0,0.0,0.0,0.0,0.0,0.0,0.0,0.0,0.0,0.0,0.0,0.0,0.0,0.0,0.0,0.0,0.0,0.0,0.0,0.0,0.0,0.0,0.0,0.0,0.0,0.0,0.0,0.0,0.0,0.0,0.0,0.0,0.0,0.0,0.0,0.0,0.0,0.0,0.0,0.0,0.0,0.0,0.0,0.0,0.0,0.0,0.0,0.0,0.0,0.0,0.0,0.0,0.0,0.0,0.0,0.0,0.0,0.0,0.0,0.0,0.0,0.0,0.0,0.0,0.0,0.0,0.0,0.0,0.0,0.0,0.0,0.0,0.0,0.0,0.0,0.0,0.0,0.0,0.0,0.0,0.0,0.0,1.3322,1.3131,1.287,0.0,1.1222,0.0,0.0,0.0,0.0,0.0,0.0,0.0,0.0,0.0,0.0,0.0,0.0,0.0,0.0,0.0,0.0,0.0,0.0,0.0,0.0,0.0,0.0,0.0,0.0,0.0,0.0,0.0,0.0,0.0,0.0,0.0,0.0,0.0,0.0,0.0,0.0,0.0,0.0,0.0,0.0,0.0,0.0,0.0,0.0,0.0,0.0,0.0,0.0,0.0,0.0,0.0,0.0,0.0,0.0,0.0,0.0,0.0,0.0,0.0,0.0,0.0,0.0,0.0,0.0,0.0,0.0,0.0,0.0,0.0,0.0,0.0,0.0,0.0,0.0,0.0,0.0,0.0,0.0,0.0,0.0,0.0,0.0,0.0,0.0,0.0,0.0,0.0,0.0,0.0,0.0,0.0,0.0,0.0,0.0,0.0,0.0,0.0,0.0,0.0,0.0,0.0,0.0,0.0,0.0,0.0,0.0,0.0,0.0,0.0,0.0,1.3406,1.3224,1.279,1.2143,0.0,0.0,0.0,0.0,0.0,0.0,0.0,0.0,0.0,0.0,0.0,0.0,0.0,0.0,0.0,0.0,0.0,0.0,0.0,0.0,0.0,0.0,0.0,0.0,0.0,0.0,0.0,0.0,0.0,0.0,0.0,0.0,0.0,0.0,0.0,0.0,0.0,0.0,0.0,0.0,0.0,0.0,0.0,0.0,0.0,0.0,0.0,0.0,0.0,0.0,0.0,0.0,0.0,0.0,0.0,0.0,0.0,0.0,0.0,0.0,0.0,0.0,0.0,0.0,0.0,0.0,0.0,0.0,0.0,0.0,0.0,0.0,0.0,0.0,0.0,0.0,0.0,0.0,0.0,0.0,0.0,0.0,0.0,0.0,0.0,0.0,0.0,0.0,0.0,0.0,0.0,0.0,0.0,0.0,0.0,0.0,0.0,0.0,0.0,0.0,0.0,0.0,0.0,0.0,0.0,0.0,0.0,0.0,0.0,0.0,1.3621,1.3621,1.3402,1.2862,1.2297,1.1666,0.0,0.0,0.0,0.0,0.0,0.0,0.0,0.0,0.0,0.0,0.0,0.0,0.0,0.0,0.0,0.0,0.0,0.0,0.0,0.0,0.0,0.0,0.0,0.0,0.0,0.0,0.0,0.0,0.0,0.0,0.0,0.0,0.0,0.0,0.0,0.0,0.0,0.0,0.0,0.0,0.0,0.0,0.0,0.0,0.0,0.0,0.0,0.0,0.0,0.0,0.0,0.0,0.0,0.0,0.0,0.0,0.0,0.0,0.0,0.0,0.0,0.0,0.0,0.0,0.0,0.0,0.0,0.0,0.0,0.0,0.0,0.0,0.0,0.0,0.0,0.0,0.0,0.0,0.0,0.0,0.0,0.0,0.0,0.0,0.0,0.0,0.0,0.0,0.0,0.0,0.0,0.0,0.0,0.0,0.0,0.0,0.0,0.0,0.0,0.0,0.0,0.0,0.0,0.0,0.0,0.0,0.0,0.0,1.386,1.4136,1.4124,1.386,1.3342,1.2966,0.0,0.0,0.0,0.0,0.0,0.0,0.0,0.0,0.0,0.0,0.0,0.0,0.0,0.0,0.0,0.0,0.0,0.0,0.0,0.0,0.0,0.0,0.0,0.0,0.0,0.0,0.0,0.0,0.0,0.0,0.0,0.0,0.0,0.0,0.0,0.0,0.0,0.0,0.0,0.0,0.0,0.0,0.0,0.0,0.0,0.0,0.0,0.0,0.0,0.0,0.0,0.0,0.0,0.0,0.0,0.0,0.0,0.0,0.0,0.0,0.0,0.0,0.0,0.0,0.0,0.0,0.0,0.0,0.0,0.0,0.0,0.0,0.0,0.0,0.0,0.0,0.0,0.0,0.0,0.0,0.0,0.0,0.0,0.0,0.0,0.0,0.0,0.0,0.0,0.0,0.0,0.0,0.0,0.0,0.0,0.0,0.0,0.0,0.0,0.0,0.0,0.0,0.0,0.0,0.0,0.0,0.0,0.0,0.0,1.3871,1.416,1.4184,1.3907,1.3714,1.334,0.0,0.0,0.0,0.0,0.0,0.0,0.0,0.0,0.0,0.0,0.0,0.0,0.0,0.0,0.0,0.0,0.0,0.0,0.0,0.0,0.0,0.0,0.0,0.0,0.0,0.0,0.0,0.0,0.0,0.0,0.0,0.0,0.0,0.0,0.0,0.0,0.0,0.0,0.0,0.0,0.0,0.0,0.0,0.0,0.0,0.0,0.0,0.0,0.0,0.0,0.0,0.0,0.0,0.0,0.0,0.0,0.0,0.0,0.0,0.0,0.0,0.0,0.0,0.0,0.0,0.0,0.0,0.0,0.0,0.0,0.0,0.0,0.0,0.0,0.0,0.0,0.0,0.0,0.0,0.0,0.0,0.0,0.0,0.0,0.0,0.0,0.0,0.0,0.0,0.0,0.0,0.0,0.0,0.0,0.0,0.0,0.0,0.0,0.0,0.0,0.0,0.0,0.0,0.0,0.0,0.0,0.0,0.0,0.0,1.4027,0.0,1.4208,1.4052,1.3955,1.3666,0.0,0.0,0.0,0.0,0.0,0.0,0.0,0.0,0.0,0.0,0.0,0.0,0.0,0.0,0.0,0.0,0.0,0.0,0.0,0.0,0.0,0.0,0.0,0.0,0.0,0.0,0.0,0.0,0.0,0.0,0.0,0.0,0.0,0.0,0.0,0.0,0.0,0.0,0.0,0.0,0.0,0.0,0.0,0.0,0.0,0.0,0.0,0.0,0.0,0.0,0.0,0.0,0.0,0.0,0.0,0.0,0.0,0.0,0.0,0.0,0.0,0.0,0.0,0.0,0.0,0.0,0.0,0.0,0.0,0.0,0.0,0.0,0.0,0.0,0.0,0.0,0.0,0.0,0.0,0.0,0.0,0.0,0.0,0.0,0.0,0.0,0.0,0.0,0.0,0.0,0.0,0.0,0.0,0.0,0.0,0.0,0.0,0.0,0.0,0.0,0.0,0.0,0.0,0.0,0.0,0.0,0.0,0.0,1.3762,1.428,1.4304,1.4304,1.4304,1.404,1.3883,0.0,0.0,0.0,0.0,0.0,0.0,0.0,0.0,0.0,0.0,0.0,0.0,0.0,0.0,0.0,0.0,0.0,0.0,0.0,0.0,0.0,0.0,0.0,0.0,0.0,0.0,0.0,0.0,0.0,0.0,0.0,0.0,0.0,0.0,0.0,0.0,0.0,0.0,0.0,0.0,0.0,0.0,0.0,0.0,0.0,0.0,0.0,0.0,0.0,0.0,0.0,0.0,0.0,0.0,0.0,0.0,0.0,0.0,0.0,0.0,0.0,0.0,0.0,0.0,0.0,0.0,0.0,0.0,0.0,0.0,0.0,0.0,0.0,0.0,0.0,0.0,0.0,0.0,0.0,0.0,0.0,0.0,0.0,0.0,0.0,0.0,0.0,0.0,0.0,0.0,0.0,0.0,0.0,0.0,0.0,0.0,0.0,0.0,0.0,0.0,0.0,0.0,0.0,0.0,0.0,0.0,0.0,0.0,0.0,1.4304,1.4328,1.4328,1.4304,1.4052,1.3811,0.0,0.0,0.0,0.0,0.0,0.0,0.0,0.0,0.0,0.0,0.0,0.0,0.0,0.0,0.0,0.0,0.0,0.0,0.0,0.0,0.0,0.0,0.0,0.0,0.0,0.0,0.0,0.0,0.0,0.0,0.0,0.0,0.0,0.0,0.0,0.0,0.0,0.0,0.0,0.0,0.0,0.0,0.0,0.0,0.0,0.0,0.0,0.0,0.0,0.0,0.0,0.0,0.0,0.0,0.0,0.0,0.0,0.0,0.0,0.0,0.0,0.0,0.0,0.0,0.0,0.0,0.0,0.0,0.0,0.0,0.0,0.0,0.0,0.0,0.0,0.0,0.0,0.0,0.0,0.0,0.0,0.0,0.0,0.0,0.0,0.0,0.0,0.0,0.0,0.0,0.0,0.0,0.0,0.0,0.0,0.0,0.0,0.0,0.0,0.0,0.0,0.0,0.0,0.0,0.0,0.0,0.0,0.0,0.0,1.4581,1.4594,1.4558,1.4461,1.4194,1.3928,1.3666,0.0,0.0,0.0,0.0,0.0,0.0,0.0,0.0,0.0,0.0,0.0,0.0,0.0,0.0,0.0,0.0,0.0,0.0,0.0,0.0,0.0,0.0,0.0,0.0,0.0,0.0,0.0,0.0,0.0,0.0,0.0,0.0,0.0,0.0,0.0,0.0,0.0,0.0,0.0,0.0,0.0,0.0,0.0,0.0,0.0,0.0,0.0,0.0,0.0,0.0,0.0,0.0,0.0,0.0,0.0,0.0,0.0,0.0,0.0,0.0,0.0,0.0,0.0,0.0,0.0,0.0,0.0,0.0,0.0,0.0,0.0,0.0,0.0,0.0,0.0,0.0,0.0,0.0,0.0,0.0,0.0,0.0,0.0,0.0,0.0,0.0,0.0,0.0,0.0,0.0,0.0,0.0,0.0,0.0,0.0,0.0,0.0,0.0,0.0,0.0,0.0,0.0,0.0,0.0,0.0,0.0,0.0,0.0,1.51,1.5149,1.4991,1.4726,1.4418,1.4152,0.0,0.0,0.0,0.0,0.0,0.0,0.0,0.0,0.0,0.0,0.0,0.0,0.0,0.0,0.0,0.0,0.0,0.0,0.0,0.0,0.0,0.0,0.0,0.0,0.0,0.0,0.0,0.0,0.0,0.0,0.0,0.0,0.0,0.0,0.0,0.0,0.0,0.0,0.0,0.0,0.0,0.0,0.0,0.0,0.0,0.0,0.0,0.0,0.0,0.0,0.0,0.0,0.0,0.0,0.0,0.0,0.0,0.0,0.0,0.0,0.0,0.0,0.0,0.0,0.0,0.0,0.0,0.0,0.0,0.0,0.0,0.0,0.0,0.0,0.0,0.0,0.0,0.0,0.0,0.0,0.0,0.0,0.0,0.0,0.0,0.0,0.0,0.0,0.0,0.0,0.0,0.0,0.0,0.0,0.0,0.0,0.0,0.0,0.0,0.0,0.0,0.0,0.0,0.0,0.0,0.0,0.0,0.0,0.0,1.5377,1.5584,1.5463,1.5003,1.4363,1.3876,0.0,0.0,0.0,0.0,0.0,0.0,0.0,0.0,0.0,0.0,0.0,0.0,0.0,0.0,0.0,0.0,0.0,0.0,0.0,0.0,0.0,0.0,0.0,0.0,0.0,0.0,0.0,0.0,0.0,0.0,0.0,0.0,0.0,0.0,0.0,0.0,0.0,0.0,0.0,0.0,0.0,0.0,0.0,0.0,0.0,0.0,0.0,0.0,0.0,0.0,0.0,0.0,0.0,0.0,0.0,0.0,0.0,0.0,0.0,0.0,0.0,0.0,0.0,0.0,0.0,0.0,0.0,0.0,0.0,0.0,0.0,0.0,0.0,0.0,0.0,0.0,0.0,0.0,0.0,0.0,0.0,0.0,0.0,0.0,0.0,0.0,0.0,0.0,0.0,0.0,0.0,0.0,0.0,0.0,0.0,0.0,0.0,0.0,0.0,0.0,0.0,0.0,0.0,0.0,0.0,0.0,0.0,0.0,1.5115,1.5656,1.5813,1.5741,1.5439,1.4637,1.4001,0.0,0.0,0.0,0.0,0.0,0.0,0.0,0.0,0.0,0.0,0.0,0.0,0.0,0.0,0.0,0.0,0.0,0.0,0.0,0.0,0.0,0.0,0.0,0.0,0.0,0.0,0.0,0.0,0.0,0.0,0.0,0.0,0.0,0.0,0.0,0.0,0.0,0.0,0.0,0.0,0.0,0.0,0.0,0.0,0.0,0.0,0.0,0.0,0.0,0.0,0.0,0.0,0.0,0.0,0.0,0.0,0.0,0.0,0.0,0.0,0.0,0.0,0.0,0.0,0.0,0.0,0.0,0.0,0.0,0.0,0.0,0.0,0.0,0.0,0.0,0.0,0.0,0.0,0.0,0.0,0.0,0.0,0.0,0.0,0.0,0.0,0.0,0.0,0.0,0.0,0.0,0.0,0.0,0.0,0.0,0.0,0.0,0.0,0.0,0.0,0.0,0.0,0.0,0.0,0.0,0.0,0.0,0.0,1.5393,1.5885,1.5885,1.5871,1.5832,1.5065,1.4293,0.0,0.0,0.0,0.0,0.0,0.0,0.0,0.0,0.0,0.0,0.0,0.0,0.0,0.0,0.0,0.0,0.0,0.0,0.0,0.0,0.0,0.0,0.0,0.0,0.0,0.0,0.0,0.0,0.0,0.0,0.0,0.0,0.0,0.0,0.0,0.0,0.0,0.0,0.0,0.0,0.0,0.0,0.0,0.0,0.0,0.0,0.0,0.0,0.0,0.0,0.0,0.0,0.0,0.0,0.0,0.0,0.0,0.0,0.0,0.0,0.0,0.0,0.0,0.0,0.0,0.0,0.0,0.0,0.0,0.0,0.0,0.0,0.0,0.0,0.0,0.0,0.0,0.0,0.0,0.0,0.0,0.0,0.0,0.0,0.0,0.0,0.0,0.0,0.0,0.0,0.0,0.0,0.0,0.0,0.0,0.0,0.0,0.0,0.0,0.0,0.0,0.0,0.0,0.0,0.0,0.0,0.0,0.0,1.5571,1.5885,1.5885,1.5817,1.5589,1.4801,1.4112,0.0,0.0,0.0,0.0,0.0,0.0,0.0,0.0,0.0,0.0,0.0,0.0,0.0,0.0,0.0,0.0,0.0,0.0,0.0,0.0,0.0,0.0,0.0,0.0,0.0,0.0,0.0,0.0,0.0,0.0,0.0,0.0,0.0,0.0,0.0,0.0,0.0,0.0,0.0,0.0,0.0,0.0,0.0,0.0,0.0,0.0,0.0,0.0,1.6219,0.0,0.0,0.0,0.0,0.0,0.0,0.0,0.0,0.0,0.0,0.0,0.0,0.0,0.0,0.0,0.0,0.0,0.0,0.0,0.0,0.0,0.0,0.0,0.0,0.0,0.0,0.0,0.0,0.0,0.0,0.0,0.0,0.0,0.0,0.0,0.0,0.0,0.0,0.0,0.0,0.0,0.0,0.0,0.0,0.0,0.0,0.0,0.0,0.0,0.0,0.0,0.0,0.0,0.0,0.0,0.0,0.0,0.0,0.0,1.5737,1.5885,1.5885,1.5844,1.5684,1.4995,1.4248,0.0,0.0,0.0,0.0,0.0,0.0,0.0,0.0,0.0,0.0,0.0,0.0,0.0,0.0,0.0,0.0,0.0,0.0,0.0,0.0,0.0,0.0,0.0,0.0,0.0,0.0,0.0,0.0,0.0,0.0,0.0,0.0,0.0,0.0,0.0,0.0,0.0,0.0,0.0,0.0,0.0,0.0,0.0,0.0,0.0,0.0,0.0,0.0,0.0,0.0,0.0,0.0,0.0,0.0,0.0,0.0,0.0,0.0,0.0,0.0,0.0,0.0,0.0,0.0,0.0,0.0,0.0,0.0,0.0,0.0,0.0,0.0,0.0,0.0,0.0,0.0,0.0,0.0,0.0,0.0,0.0,0.0,0.0,0.0,0.0,0.0,0.0,0.0,0.0,0.0,0.0,0.0,0.0,0.0,0.0,0.0,0.0,0.0,0.0,0.0,0.0,0.0,0.0,0.0,0.0,0.0,0.0,1.5618,1.5844,1.5752,1.5752,1.5764,1.5672,1.511,1.4378,1.3456,0.0,0.0,0.0,0.0,0.0,0.0,0.0,0.0,0.0,0.0,0.0,0.0,0.0,0.0,0.0,0.0,0.0,0.0,0.0,0.0,0.0,0.0,0.0,0.0,0.0,0.0,0.0,0.0,0.0,0.0,0.0,0.0,0.0,0.0,0.0,0.0,0.0,0.0,1.5875,1.6152,0.0,0.0,0.0,0.0,0.0,0.0,0.0,0.0,1.6782,0.0,0.0,0.0,0.0,0.0,0.0,0.0,0.0,0.0,0.0,0.0,0.0,0.0,0.0,0.0,0.0,0.0,0.0,0.0,0.0,0.0,0.0,0.0,0.0,0.0,0.0,0.0,0.0,0.0,0.0,0.0,0.0,0.0,0.0,0.0,0.0,0.0,0.0,0.0,0.0,0.0,0.0,0.0,0.0,0.0,0.0,0.0,0.0,0.0,0.0,0.0,0.0,0.0,0.0,0.0,0.0,1.5438,1.5512,1.5455,1.5175,1.5148,1.5041,1.4815,1.4239,1.3825,1.3632,0.0,0.0,0.0,0.0,0.0,0.0,0.0,0.0,0.0,0.0,0.0,0.0,0.0,0.0,0.0,0.0,0.0,0.0,0.0,0.0,0.0,0.0,0.0,0.0,0.0,0.0,0.0,0.0,0.0,0.0,0.0,0.0,0.0,0.0,0.0,0.0,0.0,0.0,0.0,1.6446,1.6765,0.0,0.0,0.0,0.0,0.0,0.0,0.0,0.0,1.7235,0.0,0.0,0.0,0.0,0.0,0.0,0.0,0.0,0.0,0.0,0.0,0.0,0.0,0.0,0.0,0.0,0.0,0.0,0.0,0.0,0.0,0.0,0.0,0.0,0.0,0.0,0.0,0.0,0.0,0.0,0.0,0.0,0.0,0.0,0.0,0.0,0.0,0.0,0.0,0.0,0.0,0.0,0.0,0.0,0.0,0.0,0.0,0.0,0.0,0.0,0.0,0.0,0.0,0.0,0.0,1.547,1.5321,1.5148,1.5014,1.5014,1.4934,1.4826,1.4546,1.425,0.0,0.0,0.0,0.0,0.0,0.0,0.0,0.0,0.0,0.0,0.0,0.0,0.0,0.0,0.0,0.0,0.0,0.0,0.0,0.0,0.0,0.0,0.0,0.0,0.0,0.0,0.0,0.0,0.0,0.0,0.0,0.0,0.0,0.0,0.0,0.0,0.0,0.0,0.0,0.0,1.6872,1.7073,1.7354,0.0,0.0,0.0,0.0,0.0,0.0,1.7515,1.7515,0.0,0.0,0.0,0.0,0.0,0.0,0.0,0.0,0.0,0.0,0.0,0.0,0.0,0.0,0.0,0.0,0.0,0.0,0.0,0.0,0.0,0.0,0.0,0.0,0.0,0.0,0.0,0.0,0.0,0.0,0.0,0.0,0.0,0.0,0.0,0.0,0.0,0.0,0.0,0.0,0.0,0.0,0.0,0.0,0.0,0.0,0.0,0.0,0.0,0.0,0.0,0.0,0.0,0.0,0.0,1.5471,1.5275,1.5108,1.4973,1.5081,1.5108,1.4973,1.5054,1.4842,0.0,0.0,0.0,0.0,0.0,0.0,0.0,0.0,0.0,0.0,0.0,0.0,0.0,0.0,0.0,0.0,0.0,0.0,0.0,0.0,0.0,0.0,0.0,0.0,0.0,0.0,0.0,0.0,0.0,0.0,0.0,0.0,0.0,0.0,0.0,0.0,0.0,0.0,0.0,0.0,0.0,1.7448,1.7649,1.7729,0.0,0.0,0.0,0.0,1.7782,1.7716,0.0,0.0,0.0,0.0,0.0,0.0,0.0,0.0,0.0,0.0,0.0,0.0,0.0,0.0,0.0,0.0,0.0,0.0,0.0,0.0,0.0,0.0,0.0,0.0,0.0,0.0,0.0,0.0,0.0,0.0,0.0,0.0,0.0,0.0,0.0,0.0,0.0,0.0,0.0,0.0,0.0,0.0,0.0,0.0,0.0,0.0,0.0,0.0,0.0,0.0,0.0,0.0,0.0,0.0,0.0,0.0,1.5427,1.5606,1.544,1.4974,1.5412,1.544,1.4945,1.5199,1.5071,0.0,0.0,0.0,0.0,0.0,0.0,0.0,0.0,0.0,0.0,0.0,0.0,0.0,0.0,0.0,0.0,0.0,0.0,0.0,0.0,0.0,0.0,0.0,0.0,0.0,0.0,0.0,0.0,0.0,0.0,0.0,0.0,0.0,0.0,0.0,0.0,0.0,0.0,0.0,0.0,0.0,1.7929,1.7969,1.8183,1.8384,0.0,0.0,1.8049,1.8343,1.8143,0.0,0.0,0.0,0.0,0.0,0.0,0.0,0.0,0.0,0.0,0.0,0.0,0.0,0.0,0.0,0.0,0.0,0.0,0.0,0.0,0.0,0.0,0.0,0.0,0.0,0.0,0.0,0.0,0.0,0.0,0.0,0.0,0.0,0.0,0.0,0.0,0.0,0.0,0.0,0.0,0.0,0.0,0.0,0.0,0.0,0.0,0.0,0.0,0.0,0.0,0.0,0.0,0.0,0.0,0.0,1.5487,1.5345,1.5316,1.5163,1.4937,1.5135,1.5163,1.4891,1.5032,1.4978,0.0,0.0,0.0,0.0,0.0,0.0,0.0,0.0,0.0,0.0,0.0,0.0,0.0,0.0,0.0,0.0,0.0,0.0,0.0,0.0,0.0,0.0,0.0,0.0,0.0,0.0,0.0,0.0,0.0,0.0,0.0,0.0,0.0,0.0,0.0,0.0,0.0,0.0,0.0,0.0,0.0,0.0,1.8249,1.841,0.0,0.0,0.0,1.8343,1.8477,0.0,0.0,0.0,0.0,0.0,0.0,0.0,0.0,0.0,0.0,0.0,0.0,0.0,0.0,0.0,0.0,0.0,0.0,0.0,0.0,0.0,0.0,0.0,0.0,0.0,0.0,0.0,0.0,0.0,0.0,0.0,0.0,0.0,0.0,0.0,0.0,0.0,0.0,0.0,0.0,0.0,0.0,0.0,0.0,0.0,0.0,0.0,0.0,0.0,0.0,0.0,0.0,0.0,0.0,0.0,0.0,0.0,1.5404,1.5259,1.5149,1.5092,1.5235,1.5257,1.5167,1.5236,0.0,0.0,0.0,0.0,0.0,0.0,0.0,0.0,0.0,0.0,0.0,0.0,0.0,0.0,0.0,0.0,0.0,0.0,0.0,0.0,0.0,0.0,0.0,0.0,0.0,0.0,0.0,1.6575,0.0,0.0,0.0,0.0,0.0,0.0,0.0,0.0,0.0,0.0,0.0,0.0,0.0,0.0,1.8316,1.8571,1.8664,1.8732,0.0,0.0,1.8624,1.8732,1.8651,1.8597,0.0,0.0,0.0,0.0,0.0,0.0,0.0,0.0,0.0,0.0,0.0,0.0,0.0,0.0,0.0,0.0,0.0,0.0,0.0,0.0,0.0,0.0,0.0,0.0,0.0,0.0,0.0,0.0,0.0,0.0,0.0,0.0,0.0,0.0,0.0,0.0,0.0,0.0,0.0,0.0,0.0,0.0,0.0,0.0,0.0,0.0,0.0,0.0,0.0,0.0,0.0,0.0,0.0,0.0,0.0,1.5676,1.588,1.5843,1.5577,1.6109,1.6239,1.5931,1.6172,1.6044,0.0,0.0,0.0,0.0,0.0,0.0,0.0,0.0,0.0,0.0,0.0,0.0,0.0,0.0,0.0,0.0,0.0,0.0,0.0,0.0,0.0,0.0,0.0,0.0,0.0,0.0,0.0,0.0,0.0,0.0,0.0,0.0,0.0,0.0,0.0,0.0,0.0,0.0,0.0,0.0,0.0,1.8836,1.8863,1.9132,1.9334,0.0,0.0,1.8956,1.9294,1.9078,1.8863,1.8876,0.0,0.0,0.0,0.0,0.0,0.0,0.0,0.0,0.0,0.0,0.0,0.0,0.0,0.0,0.0,0.0,0.0,0.0,0.0,0.0,0.0,0.0,0.0,0.0,0.0,0.0,0.0,0.0,0.0,0.0,0.0,0.0,0.0,0.0,0.0,0.0,0.0,0.0,0.0,0.0,0.0,0.0,0.0,0.0,0.0,0.0,0.0,0.0,0.0,0.0,0.0,0.0,0.0,1.5776,1.5638,1.5755,1.572,1.5631,1.5839,1.5948,1.6007,1.6098,1.613,0.0,0.0,0.0,0.0,0.0,0.0,0.0,0.0,0.0,0.0,0.0,0.0,0.0,0.0,0.0,0.0,0.0,0.0,0.0,0.0,0.0,0.0,0.0,0.0,0.0,0.0,0.0,0.0,1.7394,1.7491,1.7491,0.0,0.0,0.0,0.0,0.0,0.0,0.0,0.0,0.0,0.0,1.8757,1.9143,1.9452,0.0,0.0,1.9663,1.9677,1.9639,1.9546,1.9466,1.9466,1.9437,0.0,0.0,0.0,0.0,0.0,0.0,0.0,0.0,0.0,0.0,0.0,0.0,0.0,0.0,0.0,0.0,0.0,0.0,0.0,0.0,0.0,0.0,0.0,0.0,0.0,0.0,0.0,0.0,0.0,0.0,0.0,0.0,0.0,0.0,0.0,0.0,0.0,0.0,0.0,0.0,0.0,0.0,0.0,0.0,0.0,0.0,0.0,0.0,0.0,0.0,0.0,0.0,1.5865,1.5817,1.5817,1.5817,1.5817,1.5817,1.5955,1.6212,1.6223,1.6268,0.0,0.0,0.0,0.0,0.0,0.0,0.0,0.0,0.0,0.0,0.0,0.0,0.0,0.0,0.0,0.0,0.0,0.0,0.0,0.0,0.0,0.0,0.0,0.0,0.0,0.0,0.0,0.0,1.7654,1.7764,1.7723,0.0,0.0,0.0,0.0,0.0,0.0,0.0,0.0,0.0,0.0,1.9007,1.957,1.98,1.9933,1.9933,2.0094,2.013,1.996,1.9903,1.9933,1.9933,0.0,0.0,0.0,0.0,0.0,0.0,0.0,0.0,0.0,0.0,0.0,0.0,0.0,0.0,0.0,0.0,0.0,0.0,0.0,0.0,0.0,0.0,0.0,0.0,0.0,0.0,0.0,0.0,0.0,0.0,0.0,0.0,0.0,0.0,0.0,0.0,0.0,0.0,0.0,0.0,0.0,0.0,0.0,0.0,0.0,0.0,0.0,0.0,0.0,0.0,0.0,0.0,0.0,1.6359,1.626,1.628,1.6291,1.6291,1.6301,1.6398,1.6656,1.6678,1.6678,1.6699,0.0,0.0,0.0,0.0,0.0,0.0,0.0,0.0,0.0,0.0,0.0,0.0,0.0,0.0,0.0,0.0,0.0,0.0,0.0,0.0,0.0,0.0,0.0,0.0,0.0,0.0,1.752,1.798,1.8282,0.0,0.0,0.0,0.0,0.0,0.0,0.0,0.0,0.0,0.0,1.9668,1.9776,2.011,2.0153,2.0167,2.0197,2.021,2.021,2.0197,2.0197,2.0197,0.0,0.0,0.0,0.0,0.0,0.0,0.0,0.0,0.0,0.0,0.0,0.0,0.0,0.0,0.0,0.0,0.0,0.0,0.0,0.0,0.0,0.0,0.0,0.0,0.0,0.0,0.0,1.4602,1.5205,0.0,0.0,0.0,0.0,0.0,0.0,0.0,0.0,0.0,0.0,0.0,1.5937,1.6104,0.0,0.0,0.0,0.0,0.0,0.0,0.0,0.0,0.0,0.0,0.0,0.0,1.6329,1.6312,1.6312,1.6312,1.6312,1.6312,1.6431,1.6688,1.6699,1.685,1.7163,0.0,0.0,0.0,0.0,0.0,0.0,0.0,0.0,0.0,0.0,0.0,0.0,0.0,0.0,0.0,0.0,0.0,0.0,0.0,0.0,0.0,0.0,0.0,0.0,0.0,1.8022,0.0,0.0,0.0,0.0,0.0,0.0,0.0,0.0,0.0,0.0,0.0,1.8618,1.8967,1.9041,1.9163,1.9498,1.9727,1.9949,0.0,0.0,0.0,0.0,0.0,0.0,0.0,0.0,0.0,0.0,0.0,0.0,0.0,0.0,1.9623,1.961,1.9703,1.977,1.977,0.0,0.0,0.0,0.0,0.0,0.0,0.0,0.0,0.0,0.0,0.0,0.0,0.0,0.0,0.0,0.0,1.5615,0.0,0.0,0.0,0.0,0.0,0.0,0.0,0.0,1.6484,1.6506,1.6441,1.6614,1.6689,0.0,1.6732,1.6646,0.0,0.0,0.0,0.0,0.0,0.0,0.0,0.0,1.6517,1.6667,1.6603,1.6592,1.6678,1.6571,1.6624,1.6807,1.6904,1.7087,1.74,1.7303,1.7217,0.0,0.0,0.0,0.0,0.0,0.0,0.0,0.0,0.0,0.0,0.0,0.0,0.0,0.0,0.0,0.0,0.0,0.0,0.0,0.0,0.0,0.0,0.0,1.8345,0.0,0.0,0.0,0.0,0.0,0.0,0.0,0.0,0.0,1.8456,1.8548,1.8726,1.9093,1.9137,1.9287,1.972,0.0,0.0,0.0,0.0,0.0,0.0,0.0,2.0806,2.0914,2.0932,2.0969,2.0989,2.0909,2.0771,2.0708,0.0,0.0,2.0277,2.021,2.021,2.021,2.0357,2.0504,2.0504,2.0677,2.0842,0.0,0.0,0.0,0.0,0.0,0.0,0.0,0.0,1.6315,1.6263,0.0,1.6237,0.0,0.0,0.0,0.0,0.0,0.0,0.0,0.0,1.6829,1.6904,1.6775,1.7195,1.7411,1.7433,1.7593,1.7657,1.7624,1.7033,0.0,0.0,0.0,0.0,0.0,0.0,1.6958,1.739,1.7141,1.7141,1.739,1.7152,1.7023,1.7023,1.7292,1.7411,1.7422,1.7593,1.7615,1.7433,1.7152,0.0,0.0,0.0,0.0,0.0,0.0,0.0,0.0,0.0,0.0,0.0,0.0,0.0,0.0,0.0,0.0,0.0,0.0,0.0,0.0,1.8074,0.0,0.0,0.0,0.0,0.0,0.0,0.0,0.0,0.0,0.0,1.8886,1.8995,1.9322,1.9915,0.0,0.0,0.0,0.0,2.0575,2.0829,2.0913,2.0925,2.0925,2.0958,2.1045,2.1343,0.0,0.0,2.1579,2.1817,2.1884,2.1662,2.1764,2.163,2.049,2.033,2.0317,2.0317,2.0775,2.1109,2.1176,2.1523,2.1884,1.7408,0.0,0.0,0.0,0.0,1.7192,1.714,1.7299,1.7156,1.7063,1.7001,1.685,0.0,0.0,0.0,0.0,0.0,0.0,1.7227,1.7324,1.7453,1.7475,1.7421,1.7561,1.7626,1.7626,1.7657,1.7588,1.7362,1.76,1.7561,1.7291,0.0,0.0,0.0,0.0,1.7452,1.7615,1.7517,1.755,1.7592,1.755,1.7432,1.7303,1.7507,1.754,1.7389,1.7593,1.7657,1.7626,1.755,0.0,0.0,0.0,0.0,0.0,0.0,0.0,0.0,0.0,0.0,0.0,0.0,0.0,0.0,0.0,0.0,0.0,0.0,0.0,1.8956,1.9096,1.9252,0.0,0.0,0.0,0.0,0.0,0.0,0.0,0.0,0.0,1.9878,1.9757,1.9742,0.0,0.0,1.9996,2.0135,2.0279,2.0478,2.0788,0.0,0.0,0.0,2.1475,2.1509,2.1612,2.1871,2.1969,2.17,2.2022,2.2171,2.1812,2.1859,2.1857,2.159,2.1483,2.1483,2.1496,2.163,2.1737,2.175,2.1884,2.2024,1.8071,1.7884,1.7827,1.7805,1.7878,1.7586,1.754,1.7763,1.7587,1.7543,1.7507,1.7356,1.7206,1.7087,1.7087,0.0,0.0,0.0,1.7583,1.7689,1.7689,1.7766,1.7839,1.7959,1.8056,1.8142,1.8205,1.8154,1.799,1.8339,1.8398,1.8248,0.0,0.0,1.7689,1.7689,1.7786,1.7947,1.7775,1.7775,1.7958,1.7786,1.7658,1.7529,1.7744,1.7798,1.7669,1.7798,1.7863,1.7863,1.768,1.7496,0.0,0.0,0.0,0.0,0.0,0.0,0.0,0.0,0.0,0.0,0.0,1.7602,1.7748,0.0,0.0,0.0,1.8098,1.8402,1.8944,1.9,0.0,0.0,0.0,0.0,0.0,0.0,0.0,2.0533,2.0688,2.0785,2.075,2.0652,2.0472,2.0398,2.0352,2.0422,2.0531,0.0,2.0733,2.1039,2.1233,2.1366,2.1589,2.1625,2.1695,2.2011,2.2383,2.2506,2.2206,2.2579,2.2741,2.2361,2.2453,2.2719,2.2719,2.2733,2.2512,2.2084,2.2084,2.2151,2.2164,2.2245,2.2372,1.8692,1.8447,1.8195,1.7993,1.784,1.784,1.7806,1.7776,1.7743,1.7766,1.7755,1.7755,1.7721,1.7743,1.7743,0.0,1.7775,1.7796,1.7796,1.7809,1.7786,1.7949,1.8186,1.839,1.857,1.881,1.9011,1.9082,1.9024,1.9071,1.9082,1.9024,1.8463,1.8067,1.7841,1.7807,1.8011,1.842,1.8001,1.7979,1.8377,1.7968,1.7732,1.7721,1.7981,1.8089,1.8067,1.8078,1.8099,1.8078,1.769,1.755,1.77,0.0,0.0,0.0,0.0,0.0,0.0,0.0,0.0,0.0,0.0,0.0,0.0,0.0,0.0,0.0,1.8452,0.0,1.8316,1.8327,0.0,0.0,0.0,2.0403,2.1028,2.1377,2.1534,2.1522,0.0,0.0,2.151,0.0,2.1462,2.122,2.116,2.122,2.1438,2.1293,2.1256,2.1474,2.1559,2.1571,2.1619,2.1607,2.1824,2.24,2.2939,2.3064,2.2821,2.3324,2.3497,2.2871,2.3346,2.3777,2.379,2.3723,2.3434,2.2365,2.2378,2.2539,2.2545,2.2766,2.2974,1.8989,1.8925,1.8842,1.8606,1.8255,1.8244,1.8242,1.8226,1.8237,1.8164,1.8003,1.8003,1.8065,1.8237,1.8226,1.8323,1.8541,1.8688,1.8678,1.8552,1.8688,1.8807,1.886,1.8914,1.8968,1.9032,1.9086,1.8972,1.8743,1.8972,1.8962,1.8732,1.8791,1.8828,1.8774,1.8774,1.8767,1.8702,1.8584,1.8498,1.8398,1.8291,1.8175,1.8013,1.8067,1.8003,1.7819,1.7992,1.8099,1.8099,1.8153,1.8097,1.8013,1.7949,0.0,0.0,0.0,0.0,0.0,0.0,0.0,0.0,0.0,1.7806,1.7871,0.0,1.8253,0.0,1.8544,1.8963,1.9433,1.948,0.0,0.0,2.0483,2.0756,2.0959,2.1462,2.1704,2.1534,2.1692,2.1813,2.1813,2.1813,2.1861,2.1982,2.1667,2.1438,2.151,2.1643,2.174,2.1813,2.1982,2.2115,2.2115,2.2115,2.2189,2.2337,2.2916,2.3222,2.2902,2.3541,2.3931,2.3514,2.3598,2.3794,2.3843,2.3817,2.375,2.3442,2.3407,2.3447,2.3482,2.3536,2.3589,1.9204,1.9118,1.9118,1.8957,1.871,1.8721,1.8721,1.8721,1.8721,1.8645,1.8527,1.8562,1.8602,1.8721,1.8721,1.8785,1.895,1.9054,1.9043,1.895,1.9054,1.9172,1.9269,1.9269,1.9359,1.9456,1.9467,1.9234,1.89,1.9049,1.9049,1.8863,1.9049,1.9123,1.9123,1.9105,1.9097,1.9101,1.9101,1.8812,1.822,1.8542,1.8585,1.828,1.8349,1.8336,1.8196,1.8132,1.8099,1.8099,1.811,1.8076,1.8099,1.8196,1.8229,0.0,0.0,0.0,0.0,0.0,0.0,0.0,0.0,0.0,0.0,0.0,1.8527,1.8562,1.8945,1.9277,1.9526,1.9706,1.9915,2.0188,2.0721,2.1133,2.125,2.1736,2.203,2.1885,2.1994,2.2079,2.2079,2.2079,2.2175,2.2429,2.2224,2.1994,2.1897,2.1994,2.2115,2.2236,2.2381,2.2526,2.2623,2.2647,2.2723,2.2874,2.3203,2.3392,2.3278,2.3955,2.4374,2.4026,2.428,2.4543,2.4543,2.4459,2.4392,2.4379,2.4285,2.4111,2.387,2.3817,2.3817,1.9313,1.9131,1.9094,1.9094,1.9094,1.9168,1.9172,1.9118,1.9118,1.9118,1.9118,1.9118,1.9129,1.9161,1.9161,1.9161,1.9161,1.9183,1.9183,1.9161,1.9193,1.9312,1.9542,1.9542,1.9687,1.9881,1.9881,1.9703,1.9315,1.9277,1.9298,1.9329,1.9298,1.9298,1.9308,1.9234,1.929,1.9488,1.9467,1.898,1.8096,1.8743,1.8925,1.8613,1.8759,1.8832,1.8821,1.8444,1.8229,1.8229,1.8024,1.8003,1.8218,1.8377,1.8616,0.0,1.9,0.0,0.0,0.0,0.0,0.0,0.0,0.0,0.0,1.9215,1.9247,1.9247,1.9478,1.9451,1.9226,1.9533,1.9878,2.0184,2.0874,2.1423,2.1756,2.213,2.2405,2.2405,2.2429,2.2453,2.2465,2.2478,2.2598,2.2828,2.2864,2.278,2.2562,2.2465,2.249,2.2719,2.2782,2.2804,2.2985,2.3097,2.3174,2.3444,2.3535,2.3623,2.3763,2.4393,2.4854,2.4662,2.5136,2.5546,2.5585,2.5344,2.5197,2.5208,2.4903,2.4516,2.4062,2.3964,2.3875,1.9231,1.9189,1.9189,1.9189,1.9227,1.9602,1.9499,1.9118,1.9118,1.9118,1.9118,1.9118,1.9226,1.9424,1.9435,1.9435,1.9445,1.9666,1.9644,1.9445,1.9628,1.9774,1.9817,1.9817,1.9838,1.9881,1.9881,1.9844,1.9768,1.9768,1.9837,1.9981,1.9827,1.9827,2.0009,0.0,0.0,0.0,1.9279,1.9088,1.8889,1.8998,1.9082,1.8998,1.8992,0.0,1.9043,1.8968,1.8914,1.8914,1.8871,0.0,0.0,0.0,0.0,0.0,0.0,0.0,0.0,0.0,0.0,0.0,1.9747,1.9801,1.9478,1.979,2.0016,2.0016,2.0048,1.9984,1.9784,1.9827,2.0113,2.0696,2.1186,2.1696,2.2286,2.2706,2.2937,2.2937,2.308,2.3186,2.3173,2.3366,2.3511,2.3535,2.3571,2.3559,2.3499,2.3152,2.2961,2.2997,2.3058,2.3084,2.3109,2.3157,2.3218,2.3237,2.3456,2.3838,2.4401,2.4868,2.5374,2.5542,2.5987,2.6146,2.5971,2.5864,2.581,2.5824,2.5371,2.489,2.4556,2.4476,2.4426,1.9738,0.0,1.9776,1.9891,0.0,1.9429,1.9103,1.8888,1.9298,1.9499,1.9488,1.9499,1.9564,1.9709,1.9709,1.9736,1.9854,1.9973,2.0027,2.0065,2.0183,2.0237,2.0237,2.0237,2.0237,2.0237,2.0237,2.0122,1.9941,1.9979,1.9994,2.0111,1.9994,1.9994,2.0111,1.9994,1.976,1.9372,1.9441,1.9277,1.8905,1.9277,1.9377,1.9155,0.0,0.0,0.0,0.0,0.0,0.0,0.0,0.0,0.0,0.0,0.0,1.929,1.9435,1.9499,1.9499,1.9714,1.9844,1.9854,2.0285,2.0404,2.0048,2.035,2.0511,2.0404,2.049,2.0457,2.027,2.05,2.0736,2.0895,2.1564,2.2081,2.2235,2.2574,2.289,2.3127,2.3246,2.3369,2.3568,2.3676,2.386,2.3981,2.3993,2.4053,2.4113,2.378,2.3478,2.3611,2.3796,2.3868,2.3828,2.3856,2.3936,2.4148,2.4347,2.4557,2.4922,2.5361,2.5721,2.5974,2.6292,2.6493,2.6627,2.6426,2.6212,2.6158,2.5743,2.5277,2.5077,2.4813,2.4599,2.0252,1.9938,2.033,2.0487,2.0409,1.9379,1.8966,1.9055,0.0,0.0,0.0,1.9935,2.0011,2.0011,2.0011,2.0119,2.0274,2.0274,2.0371,2.0593,2.0593,2.0593,2.0593,2.0593,2.0593,2.0593,2.0593,2.0448,2.0095,2.0095,2.0127,2.0148,2.0116,2.0106,2.0095,2.0095,1.9906,1.95,1.9821,1.9669,1.8993,1.9631,1.9859,1.944,1.9602,1.9693,1.9682,1.951,1.9365,1.9365,1.9365,1.9365,1.9365,1.9585,1.9682,1.9693,1.9903,2.0011,2.0011,2.0156,2.0257,2.0339,2.0684,2.0823,2.0669,2.0877,2.0931,2.0755,2.0899,2.0942,2.0755,2.1133,2.1395,2.1188,2.2017,2.2474,2.2358,2.2612,2.3086,2.338,2.3501,2.3606,2.3989,2.4053,2.4113,2.4354,2.4451,2.4475,2.4607,2.4282,2.4045,2.4348,2.4547,2.4741,2.4819,2.4729,2.4902,2.5165,2.519,2.5277,2.5532,2.5833,2.6105,2.6393,2.6648,2.6977,2.724,2.6948,2.6613,2.6533,2.6039,2.5598,2.5545,2.5133,2.4799,2.0027,1.9988,2.0056,2.0095,2.0106,2.0252,2.0397,2.0467,1.931,1.8779,1.8847,1.999,2.0507,2.0507,2.0496,2.0518,2.055,2.055,2.0572,0.0,2.0593,2.0593,2.0593,2.0593,2.0593,2.0593,2.0604,2.0565,2.0526,2.0526,2.0583,2.0734,2.0583,2.0498,2.0526,2.0526,2.0494,2.038,2.0457,2.0418,2.0351,2.0429,2.0457,2.0418,2.0425,2.0453,2.0453,2.0371,2.0399,2.0399,2.041,2.0399,2.0361,2.0421,2.0453,2.0453,2.0486,2.0496,2.0496,2.0539,2.0637,2.078,2.0867,2.0888,2.0877,2.1265,2.1426,2.1251,2.1383,2.1426,2.1251,2.1303,2.1613,2.2022,2.2579,2.309,2.3544,2.3939,2.4187,2.4269,2.4393,2.4447,2.4669,2.4759,2.4873,2.5126,2.5102,2.521,2.5138,2.4812,2.4688,2.5018,2.519,2.538,2.5649,2.5434,2.5396,2.5517,2.531,2.5477,2.627,2.6473,2.6715,2.7312,2.7594,2.7786,2.7682,2.7416,2.7188,2.7108,2.6519,2.5984,2.5971,2.5625,2.5384,1.9976,2.0451,2.0048,1.9876,1.9855,1.8579,1.764,1.7082,1.7095,1.8253,2.0074,2.0703,2.0917,2.077,2.0928,2.0917,2.0759,2.1017,2.106,2.1003,2.1071,2.1071,2.1003,2.0993,2.0953,2.0993,2.0993,2.0953,2.0993,2.0993,2.1046,2.1103,2.0873,2.0716,2.0577,2.0473,2.0411,2.0451,2.0561,2.0593,2.0593,2.0593,2.0593,2.0593,2.0593,2.0487,2.0213,2.0213,2.0213,2.0213,2.0213,2.033,2.0604,2.0593,2.0593,2.0593,2.0593,2.0593,2.0593,2.0852,2.109,2.1265,2.1416,2.1426,2.1297,2.145,2.1631,2.1653,2.176,2.1782,2.1726,2.203,2.2358,2.2624,2.3249,2.3722,2.3982,2.3963,2.4048,2.427,2.4301,2.4432,2.4816,2.504,2.5246,2.5379,2.5391,2.5403,2.5403,2.5318,2.5343,2.5642,2.5731,2.5941,2.6331,2.6289,2.6267,2.6568,2.6473,2.6524,2.7028,2.707,2.7205,2.7491,2.7733,2.7872,2.7894,2.7696,2.7535,2.7428,2.6947,2.6493,2.6386,2.6186,2.5892,1.9459,2.0206,1.9532,1.9336,1.9269,1.7196,1.5728,1.4922,1.5973,1.8009,2.0446,2.058,2.0415,2.023,2.0394,2.0333,2.0261,2.0559,2.0601,2.0549,2.0662,2.0642,2.0539,2.0487,2.0528,2.0487,2.0528,2.0487,2.0528,2.0487,2.0692,2.0876,2.0497,2.0411,2.0876,2.0421,2.034,2.0683,2.0835,2.0755,2.049,2.0533,2.0564,2.0683,2.0683,2.0525,2.0287,2.0287,2.0266,2.0214,2.0256,2.0446,2.0802,2.0788,2.0788,2.078,2.0788,2.0788,2.0863,2.119,2.1513,2.1685,2.1868,2.1922,2.1803,2.174,2.1825,2.1965,2.2083,2.2169,2.2245,2.264,2.3027,2.3136,2.3623,2.3948,2.396,2.3754,2.3677,2.4064,2.4061,2.4143,2.4512,2.4831,2.502,2.5153,2.5305,2.5415,2.5487,2.5668,2.5896,2.6192,2.6289,2.6546,2.6974,2.7016,2.7119,2.7519,2.7552,2.7484,2.7539,2.7611,2.7695,2.7793,2.7712,2.7854,2.8123,2.7938,2.7709,2.7629,2.7228,2.6921,2.6894,2.6747,2.64,1.8033,1.8051,1.8051,1.7975,1.7986,1.7811,1.7622,1.7561,1.8061,1.8383,1.8658,1.8311,1.8142,1.8064,1.8055,1.8148,1.8163,1.8032,1.8142,1.8217,1.8126,1.8126,1.8259,1.8184,1.8108,1.8184,1.8217,1.8325,1.8334,1.8259,1.8773,1.9758,1.8716,1.9376,2.1337,2.052,2.05,2.1807,2.1868,2.1302,2.014,2.0232,2.0549,2.096,2.0909,2.1073,2.1327,2.1441,2.1345,2.1214,2.1323,2.1431,2.1491,2.133,2.1308,2.148,2.133,2.1297,2.1513,2.176,2.1974,2.1974,2.2008,2.2105,2.2202,2.2224,2.218,2.2105,2.2374,2.2665,2.2869,2.2988,2.314,2.3358,2.3622,2.3741,2.3773,2.393,2.4064,2.4106,2.3884,2.3855,2.4158,2.4182,2.4252,2.4937,2.5244,2.5475,2.5668,2.582,2.6059,2.6598,2.6791,2.7184,2.7813,2.7751,2.7697,2.7861,2.7865,2.7822,2.7826,2.7938,2.8174,2.8119,2.8252,2.8161,2.8083,2.7909,2.7736,2.7736,2.7495,2.7269,2.7269,2.7202,2.6921,1.7171,1.7913,1.7143,1.6908,1.6885,1.6181,1.5863,1.587,1.5975,1.6049,1.599,1.5817,1.6561,1.7964,1.8076,1.8024,1.7841,1.8032,1.8006,1.7807,1.7903,1.7937,1.779,1.7781,1.7781,1.7781,1.7781,1.7781,1.7781,1.7781,1.8003,1.8322,1.7819,1.8094,1.9017,1.8403,1.8383,1.8895,1.8827,1.8478,1.8268,2.0161,2.1378,2.1586,2.1576,2.1493,2.1409,2.1409,2.1367,2.1324,2.1398,2.1534,2.1846,2.1749,2.1739,2.1825,2.1879,2.1943,2.204,2.2342,2.2611,2.2568,2.274,2.2762,2.2568,2.2632,2.2568,2.2309,2.2492,2.2783,2.3009,2.3261,2.3469,2.3589,2.3918,2.4079,2.3964,2.3868,2.3836,2.3879,2.38,2.3853,2.4212,2.4535,2.4913,2.5433,2.5534,2.5499,2.5784,2.5953,2.6141,2.6494,2.696,2.7586,2.8176,2.8409,2.8313,2.8191,2.8152,2.8065,2.7848,2.8043,2.8241,2.8244,2.8356,2.8323,2.8205,2.8125,2.7991,2.7938,2.7722,2.7523,2.7349,2.7309,2.7162,1.6042,1.6871,1.6056,1.5716,1.5741,1.4734,1.4299,1.4299,1.4299,1.4299,1.4299,1.4299,1.5286,1.6925,1.7208,1.7109,1.6927,1.7142,1.7134,1.6902,1.6974,1.6966,1.6843,1.6835,1.6835,1.6835,1.68,1.6792,1.6835,1.6835,1.6943,1.705,1.6719,1.6879,1.7386,1.705,1.6906,1.7248,1.7165,1.7097,1.7519,1.969,2.0945,2.08,2.1,2.1095,2.1011,2.1274,2.1411,2.1515,2.1526,2.1736,2.2041,2.2029,2.2008,2.2083,2.2288,2.2417,2.2482,2.2869,2.3105,2.3105,2.3213,2.316,2.2891,2.2847,2.2783,2.2568,2.2643,2.2891,2.3095,2.3501,2.3732,2.3831,2.4074,2.407,2.3892,2.3654,2.3479,2.3479,2.3501,2.3787,2.4279,2.4858,2.5385,2.5635,2.5582,2.5487,2.5771,2.5945,2.6146,2.6315,2.7067,2.7723,2.8268,2.8696,2.8789,2.8789,2.8626,2.8595,2.8072,2.831,2.8469,2.8613,2.8618,2.8521,2.8364,2.8312,2.8179,2.8138,2.7991,2.7791,2.767,2.7576,2.7563,1.4493,1.4685,1.4479,1.4483,1.4394,1.4357,1.4306,1.4333,1.4312,1.4306,1.4312,1.4319,1.4387,1.4625,1.4652,1.4419,1.4502,1.4587,1.4601,1.4678,1.4625,1.4499,1.4455,1.4455,1.453,1.4759,1.4803,1.4729,1.4604,1.4574,1.5154,1.6298,1.5249,1.5822,1.762,1.6992,1.7154,1.7919,1.8109,1.838,1.8398,1.8515,1.8339,1.7897,1.8576,1.9476,2.0255,2.1119,2.1673,2.1903,2.2033,2.2193,2.2214,2.2105,2.2094,2.2235,2.2503,2.2772,2.3009,2.3235,2.3375,2.3354,2.3214,2.3019,2.2965,2.288,2.2848,2.2933,2.2976,2.3149,2.3354,2.3616,2.3866,2.3994,2.3702,2.353,2.3476,2.3314,2.2999,2.3011,2.3413,2.3886,2.4219,2.4709,2.5184,2.5358,2.5349,2.5535,2.5801,2.5861,2.6078,2.6536,2.7055,2.7576,2.8315,2.8834,2.9096,2.907,2.9139,2.9346,2.9096,2.8884,2.8906,2.8872,2.8818,2.8708,2.8577,2.8404,2.8272,2.8192,2.8179,2.8031,2.7938,2.8085,2.8058,1.4566,1.4606,1.4604,1.4584,1.4539,1.4584,1.4539,1.4539,1.4584,1.4523,1.4462,1.4536,1.4482,1.4306,1.434,1.4333,1.4299,1.4238,1.4245,1.4299,1.4299,1.4299,1.4299,1.4299,1.4299,1.4299,1.4299,1.4299,1.4299,1.4299,1.4568,1.5,1.4695,1.5057,1.5823,1.5619,1.5656,1.6017,1.6115,1.6137,1.6227,1.6085,1.5935,1.5824,1.7595,1.9207,2.0384,2.0773,2.1001,2.1125,2.1173,2.1214,2.129,2.2,2.2096,2.1613,2.2336,2.3085,2.3418,2.3429,2.3472,2.3635,2.3408,2.3071,2.3051,2.3051,2.3117,2.3073,2.3354,2.3537,2.3646,2.3743,2.383,2.3873,2.3776,2.3603,2.3506,2.3495,2.3595,2.3897,2.4475,2.5046,2.5089,2.5536,2.591,2.6217,2.6086,2.5998,2.621,2.6295,2.6311,2.6637,2.7133,2.7628,2.7883,2.8674,2.9169,2.9214,2.9259,2.9066,2.886,2.9072,2.912,2.8968,2.8929,2.8961,2.8871,2.8644,2.843,2.8286,2.8272,2.8312,2.8179,2.8245,2.8232,1.4741,1.4694,1.4694,1.4694,1.4694,1.4694,1.4694,1.4694,1.4694,1.4633,1.4618,1.4647,1.4579,1.4482,1.4543,1.4536,1.4434,1.4346,1.4299,1.4306,1.4346,1.4367,1.438,1.4421,1.4441,1.4441,1.4441,1.4441,1.4441,1.4441,1.4489,1.4577,1.4584,1.4586,1.4687,1.4741,1.4801,1.4714,1.4741,1.4814,1.4808,1.4767,1.4721,1.4995,1.6444,1.793,1.9299,1.9642,1.9906,2.0037,2.0025,1.9959,2.0032,2.1238,2.15,2.064,2.1558,2.2347,2.2409,2.2227,2.2196,2.2399,2.2192,2.1989,2.1868,2.232,2.2577,2.2687,2.3347,2.3808,2.3894,2.3916,2.3938,2.397,2.3894,2.3776,2.3644,2.3743,2.3954,2.4315,2.4846,2.5318,2.5578,2.5694,2.5952,2.6418,2.6006,2.5852,2.597,2.6018,2.6155,2.6405,2.6884,2.7382,2.7834,2.8518,2.9015,2.9137,2.9407,2.915,2.9015,2.9227,2.9264,2.9126,2.9088,2.9194,2.9125,2.8855,2.8671,2.85,2.8484,2.8577,2.8457,2.8366,2.8353,1.4889,1.4728,1.4701,1.4728,1.4735,1.4741,1.4714,1.4728,1.4721,1.4728,1.4701,1.4714,1.4714,1.4674,1.4681,1.4687,1.4613,1.4455,1.4346,1.4353,1.4462,1.4516,1.4523,1.4593,1.4647,1.4654,1.4674,1.4674,1.4654,1.4647,1.4667,1.4687,1.4694,1.476,1.4708,1.4903,1.4903,1.4789,1.4909,1.5017,1.5003,1.4848,1.4841,1.4943,1.5043,1.5643,1.6854,1.7788,1.8476,1.8782,1.8786,1.8611,1.8567,1.9809,2.0135,1.9464,2.0229,2.0426,1.9885,1.9749,1.987,1.9977,1.9621,1.9798,2.0188,2.0881,2.1591,2.2136,2.3053,2.3894,2.4043,2.4075,2.4161,2.4401,2.4089,2.3927,2.4,2.3938,2.3884,2.4182,2.4595,2.4641,2.4832,2.5196,2.5476,2.5397,2.5259,2.5109,2.5223,2.5234,2.5267,2.5776,2.6435,2.6963,2.7665,2.8302,2.8686,2.9047,2.942,2.951,2.942,2.9496,2.9541,2.9409,2.9406,2.9468,2.9272,2.9072,2.8961,2.8858,2.8868,2.8801,2.8724,2.8577,2.8484,1.5086,1.5045,1.5045,1.5045,1.5045,1.5045,1.5045,1.5045,1.5045,1.4991,1.493,1.5004,1.4936,1.4755,1.4841,1.4841,1.4687,1.4593,1.4559,1.4566,1.4606,1.4626,1.4633,1.4674,1.4694,1.4694,1.4694,1.4694,1.4701,1.4701,1.4787,1.4875,1.4903,1.495,1.5031,1.5092,1.5086,1.5059,1.5092,1.512,1.5113,1.5065,1.5072,1.5146,1.5072,1.5278,1.5728,1.6666,1.727,1.7451,1.744,1.6933,1.6527,1.8124,1.8872,1.811,1.8897,1.9608,1.9608,1.9212,1.9071,1.9238,1.9142,1.9626,2.0449,2.1003,2.183,2.2802,2.3665,2.4043,2.4097,2.4118,2.4226,2.4477,2.4194,2.4075,2.4283,2.4393,2.4534,2.4613,2.499,2.5264,2.5298,2.5411,2.5332,2.5377,2.5297,2.5263,2.5263,2.5184,2.5388,2.5718,2.6149,2.6547,2.7172,2.7866,2.8456,2.8841,2.9228,2.9716,2.9702,2.9689,2.9734,2.9707,2.9704,2.9628,2.9432,2.9325,2.9272,2.9121,2.9028,2.8961,2.8895,2.8815,2.8778,1.5181,1.5181,1.5181,1.5181,1.5181,1.5181,1.5215,1.5255,1.5201,1.5194,1.5215,1.5187,1.512,1.5011,1.5038,1.4997,1.4909,1.4903,1.4903,1.4889,1.4841,1.4828,1.4835,1.4889,1.4903,1.4903,1.4903,1.4903,1.4903,1.4909,1.4957,1.5085,1.5098,1.5132,1.5174,1.5181,1.5181,1.5181,1.5181,1.5181,1.5181,1.5181,1.5181,1.5181,1.5181,1.5181,1.5261,1.5871,1.6177,1.6169,1.6171,1.5663,1.4975,1.6809,1.7614,1.6857,1.7389,1.8097,1.7978,1.7494,1.7528,1.7702,1.7608,1.8193,1.9488,2.0281,2.1471,2.281,2.3691,2.4118,2.4118,2.4118,2.4226,2.4488,2.4247,2.4194,2.4337,2.448,2.452,2.4555,2.4772,2.5023,2.5023,2.5069,2.5058,2.5069,2.5069,2.5012,2.5012,2.5001,2.5137,2.5514,2.6121,2.6466,2.6651,2.7355,2.8173,2.861,2.8996,2.948,2.9787,2.9792,2.9824,2.9824,2.9847,2.9788,2.9646,2.9646,2.9562,2.9402,2.9255,2.9282,2.9268,2.9219,2.9125,1.5201,1.5208,1.5194,1.5208,1.5208,1.5208,1.5282,1.5371,1.5289,1.5371,1.5513,1.5323,1.5269,1.5337,1.5221,1.5147,1.5174,1.5147,1.5133,1.5106,1.5085,1.4984,1.4997,1.5079,1.512,1.514,1.5147,1.5153,1.5126,1.5133,1.5181,1.516,1.516,1.5181,1.5181,1.5181,1.5181,1.5181,1.5181,1.5181,1.5181,1.5181,1.5181,1.5181,1.5181,1.5181,1.5221,1.5334,1.5294,1.52,1.5217,1.5107,1.5037,1.6029,1.6224,1.5308,1.6163,1.6167,1.5552,1.5571,1.5443,1.5648,1.5935,1.5971,1.7925,1.954,2.0908,2.2356,2.3444,2.4118,2.4118,2.4118,2.4215,2.4366,2.4269,2.4183,2.4129,2.4118,2.421,2.4164,2.4118,2.4118,2.4245,2.4256,2.4256,2.4256,2.4256,2.4302,2.4345,2.4516,2.457,2.5132,2.5914,2.6305,2.6501,2.7339,2.8137,2.8449,2.8831,2.9385,2.9763,2.9805,2.9913,2.9913,2.9913,2.99,2.9887,2.9833,2.9833,2.974,2.9686,2.9726,2.9659,2.9539,2.9459,1.5418,1.5458,1.5398,1.535,1.535,1.535,1.5371,1.5425,1.5445,1.5492,1.5546,1.5438,1.5371,1.5391,1.5255,1.5181,1.5181,1.5181,1.5181,1.5174,1.5147,1.5126,1.5126,1.516,1.5181,1.5181,1.5181,1.5181,1.5181,1.5181,1.5181,1.5181,1.5181,1.5181,1.5181,1.5181,1.5181,1.5181,1.5181,1.5181,1.5181,1.5181,1.5181,1.5181,1.5187,1.5187,1.5181,1.5181,1.5181,1.5181,1.52,1.5113,1.5098,1.5464,1.5524,1.5319,1.5412,1.5592,1.5287,1.5147,1.5147,1.5315,1.6018,1.746,1.8896,2.039,2.1879,2.3235,2.3981,2.4118,2.4118,2.4118,2.4161,2.4204,2.428,2.429,2.4151,2.4118,2.4118,2.4118,2.4129,2.4151,2.4161,2.4161,2.4161,2.4161,2.4172,2.4194,2.4269,2.4269,2.4451,2.4959,2.5627,2.6006,2.6523,2.7351,2.7969,2.8285,2.8779,2.942,2.9657,2.9716,2.9824,2.9913,2.9913,2.9913,2.9913,2.9887,2.9913,2.9913,2.9887,2.982,2.9847,2.978,2.9766,1.5499,1.5573,1.5472,1.5411,1.5404,1.5343,1.5384,1.5493,1.5479,1.5662,1.573,1.552,1.5452,1.5431,1.5282,1.5181,1.5181,1.5181,1.5181,1.5181,1.5174,1.5174,1.5181,1.5181,1.5181,1.5181,1.5181,1.5181,1.5181,1.5181,1.5181,1.5181,1.5181,1.5181,1.5181,1.5181,1.5181,1.5181,1.5181,1.5181,1.5181,1.5181,1.5181,1.5201,1.5235,1.5276,1.5276,1.5221,1.5181,1.5181,1.5181,1.5181,1.5181,1.5181,1.5181,1.5181,1.5181,1.5228,1.5181,1.5181,1.5181,1.5321,1.6112,1.7507,1.9129,2.0529,2.1648,2.3694,2.4026,2.4118,2.4118,2.4118,2.4118,2.4151,2.4323,2.4366,2.414,2.4215,2.4258,2.428,2.4334,2.4398,2.4398,2.4398,2.4398,2.442,2.4452,2.4441,2.4488,2.4398,2.448,2.4988,2.5473,2.596,2.6457,2.7237,2.7822,2.814,2.8724,2.9371,2.9664,2.9724,2.9792,2.9913,2.9913,2.9913,2.9913,2.9913,2.9913,2.9913,2.9913,2.9913,2.9913,2.9913,2.9913,1.5513,1.558,1.5506,1.5438,1.5398,1.5289,1.5404,1.5533,1.554,1.571,1.5913,1.5635,1.5554,1.5573,1.535,1.5208,1.5181,1.5181,1.5181,1.5181,1.5181,1.5181,1.5181,1.5181,1.5181,1.5181,1.5181,1.5181,1.5181,1.5181,1.5181,1.5181,1.5181,1.5181,1.5181,1.5181,1.5181,1.5181,1.5181,1.5181,1.5181,1.5181,1.5181,1.5248,1.5323,1.5357,1.5337,1.5276,1.5208,1.5181,1.5181,1.5181,1.5181,1.5181,1.5181,1.5181,1.5181,1.5181,1.5181,1.5181,1.5181,1.5275,1.5415,1.6439,1.8765,1.9834,2.1269,2.3373,2.397,2.414,2.4194,2.4183,2.4247,2.429,2.442,2.4423,2.429,2.4377,2.4542,2.4552,2.4689,2.4775,2.4797,2.4807,2.4786,2.4613,2.4657,2.4667,2.4657,2.4646,2.4729,2.4974,2.55,2.6013,2.6549,2.7134,2.7613,2.804,2.8682,2.9269,2.9756,2.9888,2.989,2.9913,2.9913,2.9913,2.9913,2.9913,2.9913,2.9913,2.9913,2.9913,2.9913,2.9913,2.9913,1.556,1.56,1.573,1.5622,1.5445,1.5451,1.5526,1.5587,1.5723,1.5908,1.5988,1.5888,1.571,1.558,1.5445,1.5303,1.5201,1.5187,1.5181,1.5181,1.5181,1.5181,1.5181,1.5181,1.5181,1.5181,1.5181,1.5181,1.5181,1.5181,1.5181,1.5181,1.5181,1.5181,1.5234,1.5201,1.5181,1.5181,1.5241,1.5208,1.5215,1.5215,1.5215,1.5235,1.535,1.535,1.5282,1.5316,1.5303,1.5215,1.5187,1.5201,1.5187,1.5181,1.5181,1.5181,1.5181,1.5181,1.5181,1.5181,1.5181,1.5275,1.6065,1.7188,1.7787,2.0083,2.138,2.258,2.3373,2.418,2.4366,2.456,2.4592,2.4613,2.4678,2.471,2.4678,2.47,2.4732,2.4743,2.4786,2.4807,2.4818,2.4861,2.485,2.4818,2.485,2.4883,2.4883,2.4893,2.4945,2.5065,2.5445,2.5893,2.6232,2.6875,2.7604,2.8071,2.8706,2.94,2.9873,2.996,2.9922,2.9913,2.9913,2.9913,2.9913,2.9913,2.9913,2.9913,2.9913,2.9913,2.9913,2.9913,2.9913,1.5526,1.5587,1.5642,1.5554,1.5438,1.5499,1.5485,1.5574,1.5764,1.5908,1.5872,1.5894,1.5771,1.5587,1.5554,1.5432,1.5296,1.5208,1.5181,1.5181,1.5181,1.5181,1.5181,1.5181,1.5181,1.5187,1.5181,1.5181,1.5181,1.5187,1.5181,1.5181,1.5187,1.5235,1.5282,1.5289,1.5343,1.5398,1.5398,1.5398,1.5398,1.5398,1.5445,1.5466,1.552,1.5493,1.552,1.5499,1.5472,1.5398,1.533,1.5248,1.5194,1.5181,1.5181,1.5181,1.5181,1.5181,1.5181,1.5181,1.5181,1.5187,1.5978,1.6726,1.7648,1.9733,2.1292,2.2293,2.3463,2.4506,2.466,2.47,2.4797,2.4829,2.4915,2.498,2.498,2.498,2.498,2.5001,2.5087,2.5141,2.5141,2.5076,2.512,2.5173,2.5184,2.5206,2.512,2.5098,2.5059,2.5206,2.5425,2.5711,2.5971,2.6651,2.7665,2.8195,2.879,2.9546,3.0208,3.0093,2.9927,2.9913,2.9913,2.9913,2.9913,2.9913,2.9913,2.9913,2.9913,2.9913,2.9913,2.9913,2.9913,1.5472,1.5567,1.5479,1.5418,1.5384,1.5432,1.5466,1.5499,1.5786,1.5874,1.575,1.5888,1.5832,1.5696,1.5676,1.5574,1.5411,1.5303,1.5242,1.5242,1.5241,1.5235,1.5262,1.5269,1.5262,1.5248,1.5242,1.5235,1.5235,1.5242,1.5309,1.5269,1.5262,1.535,1.5432,1.5404,1.5445,1.5581,1.5539,1.5546,1.5553,1.556,1.5655,1.5703,1.571,1.5683,1.571,1.5696,1.5655,1.5587,1.5465,1.5391,1.5289,1.5221,1.5242,1.5255,1.5289,1.5303,1.5309,1.5289,1.5282,1.5255,1.5309,1.5877,1.7252,1.8942,2.0564,2.2095,2.3453,2.4829,2.4861,2.4958,2.4958,2.498,2.513,2.5216,2.5227,2.5227,2.5227,2.5249,2.5303,2.5367,2.541,2.5399,2.5475,2.5518,2.5507,2.5486,2.5378,2.5303,2.5264,2.5237,2.541,2.5666,2.5881,2.6242,2.7246,2.8044,2.8656,2.9432,3.0181,3.0345,3.0175,2.9953,2.9913,2.9927,2.9927,2.9913,2.9913,2.9913,2.9913,2.9913,2.9913,2.9913,2.9913,1.535,1.5282,1.5506,1.5459,1.5282,1.5486,1.5539,1.558,1.5826,1.5962,1.5988,1.6071,1.5947,1.5845,1.5867,1.5669,1.5486,1.5384,1.5364,1.5343,1.5282,1.5289,1.5472,1.5418,1.5432,1.5499,1.5459,1.5391,1.5411,1.5493,1.5499,1.5492,1.5485,1.5519,1.5539,1.556,1.5573,1.5641,1.5641,1.5641,1.5634,1.5641,1.5648,1.575,1.5791,1.5791,1.5744,1.5778,1.5764,1.5607,1.5566,1.5539,1.5547,1.5452,1.5445,1.5493,1.5465,1.5506,1.5513,1.5485,1.5506,1.5512,1.5533,1.5547,1.6544,1.8512,2.0458,2.1668,2.3523,2.5109,2.512,2.5227,2.5356,2.5399,2.5389,2.5443,2.5443,2.5432,2.5432,2.5421,2.5486,2.5518,2.5518,2.5518,2.5518,2.5518,2.5518,2.5518,2.5464,2.5443,2.5432,2.5394,2.5318,2.5567,2.5835,2.6157,2.6772,2.7652,2.834,2.8971,2.9741,3.0379,3.0417,3.0093,2.9944,2.9967,2.9953,2.9927,2.9913,2.9913,2.9913,2.9913,2.9913,2.9913,2.9913,1.5248,1.5201,1.5343,1.5323,1.5248,1.5506,1.5546,1.5574,1.5832,1.592,1.592,1.5995,1.6044,1.5956,1.5996,1.5839,1.5655,1.5459,1.5466,1.5472,1.5391,1.5411,1.558,1.556,1.5526,1.5573,1.5622,1.5588,1.5492,1.5546,1.56,1.5587,1.5587,1.5621,1.5737,1.575,1.5798,1.5832,1.5859,1.5859,1.5859,1.5859,1.5866,1.5886,1.592,1.5927,1.5906,1.592,1.594,1.5872,1.5798,1.5805,1.5791,1.573,1.5635,1.56,1.56,1.5593,1.5593,1.5587,1.558,1.558,1.5593,1.5683,1.6494,1.8503,2.0846,2.2789,2.3774,2.5356,2.5356,2.5416,2.5507,2.5518,2.5518,2.5518,2.5518,2.5518,2.5518,2.5518,2.5518,2.5518,2.5518,2.5518,2.5518,2.5518,2.5518,2.5518,2.5518,2.5518,2.5518,2.5475,2.5389,2.5501,2.5773,2.6112,2.6573,2.7327,2.8116,2.874,2.944,3.0132,3.0241,3.0037,2.9964,3.0135,2.9967,2.994,2.9927,2.994,2.9967,2.9993,2.994,2.9913,2.994,1.5181,1.5187,1.5215,1.5228,1.5276,1.5554,1.5622,1.5594,1.5913,1.5954,1.5784,1.5961,1.6064,1.601,1.6037,1.6024,1.5805,1.5567,1.5581,1.5533,1.5472,1.5547,1.5689,1.5696,1.5661,1.5784,1.5832,1.5825,1.5716,1.5744,1.5688,1.5715,1.5695,1.5778,1.5928,1.5949,1.6037,1.6085,1.6133,1.6133,1.6133,1.6133,1.6133,1.6133,1.6133,1.6069,1.6049,1.6105,1.6112,1.6071,1.6024,1.6003,1.6085,1.601,1.5845,1.575,1.573,1.573,1.5688,1.5695,1.5722,1.5778,1.5695,1.5798,1.644,1.8442,2.1256,2.4154,2.4476,2.4515,2.4601,2.4973,2.5178,2.5518,2.5518,2.5518,2.5518,2.5518,2.5518,2.5518,2.5518,2.5518,2.5518,2.5518,2.5518,2.5518,2.5518,2.5518,2.5518,2.5518,2.5518,2.5518,2.5486,2.5486,2.5706,2.6034,2.6584,2.7251,2.8021,2.8735,2.9394,3.0011,3.0031,3.0121,3.0465,3.0568,3.0274,3.0042,3.0221,3.0274,3.0154,3.01,3.0114,3.0074,3.0047,1.5181,1.5194,1.533,1.5384,1.5425,1.5696,1.5867,1.5867,1.5995,1.6069,1.5988,1.6056,1.6119,1.6105,1.6105,1.5927,1.5771,1.5744,1.573,1.5689,1.5593,1.575,1.5954,1.5879,1.59,1.5947,1.6015,1.6017,1.5928,1.594,1.6001,1.5995,1.5981,1.6029,1.6064,1.6071,1.6062,1.6126,1.6133,1.6133,1.6133,1.6133,1.6133,1.6133,1.6133,1.6133,1.6133,1.6133,1.6133,1.6126,1.6112,1.6112,1.6126,1.6069,1.6056,1.6035,1.6029,1.6029,1.5995,1.5974,1.5974,1.5967,1.5988,1.6029,1.6757,1.7788,2.0158,2.3004,2.2427,2.2329,2.3219,2.3463,2.4146,2.4838,2.5178,2.5324,2.5469,2.5518,2.5518,2.5518,2.5518,2.5518,2.5518,2.5518,2.5518,2.5518,2.5518,2.5518,2.5518,2.5518,2.5518,2.5518,2.5518,2.5518,2.5761,2.61,2.6584,2.7201,2.7876,2.8595,2.9154,2.9697,3.0192,3.0392,3.0696,3.0869,3.0657,3.0537,3.0642,3.0595,3.0474,3.0394,3.04,3.0333,3.0234,1.5181,1.5194,1.5343,1.5411,1.5452,1.5779,1.5901,1.5935,1.6064,1.6133,1.6133,1.6133,1.6133,1.6133,1.6133,1.6015,1.59,1.5922,1.5928,1.5852,1.5818,1.5879,1.6015,1.6022,1.6092,1.6105,1.6126,1.6049,1.6064,1.6078,1.6133,1.6133,1.6133,1.6119,1.6133,1.6133,1.6126,1.6133,1.6133,1.6133,1.6133,1.6133,1.6133,1.6133,1.6133,1.6133,1.6133,1.6133,1.6133,1.6133,1.6133,1.6133,1.6133,1.6126,1.6126,1.6126,1.6126,1.6126,1.6119,1.6133,1.6133,1.6133,1.6182,1.6467,1.7261,1.7996,1.9174,2.1545,2.125,2.1201,2.1594,2.1839,2.2769,2.3658,2.4546,2.5081,2.5324,2.5469,2.5518,2.5518,2.5518,2.5518,2.5518,2.5518,2.5518,2.5518,2.5518,2.5518,2.5518,2.5518,2.5518,2.5518,2.5518,2.5518,2.5858,2.6197,2.6632,2.7201,2.755,2.8224,2.8728,2.9266,2.974,3.0251,3.0518,3.0697,3.0828,3.0863,3.0816,3.0808,3.0782,3.0715,3.0648,3.0595,3.0501,1.5242,1.5255,1.5404,1.5486,1.554,1.5847,1.5962,1.5976,1.6085,1.6133,1.6133,1.6133,1.6133,1.6133,1.6126,1.6092,1.6001,1.599,1.6003,1.6017,1.6024,1.603,1.6098,1.6126,1.6119,1.6133,1.6133,1.6119,1.6126,1.6133,1.6133,1.6133,1.6133,1.6133,1.6133,1.6133,1.6133,1.6133,1.6133,1.6133,1.6133,1.6133,1.6133,1.6133,1.6133,1.6133,1.6133,1.6133,1.6133,1.6133,1.6133,1.6133,1.6133,1.6133,1.6133,1.6133,1.6133,1.6133,1.6133,1.6133,1.6133,1.6133,1.6225,1.6672,1.7939,1.8236,1.8483,2.0061,1.9528,1.9618,2.016,2.0504,2.1888,2.2974,2.3863,2.4546,2.5178,2.5372,2.5518,2.5518,2.5518,2.5518,2.5518,2.5518,2.5518,2.5518,2.5518,2.5518,2.5518,2.5518,2.5664,2.5664,2.5518,2.5615,2.6003,2.639,2.6814,2.7056,2.7453,2.7839,2.8272,2.8752,2.9195,2.9685,3.0284,3.0803,3.1167,3.1082,3.1022,3.1129,3.1169,3.1036,3.0955,3.0889,3.0768,1.5398,1.5411,1.5512,1.5689,1.5867,1.6044,1.6062,1.6092,1.6119,1.6133,1.6133,1.6133,1.6133,1.6133,1.6119,1.6064,1.5942,1.6008,1.6044,1.6024,1.6037,1.6098,1.6133,1.6133,1.6133,1.6133,1.6133,1.6133,1.6133,1.6133,1.6133,1.6133,1.6133,1.6133,1.6133,1.6133,1.6133,1.6133,1.6133,1.6133,1.6133,1.6133,1.6133,1.6133,1.6133,1.6133,1.6133,1.6133,1.6133,1.6133,1.6133,1.6133,1.6133,1.6133,1.6133,1.6133,1.6133,1.6133,1.6133,1.6133,1.6133,1.6133,1.6225,1.6623,1.7749,1.6913,1.7211,1.8236,1.7855,1.7707,1.8639,1.9815,2.071,2.228,2.3268,2.4292,2.4935,2.5421,2.5518,2.5518,2.5518,2.5518,2.5518,2.5518,2.5518,2.5518,2.5518,2.5518,2.5518,2.5566,2.5809,2.5858,2.5615,2.5761,2.6208,2.6536,2.6729,2.6826,2.7067,2.7405,2.7791,2.826,2.8692,2.9507,3.0188,3.0856,3.1426,3.1369,3.1383,3.1543,3.1543,3.1356,3.1209,3.1129,3.0996,1.552,1.5731,1.575,1.5854,1.5915,1.6064,1.6133,1.6133,1.6133,1.6133,1.6133,1.6133,1.6133,1.6133,1.6133,1.6105,1.6001,1.6049,1.6029,1.6029,1.6105,1.6126,1.6133,1.6133,1.6133,1.6133,1.6133,1.6133,1.6133,1.6133,1.6133,1.6133,1.6133,1.6133,1.6133,1.6133,1.6133,1.6133,1.6133,1.6133,1.6133,1.6133,1.6133,1.6133,1.6133,1.6133,1.6133,1.6133,1.6133,1.6133,1.6133,1.6133,1.6133,1.6133,1.6133,1.6133,1.6133,1.6133,1.6133,1.6133,1.6133,1.6133,1.6133,1.6374,1.7162,1.6374,1.6325,1.6573,1.6573,1.6623,1.6963,1.7657,1.8548,2.0857,2.2622,2.3853,2.4827,2.5372,2.5518,2.5518,2.5518,2.5518,2.5518,2.5518,2.5518,2.5518,2.5518,2.5518,2.5518,2.5566,2.5809,2.5965,2.5771,2.582,2.6208,2.6401,2.6547,2.6595,2.6643,2.6971,2.7357,2.7791,2.8308,2.9219,3.0128,3.0808,3.1297,3.1534,3.1616,3.1664,3.1711,3.1657,3.1476,3.1356,3.1236,1.5662,1.5901,1.5956,1.5969,1.5983,1.6085,1.6133,1.6133,1.6133,1.6133,1.6133,1.6133,1.6133,1.6133,1.6133,1.6133,1.6119,1.6126,1.6126,1.6126,1.6126,1.6133,1.6133,1.6133,1.6133,1.6133,1.6133,1.6133,1.6133,1.6133,1.6133,1.6133,1.6133,1.6133,1.6133,1.6133,1.6133,1.6133,1.6133,1.6133,1.6133,1.6133,1.6133,1.6133,1.6133,1.6133,1.6133,1.6133,1.6133,1.6133,1.6133,1.6133,1.6133,1.6133,1.6133,1.6133,1.6133,1.6133,1.6133,1.6133,1.6133,1.6133,1.6133,1.6133,1.6133,1.6133,1.6225,1.6182,1.6133,1.6133,1.6175,1.7013,1.8392,2.0799,2.2133,2.3414,2.473,2.5518,2.5518,2.5518,2.5518,2.5518,2.5518,2.5518,2.5518,2.5518,2.5518,2.5518,2.5518,2.5615,2.5771,2.5868,2.582,2.5965,2.6208,2.6305,2.6353,2.6148,2.6245,2.6487,2.6874,2.7357,2.8128,2.9136,2.9997,3.076,3.1249,3.1582,3.1677,3.1724,3.1711,3.1711,3.1684,3.1517,3.1503,1.5894,1.5922,1.6058,1.6119,1.6112,1.6126,1.6133,1.6133,1.6133,1.6133,1.6133,1.6133,1.6133,1.6133,1.6133,1.6133,1.6133,1.6133,1.6133,1.6133,1.6133,1.6133,1.6133,1.6133,1.6133,1.6133,1.6133,1.6133,1.6133,1.6133,1.6133,1.6133,1.6133,1.6133,1.6133,1.6133,1.6133,1.6133,1.6133,1.6133,1.6133,1.6133,1.6133,1.6133,1.6133,1.6133,1.6133,1.6133,1.6133,1.6133,1.6133,1.6133,1.6133,1.6133,1.6133,1.6133,1.6133,1.6133,1.6133,1.6133,1.6133,1.6133,1.6133,1.6133,1.6133,1.6133,1.6133,1.6133,1.6133,1.6133,1.6573,1.7253,1.8738,2.0357,2.1741,2.3111,2.4487,2.5518,2.5518,2.5518,2.5518,2.5518,2.5518,2.5518,2.5518,2.5518,2.5518,2.5518,2.5518,2.5615,2.5761,2.5868,2.5868,2.5965,2.6111,2.6208,2.6159,2.5858,2.5809,2.61,2.6584,2.7212,2.8079,2.9088,3.0045,3.0903,3.1344,3.1724,3.1724,3.1724,3.1724,3.1711,3.1724,3.1711,3.1657,1.5962,1.6008,1.6062,1.6133,1.6133,1.6133,1.6133,1.6133,1.6133,1.6133,1.6133,1.6133,1.6133,1.6133,1.6133,1.6133,1.6133,1.6133,1.6133,1.6133,1.6133,1.6133,1.6133,1.6133,1.6133,1.6133,1.6133,1.6133,1.6133,1.6133,1.6133,1.6133,1.6133,1.6133,1.6133,1.6133,1.6133,1.6133,1.6133,1.6133,1.6133,1.6133,1.6133,1.6133,1.6133,1.6133,1.6133,1.6133,1.6133,1.6133,1.6133,1.6133,1.6133,1.6133,1.6133,1.6133,1.6133,1.6133,1.6133,1.6133,1.6133,1.6133,1.6133,1.6133,1.6133,1.6133,1.6133,1.6133,1.6133,1.6133,1.6325,1.6424,1.7707,2.0061,2.1634,2.3062,2.4282,2.5119,2.5518,2.5518,2.5518,2.5518,2.5518,2.5518,2.5518,2.5518,2.5518,2.5518,2.5518,2.5566,2.5664,2.5858,2.5965,2.6014,2.6062,2.6014,2.5917,2.5712,2.5615,2.5664,2.6294,2.6971,2.7887,2.8788,2.9949,3.1059,3.1439,3.1724,3.1724,3.1724,3.1724,3.1724,3.1724,3.1724,3.1711,1.6037,1.6076,1.6133,1.6133,1.6133,1.6133,1.6133,1.6133,1.6133,1.6133,1.6133,1.6133,1.6133,1.6133,1.6133,1.6133,1.6133,1.6133,1.6133,1.6133,1.6133,1.6133,1.6133,1.6133,1.6133,1.6133,1.6133,1.6133,1.6133,1.6133,1.6133,1.6133,1.6133,1.6133,1.6133,1.6133,1.6133,1.6133,1.6133,1.6133,1.6133,1.6133,1.6133,1.6133,1.6133,1.6133,1.6133,1.6133,1.6133,1.6133,1.6133,1.6133,1.6133,1.6133,1.6133,1.6133,1.6133,1.6133,1.6133,1.6133,1.6133,1.6133,1.6133,1.6133,1.6133,1.6133,1.6133,1.6133,1.6133,1.6133,1.6133,1.6133,1.7409,1.9766,2.129,2.2662,2.4487,2.5372,2.5518,2.5518,2.5518,2.5518,2.5518,2.5518,2.5518,2.5518,2.5518,2.5518,2.5518,2.5566,2.5566,2.5761,2.5858,2.5809,2.5761,2.5723,2.5615,2.5518,2.5507,2.5486,2.5906,2.6632,2.7538,2.8548,2.9698,3.076,3.1379,3.1724,3.1724,3.1724,3.1724,3.1724,3.1724,3.1724,3.1724,1.6126,1.6133,1.6133,1.6133,1.6133,1.6133,1.6133,1.6133,1.6133,1.6133,1.6133,1.6133,1.6133,1.6133,1.6133,1.6133,1.6133,1.6133,1.6133,1.6133,1.6133,1.6133,1.6133,1.6133,1.6133,1.6133,1.6133,1.6133,1.6133,1.6133,1.6133,1.6133,1.6133,1.6133,1.6133,1.6133,1.6133,1.6133,1.6133,1.6133,1.6133,1.6133,1.6133,1.6133,1.6133,1.6133,1.6133,1.6133,1.6133,1.6133,1.6133,1.6133,1.6133,1.6133,1.6133,1.6133,1.6133,1.6133,1.6133,1.6133,1.6133,1.6133,1.6133,1.6133,1.6133,1.6133,1.6133,1.6133,1.6133,1.6133,1.6133,1.6722,1.7409,1.9125,2.0652,2.2515,2.473,2.5518,2.5518,2.5518,2.5518,2.5518,2.5518,2.5518,2.5518,2.5518,2.5518,2.5518,2.5518,2.5518,2.5518,2.5566,2.5615,2.5566,2.5518,2.5566,2.5566,2.5518,2.5453,2.548,2.59,2.6416,2.7492,2.8536,2.9542,3.0462,3.1379,3.1724,3.1724,3.1724,3.1724,3.1724,3.1724,3.1724,3.1724,1.6133,1.6133,1.6133,1.6133,1.6133,1.6133,1.6133,1.6133,1.6133,1.6133,1.6133,1.6133,1.6133,1.6133,1.6133,1.6133,1.6133,1.6133,1.6133,1.6133,1.6133,1.6133,1.6133,1.6133,1.6133,1.6133,1.6133,1.6133,1.6133,1.6133,1.6133,1.6133,1.6133,1.6133,1.6133,1.6133,1.6133,1.6139,1.6139,1.6139,1.6139,1.6139,1.6139,1.6146,1.6133,1.6133,1.6133,1.6133,1.6133,1.6133,1.6133,1.6133,1.6133,1.6133,1.6133,1.6133,1.6133,1.6133,1.6133,1.6133,1.6133,1.6133,1.6133,1.6133,1.6133,1.6133,1.6133,1.6133,1.6133,1.6133,1.6133,1.6573,1.7848,1.9569,2.0897,2.2368,2.4438,2.5518,2.5518,2.5518,2.5518,2.5518,2.5518,2.5518,2.5518,2.5518,2.5518,2.5518,2.5518,2.5518,2.5518,2.5518,2.5518,2.5518,2.5518,2.5518,2.5518,2.5507,2.5443,2.5459,2.5733,2.642,2.7529,2.8726,2.9934,3.0782,3.1521,3.1677,3.1724,3.1724,3.1724,3.1724,3.1724,3.1724,3.1724,1.6133,1.6133,1.6133,1.6133,1.6133,1.6133,1.6133,1.6133,1.6133,1.6133,1.6133,1.6133,1.6133,1.6133,1.6133,1.6133,1.6133,1.6133,1.6133,1.6133,1.6133,1.6133,1.6133,1.6133,1.6133,1.6133,1.6133,1.6133,1.6133,1.6133,1.6133,1.6133,1.6133,1.6133,1.6133,1.6133,1.6123,1.613,1.6137,1.613,1.613,1.6117,1.6117,1.6137,1.6123,1.6133,1.6133,1.6133,1.6133,1.6133,1.6133,1.6133,1.6133,1.6133,1.6133,1.6133,1.6133,1.6133,1.6133,1.6133,1.6133,1.6133,1.6133,1.6133,1.6133,1.6133,1.6133,1.6133,1.6133,1.6133,1.6133,1.6424,1.8441,2.0406,2.1339,2.227,2.3746,2.5227,2.5518,2.5518,2.5518,2.5518,2.5518,2.5518,2.5518,2.5518,2.5518,2.5518,2.5518,2.5518,2.5518,2.5518,2.5518,2.5518,2.5518,2.5518,2.5518,2.5507,2.5475,2.555,2.5706,2.6449,2.752,2.8999,3.0479,3.1183,3.1677,3.1724,3.1724,3.1724,3.1724,3.1724,3.1724,3.1724,3.1724,1.6133,1.6133,1.6133,1.6133,1.6133,1.6133,1.6133,1.6133,1.6133,1.6133,1.6133,1.6133,1.6133,1.6133,1.6133,1.6133,1.6133,1.6133,1.6133,1.6133,1.6133,1.6133,1.6133,1.6133,1.6133,1.6133,1.6133,1.6133,1.6133,1.6133,1.6133,1.6133,1.6133,1.6133,1.6133,1.6123,1.6178,1.6232,1.6198,1.6171,1.6218,1.6191,1.6137,1.6218,1.6164,1.6133,1.6133,1.6133,1.6133,1.6133,1.6133,1.6133,1.6133,1.6133,1.6133,1.6133,1.6133,1.6133,1.6133,1.6133,1.6133,1.6133,1.6133,1.6133,1.6133,1.6133,1.6133,1.6133,1.6133,1.6133,1.6133,1.6275,1.7657,1.947,2.0701,2.2075,2.3707,2.4935,2.5518,2.5518,2.5518,2.5518,2.5518,2.5518,2.5518,2.5518,2.5518,2.5518,2.5518,2.5518,2.5518,2.5518,2.5518,2.5518,2.5518,2.5518,2.5518,2.5507,2.5475,2.5475,2.5583,2.6464,2.7546,2.92,3.0885,3.1305,3.1724,3.1724,3.1724,3.1724,3.1724,3.1724,3.1724,3.1724,3.1724,1.6133,1.6133,1.6133,1.6133,1.6133,1.6133,1.6133,1.6133,1.6133,1.6133,1.6133,1.6133,1.6133,1.6133,1.6133,1.6133,1.6133,1.6133,1.6133,1.6133,1.6133,1.6133,1.6133,1.6133,1.6133,1.6133,1.6133,1.6133,1.6133,1.6133,1.6133,1.6133,1.6133,1.6133,1.6139,1.6151,1.6239,1.63,1.6252,1.6232,1.6273,1.6178,1.616,1.6137,1.6139,1.6133,1.6133,1.6133,1.6133,1.6133,1.6133,1.6133,1.6133,1.6133,1.6133,1.6133,1.6133,1.6133,1.6133,1.6133,1.6133,1.6133,1.6133,1.6133,1.6133,1.6133,1.6133,1.6133,1.6133,1.6133,1.6182,1.6325,1.6821,1.8491,2.0209,2.1937,2.3707,2.4643,2.5421,2.5518,2.5518,2.5518,2.5518,2.5518,2.5518,2.5518,2.5518,2.5518,2.5518,2.5518,2.5518,2.5518,2.5518,2.5518,2.5518,2.5518,2.5518,2.5561,2.5566,2.5539,2.5631,2.7061,2.8546,2.9871,3.1175,3.1521,3.1724,3.1724,3.1724,3.1724,3.1724,3.1724,3.1724,3.1724,3.1724,1.6133,1.6133,1.6133,1.6133,1.6133,1.6133,1.6133,1.6133,1.6133,1.6133,1.6133,1.6133,1.6133,1.6133,1.6133,1.6133,1.6133,1.6133,1.6133,1.6133,1.6133,1.6133,1.6133,1.6133,1.6133,1.6133,1.6133,1.6133,1.6133,1.6133,1.6133,1.6133,1.6133,1.609,1.6096,1.6178,1.6259,1.63,1.6259,1.6259,1.6279,1.6178,1.6137,1.6144,1.6123,1.6153,1.6133,1.6133,1.6133,1.6133,1.6133,1.6133,1.6133,1.6133,1.6133,1.6133,1.6133,1.6133,1.6133,1.6133,1.6133,1.6133,1.6133,1.6133,1.6133,1.6133,1.6133,1.6133,1.6133,1.6133,1.6133,1.6225,1.7013,1.8384,2.0111,2.1888,2.3658,2.5081,2.5469,2.5518,2.5518,2.5518,2.5518,2.5518,2.5518,2.5518,2.5518,2.5518,2.5518,2.5518,2.5518,2.5518,2.5518,2.5518,2.5518,2.5518,2.5518,2.555,2.563,2.6619,2.7314,2.844,2.9685,3.06,3.1278,3.1569,3.1724,3.1724,3.1724,3.1724,3.1724,3.1724,3.1724,3.1724,3.1724,1.6133,1.6133,1.6133,1.6133,1.6133,1.6133,1.6133,1.6133,1.6133,1.6133,1.6133,1.6133,1.6133,1.6133,1.6133,1.6133,1.6133,1.6133,1.6133,1.6133,1.6133,1.6133,1.6133,1.6133,1.6133,1.6133,1.6133,1.6133,1.6133,1.6133,1.6133,1.6133,1.6096,1.6103,1.6096,1.6144,1.6239,1.6266,1.6252,1.6225,1.6198,1.6164,1.6171,1.6178,1.6164,1.6139,1.6133,1.6133,1.6133,1.6133,1.6133,1.6133,1.6133,1.6133,1.6133,1.6133,1.6133,1.6133,1.6133,1.6133,1.6133,1.6133,1.6133,1.6133,1.6133,1.6133,1.6133,1.6133,1.6133,1.6133,1.6133,1.6623,1.7452,1.8483,2.0307,2.2133,2.3902,2.5421,2.5469,2.5518,2.5518,2.5518,2.5518,2.5518,2.5518,2.5518,2.5518,2.5518,2.5518,2.5518,2.5518,2.5518,2.5518,2.5518,2.5518,2.5518,2.5518,2.5604,2.5878,2.7507,2.8855,2.9276,2.9921,3.0768,3.1362,3.1637,3.1724,3.1724,3.1724,3.1724,3.1724,3.1724,3.1724,3.1724,3.1724,1.6133,1.6133,1.6133,1.6133,1.6133,1.6133,1.6133,1.6133,1.6133,1.6133,1.6133,1.6133,1.6133,1.6133,1.6133,1.6133,1.6133,1.6133,1.6133,1.6133,1.6133,1.6133,1.6133,1.6133,1.6133,1.6133,1.6133,1.6133,1.6133,1.6133,1.6133,1.6133,1.6218,1.6205,1.613,1.6212,1.6327,1.6313,1.6273,1.6246,1.6225,1.6178,1.611,1.6103,1.6153,1.6133,1.6133,1.6133,1.6133,1.6133,1.6133,1.6133,1.6133,1.6133,1.6133,1.6133,1.6133,1.6133,1.6133,1.6133,1.6133,1.6133,1.6133,1.6133,1.6133,1.6133,1.6133,1.6133,1.6133,1.6133,1.6325,1.7402,1.8335,1.947,2.0996,2.2965,2.4886,2.5372,2.5518,2.5518,2.5518,2.5518,2.5518,2.5518,2.5518,2.5518,2.5518,2.5518,2.5518,2.5518,2.5518,2.5518,2.5518,2.5518,2.5518,2.5518,2.5518,2.5615,2.604,2.7505,2.8631,2.9444,3.0159,3.1044,3.1401,3.165,3.1724,3.1724,3.1724,3.1724,3.1724,3.1724,3.1724,3.1724,3.1724]},{"header":{"parameterUnit":"m.s-1","parameterCategory":1,"la1":31.0,"la2":29.5877,"lo1":-88.7671,"lo2":-86.6584,"dy":0.0162,"dx":0.0185,"nx":115,"ny":88,"refTime":"2023-09-29T12:00:00:Z","depth":0,"parameterNumber":3,"parameterNumberName":"V-component_of_WINDS"},"data":[0.0,0.0,0.0,0.0,0.0,0.0,0.0,0.0,0.0,0.0,0.0,0.0,0.0,0.0,0.0,0.0,0.0,0.0,0.0,0.0,0.0,0.0,0.0,0.0,0.0,0.0,0.0,0.0,0.0,0.0,0.0,0.0,0.0,0.0,0.0,0.0,0.0,0.0,0.0,0.0,0.0,0.0,0.0,0.0,0.0,0.0,0.0,0.0,0.0,0.0,0.0,0.0,0.0,0.0,0.0,0.0,0.0,0.0,0.0,0.0,0.0,0.0,0.0,0.0,0.0,0.0,0.0,0.0,0.0,0.0,0.0,0.0,0.0,0.0,0.0,0.0,0.0,0.0,0.0,0.0,0.0,0.0,0.0,0.0,0.0,0.0,0.0,0.0,0.0,0.0,0.0,0.0,0.0,0.0,0.0,0.0,0.0,0.0,0.0,0.0,0.0,0.0,0.0,0.0,0.0,0.0,0.0,0.0,0.0,0.0,0.0,0.0,0.0,0.0,0.0,0.0,0.0,0.0,0.0,0.0,0.0,0.0,0.0,0.0,0.0,0.0,0.0,0.0,0.0,0.0,0.0,0.0,0.0,0.0,0.0,0.0,0.0,0.0,0.0,0.0,0.0,0.0,0.0,0.0,0.0,0.0,0.0,0.0,0.0,0.0,0.0,0.0,0.0,0.0,0.0,0.0,0.0,0.0,0.0,0.0,0.0,0.0,0.0,0.0,0.0,0.0,0.0,0.0,0.0,0.0,0.0,0.0,0.0,0.0,0.0,0.0,0.0,0.0,0.0,0.0,0.0,0.0,0.0,0.0,0.0,0.0,0.0,0.0,0.0,0.0,0.0,0.0,0.0,0.0,0.0,0.0,0.0,0.0,0.0,0.0,0.0,0.0,0.0,0.0,0.0,0.0,0.0,0.0,0.0,0.0,0.0,0.0,0.0,0.0,0.0,0.0,0.0,0.0,0.0,0.0,0.0,0.0,0.0,0.0,0.0,0.0,0.0,0.0,0.0,0.0,0.0,0.0,0.0,0.0,0.0,0.0,0.0,0.0,0.0,0.0,0.0,0.0,0.0,0.0,0.0,0.0,0.0,0.0,0.0,0.0,0.0,0.0,0.0,0.0,0.0,0.0,0.0,0.0,0.0,0.0,0.0,0.0,0.0,0.0,0.0,0.0,0.0,0.0,0.0,0.0,0.0,0.0,0.0,0.0,0.0,0.0,0.0,0.0,0.0,0.0,0.0,0.0,0.0,0.0,0.0,0.0,0.0,0.0,0.0,0.0,0.0,0.0,0.0,0.0,0.0,0.0,0.0,0.0,0.0,0.0,0.0,0.0,0.0,0.0,0.0,0.0,0.0,0.0,0.0,0.0,0.0,0.0,0.0,0.0,0.0,0.0,0.0,0.0,0.0,0.0,0.0,0.0,0.0,0.0,0.0,0.0,0.0,0.0,0.0,0.0,0.0,0.0,0.0,0.0,0.0,0.0,0.0,0.0,0.0,0.0,0.0,0.0,0.0,0.0,0.0,0.0,0.0,0.0,0.0,0.0,0.0,0.0,0.0,0.0,0.0,0.0,0.0,0.0,0.0,0.0,0.0,0.0,0.0,0.0,0.0,0.0,0.0,0.0,0.0,0.0,0.0,0.0,0.0,0.0,0.0,0.0,0.0,0.0,0.0,0.0,0.0,0.0,0.0,0.0,0.0,0.0,0.0,0.0,0.0,0.0,0.0,0.0,0.0,0.0,0.0,0.0,0.0,0.0,0.0,0.0,0.0,0.0,0.0,0.0,0.0,0.0,0.0,0.0,0.0,0.0,0.0,0.0,0.0,0.0,0.0,0.0,0.0,0.0,0.0,0.0,0.0,0.0,0.0,0.0,0.0,0.0,0.0,0.0,0.0,0.0,0.0,0.0,0.0,0.0,0.0,0.0,0.0,0.0,0.0,0.0,0.0,0.0,0.0,0.0,0.0,0.0,0.0,0.0,0.0,0.0,0.0,0.0,0.0,0.0,0.0,0.0,0.0,0.0,0.0,0.0,0.0,0.0,0.0,0.0,0.0,0.0,0.0,0.0,0.0,0.0,0.0,0.0,0.0,0.0,0.0,0.0,0.0,0.0,0.0,0.0,0.0,0.0,0.0,0.0,0.0,0.0,0.0,0.0,0.0,0.0,0.0,0.0,0.0,0.0,0.0,0.0,0.0,0.0,0.0,0.0,0.0,0.0,0.0,0.0,0.0,0.0,0.0,0.0,0.0,0.0,0.0,0.0,0.0,0.0,0.0,0.0,0.0,0.0,0.0,0.0,0.0,0.0,0.0,0.0,0.0,0.0,0.0,0.0,0.0,0.0,0.0,0.0,0.0,0.0,0.0,0.0,0.0,0.0,0.0,0.0,0.0,0.0,0.0,0.0,0.0,0.0,0.0,0.0,0.0,0.0,0.0,0.0,0.0,0.0,0.0,0.0,0.0,0.0,0.0,0.0,0.0,0.0,0.0,0.0,0.0,0.0,0.0,0.0,0.0,0.0,0.0,0.0,0.0,0.0,0.0,0.0,0.0,0.0,0.0,0.0,0.0,0.0,0.0,0.0,0.0,0.0,0.0,0.0,0.0,0.0,0.0,0.0,0.0,0.0,0.0,0.0,0.0,0.0,0.0,0.0,0.0,0.0,0.0,0.0,0.0,0.0,0.0,0.0,0.0,0.0,0.0,0.0,0.0,0.0,0.0,0.0,0.0,0.0,0.0,0.0,0.0,0.0,0.0,0.0,0.0,0.0,0.0,0.0,0.0,0.0,0.0,0.0,0.0,0.0,0.0,0.0,0.0,0.0,0.0,0.0,0.0,0.0,0.0,0.0,0.0,0.0,0.0,0.0,0.0,0.0,0.0,0.0,0.0,0.0,0.0,0.0,0.0,0.0,0.0,0.0,0.0,0.0,0.0,0.0,0.0,0.0,0.0,0.0,0.0,0.0,0.0,0.0,0.0,0.0,0.0,0.0,0.0,0.0,0.0,0.0,0.0,0.0,0.0,0.0,0.0,0.0,0.0,0.0,0.0,0.0,0.0,0.0,0.0,0.0,0.0,0.0,0.0,0.0,0.0,0.0,0.0,0.0,0.0,0.0,0.0,0.0,0.0,0.0,0.0,0.0,0.0,0.0,0.0,0.0,0.0,0.0,0.0,0.0,0.0,0.0,0.0,0.0,0.0,0.0,0.0,0.0,0.0,0.0,0.0,0.0,0.0,0.0,0.0,0.0,0.0,0.0,0.0,0.0,0.0,0.0,0.0,0.0,0.0,0.0,0.0,0.0,0.0,0.0,0.0,0.0,0.0,0.0,0.0,0.0,0.0,0.0,0.0,0.0,0.0,0.0,0.0,0.0,0.0,0.0,0.0,0.0,0.0,0.0,0.0,0.0,0.0,0.0,0.0,0.0,0.0,0.0,0.0,0.0,0.0,0.0,0.0,0.0,0.0,0.0,0.0,0.0,0.0,0.0,0.0,0.0,0.0,0.0,0.0,0.0,0.0,0.0,0.0,0.0,0.0,0.0,0.0,0.0,0.0,0.0,0.0,0.0,0.0,0.0,0.0,0.0,0.0,0.0,0.0,0.0,0.0,0.0,0.0,0.0,0.0,0.0,0.0,0.0,0.0,0.0,0.0,0.0,0.0,0.0,0.0,0.0,0.0,0.0,0.0,0.0,0.0,0.0,0.0,0.0,0.0,0.0,0.0,0.0,0.0,0.0,0.0,0.0,0.0,0.0,0.0,0.0,0.0,0.0,0.0,0.0,0.0,0.0,0.0,0.0,0.0,0.0,0.0,0.0,0.0,0.0,0.0,0.0,0.0,0.0,0.0,0.0,0.0,0.0,0.0,0.0,0.0,0.0,0.0,0.0,0.0,0.0,0.0,0.0,0.0,0.0,0.0,0.0,0.0,0.0,0.0,0.0,0.0,0.0,0.0,0.0,0.0,0.0,0.0,0.0,0.0,0.0,0.0,0.0,0.0,0.0,0.0,0.0,0.0,0.0,0.0,0.0,0.0,0.0,0.0,0.0,0.0,0.0,0.0,0.0,0.0,0.0,0.0,0.0,0.0,0.0,0.0,0.0,0.0,0.0,0.0,0.0,0.0,0.0,0.0,0.0,0.0,0.0,0.0,0.0,0.0,0.0,0.0,0.0,0.0,0.0,0.0,0.0,0.0,0.0,0.0,0.0,0.0,0.0,0.0,0.0,0.0,0.0,0.0,0.0,0.0,0.0,0.0,0.0,0.0,0.0,0.0,0.0,3.9623,0.0,0.0,0.0,0.0,0.0,0.0,0.0,0.0,0.0,0.0,0.0,0.0,0.0,0.0,0.0,0.0,0.0,0.0,0.0,0.0,0.0,0.0,0.0,0.0,0.0,0.0,0.0,0.0,0.0,0.0,0.0,0.0,0.0,0.0,0.0,0.0,0.0,0.0,0.0,0.0,0.0,0.0,0.0,0.0,0.0,0.0,0.0,0.0,0.0,0.0,0.0,0.0,0.0,0.0,0.0,0.0,0.0,0.0,0.0,0.0,0.0,0.0,0.0,0.0,0.0,0.0,0.0,0.0,0.0,0.0,0.0,0.0,0.0,0.0,0.0,0.0,0.0,0.0,0.0,0.0,0.0,0.0,0.0,0.0,0.0,0.0,0.0,0.0,0.0,0.0,0.0,0.0,0.0,0.0,0.0,0.0,0.0,0.0,0.0,0.0,0.0,0.0,0.0,0.0,0.0,0.0,0.0,0.0,0.0,0.0,3.9034,3.9168,3.9249,3.9657,4.0404,0.0,0.0,0.0,0.0,0.0,0.0,0.0,0.0,0.0,0.0,0.0,0.0,0.0,0.0,0.0,0.0,0.0,0.0,0.0,0.0,0.0,0.0,0.0,0.0,0.0,0.0,0.0,0.0,0.0,0.0,0.0,0.0,0.0,0.0,0.0,0.0,0.0,0.0,0.0,0.0,0.0,0.0,0.0,0.0,0.0,0.0,0.0,0.0,0.0,0.0,0.0,0.0,0.0,0.0,0.0,0.0,0.0,0.0,0.0,0.0,0.0,0.0,0.0,0.0,0.0,0.0,0.0,0.0,0.0,0.0,0.0,0.0,0.0,0.0,0.0,0.0,0.0,0.0,0.0,0.0,0.0,0.0,0.0,0.0,0.0,0.0,0.0,0.0,0.0,0.0,0.0,0.0,0.0,0.0,0.0,0.0,0.0,0.0,0.0,0.0,0.0,0.0,0.0,0.0,0.0,0.0,0.0,0.0,0.0,0.0,0.0,0.0,3.99,4.0458,4.156,0.0,0.0,0.0,0.0,0.0,0.0,0.0,0.0,0.0,0.0,0.0,0.0,0.0,0.0,0.0,0.0,0.0,0.0,0.0,0.0,0.0,0.0,0.0,0.0,0.0,0.0,0.0,0.0,0.0,0.0,0.0,0.0,0.0,0.0,0.0,0.0,0.0,0.0,0.0,0.0,0.0,0.0,0.0,0.0,0.0,0.0,0.0,0.0,0.0,0.0,0.0,0.0,0.0,0.0,0.0,0.0,0.0,0.0,0.0,0.0,0.0,0.0,0.0,0.0,0.0,0.0,0.0,0.0,0.0,0.0,0.0,0.0,0.0,0.0,0.0,0.0,0.0,0.0,0.0,0.0,0.0,0.0,0.0,0.0,0.0,0.0,0.0,0.0,0.0,0.0,0.0,0.0,0.0,0.0,0.0,0.0,0.0,0.0,0.0,0.0,0.0,0.0,0.0,0.0,0.0,0.0,0.0,0.0,0.0,0.0,4.1385,4.1487,4.1528,0.0,4.3296,0.0,0.0,0.0,0.0,0.0,0.0,0.0,0.0,0.0,0.0,0.0,0.0,0.0,0.0,0.0,0.0,0.0,0.0,0.0,0.0,0.0,0.0,0.0,0.0,0.0,0.0,0.0,0.0,0.0,0.0,0.0,0.0,0.0,0.0,0.0,0.0,0.0,0.0,0.0,0.0,0.0,0.0,0.0,0.0,0.0,0.0,0.0,0.0,0.0,0.0,0.0,0.0,0.0,0.0,0.0,0.0,0.0,0.0,0.0,0.0,0.0,0.0,0.0,0.0,0.0,0.0,0.0,0.0,0.0,0.0,0.0,0.0,0.0,0.0,0.0,0.0,0.0,0.0,0.0,0.0,0.0,0.0,0.0,0.0,0.0,0.0,0.0,0.0,0.0,0.0,0.0,0.0,0.0,0.0,0.0,0.0,0.0,0.0,0.0,0.0,0.0,0.0,0.0,0.0,0.0,0.0,0.0,0.0,0.0,0.0,4.1645,4.1703,4.2329,4.2965,0.0,0.0,0.0,0.0,0.0,0.0,0.0,0.0,0.0,0.0,0.0,0.0,0.0,0.0,0.0,0.0,0.0,0.0,0.0,0.0,0.0,0.0,0.0,0.0,0.0,0.0,0.0,0.0,0.0,0.0,0.0,0.0,0.0,0.0,0.0,0.0,0.0,0.0,0.0,0.0,0.0,0.0,0.0,0.0,0.0,0.0,0.0,0.0,0.0,0.0,0.0,0.0,0.0,0.0,0.0,0.0,0.0,0.0,0.0,0.0,0.0,0.0,0.0,0.0,0.0,0.0,0.0,0.0,0.0,0.0,0.0,0.0,0.0,0.0,0.0,0.0,0.0,0.0,0.0,0.0,0.0,0.0,0.0,0.0,0.0,0.0,0.0,0.0,0.0,0.0,0.0,0.0,0.0,0.0,0.0,0.0,0.0,0.0,0.0,0.0,0.0,0.0,0.0,0.0,0.0,0.0,0.0,0.0,0.0,0.0,4.2315,4.2315,4.2426,4.3163,4.3693,4.3825,0.0,0.0,0.0,0.0,0.0,0.0,0.0,0.0,0.0,0.0,0.0,0.0,0.0,0.0,0.0,0.0,0.0,0.0,0.0,0.0,0.0,0.0,0.0,0.0,0.0,0.0,0.0,0.0,0.0,0.0,0.0,0.0,0.0,0.0,0.0,0.0,0.0,0.0,0.0,0.0,0.0,0.0,0.0,0.0,0.0,0.0,0.0,0.0,0.0,0.0,0.0,0.0,0.0,0.0,0.0,0.0,0.0,0.0,0.0,0.0,0.0,0.0,0.0,0.0,0.0,0.0,0.0,0.0,0.0,0.0,0.0,0.0,0.0,0.0,0.0,0.0,0.0,0.0,0.0,0.0,0.0,0.0,0.0,0.0,0.0,0.0,0.0,0.0,0.0,0.0,0.0,0.0,0.0,0.0,0.0,0.0,0.0,0.0,0.0,0.0,0.0,0.0,0.0,0.0,0.0,0.0,0.0,0.0,4.4042,4.3914,4.3958,4.4042,4.4243,4.4395,0.0,0.0,0.0,0.0,0.0,0.0,0.0,0.0,0.0,0.0,0.0,0.0,0.0,0.0,0.0,0.0,0.0,0.0,0.0,0.0,0.0,0.0,0.0,0.0,0.0,0.0,0.0,0.0,0.0,0.0,0.0,0.0,0.0,0.0,0.0,0.0,0.0,0.0,0.0,0.0,0.0,0.0,0.0,0.0,0.0,0.0,0.0,0.0,0.0,0.0,0.0,0.0,0.0,0.0,0.0,0.0,0.0,0.0,0.0,0.0,0.0,0.0,0.0,0.0,0.0,0.0,0.0,0.0,0.0,0.0,0.0,0.0,0.0,0.0,0.0,0.0,0.0,0.0,0.0,0.0,0.0,0.0,0.0,0.0,0.0,0.0,0.0,0.0,0.0,0.0,0.0,0.0,0.0,0.0,0.0,0.0,0.0,0.0,0.0,0.0,0.0,0.0,0.0,0.0,0.0,0.0,0.0,0.0,0.0,4.4162,4.407,4.4062,4.4191,4.4252,4.4325,0.0,0.0,0.0,0.0,0.0,0.0,0.0,0.0,0.0,0.0,0.0,0.0,0.0,0.0,0.0,0.0,0.0,0.0,0.0,0.0,0.0,0.0,0.0,0.0,0.0,0.0,0.0,0.0,0.0,0.0,0.0,0.0,0.0,0.0,0.0,0.0,0.0,0.0,0.0,0.0,0.0,0.0,0.0,0.0,0.0,0.0,0.0,0.0,0.0,0.0,0.0,0.0,0.0,0.0,0.0,0.0,0.0,0.0,0.0,0.0,0.0,0.0,0.0,0.0,0.0,0.0,0.0,0.0,0.0,0.0,0.0,0.0,0.0,0.0,0.0,0.0,0.0,0.0,0.0,0.0,0.0,0.0,0.0,0.0,0.0,0.0,0.0,0.0,0.0,0.0,0.0,0.0,0.0,0.0,0.0,0.0,0.0,0.0,0.0,0.0,0.0,0.0,0.0,0.0,0.0,0.0,0.0,0.0,0.0,4.4153,0.0,4.4055,4.4146,4.4176,4.4267,0.0,0.0,0.0,0.0,0.0,0.0,0.0,0.0,0.0,0.0,0.0,0.0,0.0,0.0,0.0,0.0,0.0,0.0,0.0,0.0,0.0,0.0,0.0,0.0,0.0,0.0,0.0,0.0,0.0,0.0,0.0,0.0,0.0,0.0,0.0,0.0,0.0,0.0,0.0,0.0,0.0,0.0,0.0,0.0,0.0,0.0,0.0,0.0,0.0,0.0,0.0,0.0,0.0,0.0,0.0,0.0,0.0,0.0,0.0,0.0,0.0,0.0,0.0,0.0,0.0,0.0,0.0,0.0,0.0,0.0,0.0,0.0,0.0,0.0,0.0,0.0,0.0,0.0,0.0,0.0,0.0,0.0,0.0,0.0,0.0,0.0,0.0,0.0,0.0,0.0,0.0,0.0,0.0,0.0,0.0,0.0,0.0,0.0,0.0,0.0,0.0,0.0,0.0,0.0,0.0,0.0,0.0,0.0,4.4237,4.4031,4.4023,4.4023,4.4023,4.4108,4.4199,0.0,0.0,0.0,0.0,0.0,0.0,0.0,0.0,0.0,0.0,0.0,0.0,0.0,0.0,0.0,0.0,0.0,0.0,0.0,0.0,0.0,0.0,0.0,0.0,0.0,0.0,0.0,0.0,0.0,0.0,0.0,0.0,0.0,0.0,0.0,0.0,0.0,0.0,0.0,0.0,0.0,0.0,0.0,0.0,0.0,0.0,0.0,0.0,0.0,0.0,0.0,0.0,0.0,0.0,0.0,0.0,0.0,0.0,0.0,0.0,0.0,0.0,0.0,0.0,0.0,0.0,0.0,0.0,0.0,0.0,0.0,0.0,0.0,0.0,0.0,0.0,0.0,0.0,0.0,0.0,0.0,0.0,0.0,0.0,0.0,0.0,0.0,0.0,0.0,0.0,0.0,0.0,0.0,0.0,0.0,0.0,0.0,0.0,0.0,0.0,0.0,0.0,0.0,0.0,0.0,0.0,0.0,0.0,0.0,4.4023,4.4016,4.4016,4.4023,4.4146,4.4222,0.0,0.0,0.0,0.0,0.0,0.0,0.0,0.0,0.0,0.0,0.0,0.0,0.0,0.0,0.0,0.0,0.0,0.0,0.0,0.0,0.0,0.0,0.0,0.0,0.0,0.0,0.0,0.0,0.0,0.0,0.0,0.0,0.0,0.0,0.0,0.0,0.0,0.0,0.0,0.0,0.0,0.0,0.0,0.0,0.0,0.0,0.0,0.0,0.0,0.0,0.0,0.0,0.0,0.0,0.0,0.0,0.0,0.0,0.0,0.0,0.0,0.0,0.0,0.0,0.0,0.0,0.0,0.0,0.0,0.0,0.0,0.0,0.0,0.0,0.0,0.0,0.0,0.0,0.0,0.0,0.0,0.0,0.0,0.0,0.0,0.0,0.0,0.0,0.0,0.0,0.0,0.0,0.0,0.0,0.0,0.0,0.0,0.0,0.0,0.0,0.0,0.0,0.0,0.0,0.0,0.0,0.0,0.0,0.0,4.496,4.4915,4.4804,4.4506,4.4592,4.4512,4.4267,0.0,0.0,0.0,0.0,0.0,0.0,0.0,0.0,0.0,0.0,0.0,0.0,0.0,0.0,0.0,0.0,0.0,0.0,0.0,0.0,0.0,0.0,0.0,0.0,0.0,0.0,0.0,0.0,0.0,0.0,0.0,0.0,0.0,0.0,0.0,0.0,0.0,0.0,0.0,0.0,0.0,0.0,0.0,0.0,0.0,0.0,0.0,0.0,0.0,0.0,0.0,0.0,0.0,0.0,0.0,0.0,0.0,0.0,0.0,0.0,0.0,0.0,0.0,0.0,0.0,0.0,0.0,0.0,0.0,0.0,0.0,0.0,0.0,0.0,0.0,0.0,0.0,0.0,0.0,0.0,0.0,0.0,0.0,0.0,0.0,0.0,0.0,0.0,0.0,0.0,0.0,0.0,0.0,0.0,0.0,0.0,0.0,0.0,0.0,0.0,0.0,0.0,0.0,0.0,0.0,0.0,0.0,0.0,4.6558,4.6624,4.6223,4.5406,4.5382,4.5056,0.0,0.0,0.0,0.0,0.0,0.0,0.0,0.0,0.0,0.0,0.0,0.0,0.0,0.0,0.0,0.0,0.0,0.0,0.0,0.0,0.0,0.0,0.0,0.0,0.0,0.0,0.0,0.0,0.0,0.0,0.0,0.0,0.0,0.0,0.0,0.0,0.0,0.0,0.0,0.0,0.0,0.0,0.0,0.0,0.0,0.0,0.0,0.0,0.0,0.0,0.0,0.0,0.0,0.0,0.0,0.0,0.0,0.0,0.0,0.0,0.0,0.0,0.0,0.0,0.0,0.0,0.0,0.0,0.0,0.0,0.0,0.0,0.0,0.0,0.0,0.0,0.0,0.0,0.0,0.0,0.0,0.0,0.0,0.0,0.0,0.0,0.0,0.0,0.0,0.0,0.0,0.0,0.0,0.0,0.0,0.0,0.0,0.0,0.0,0.0,0.0,0.0,0.0,0.0,0.0,0.0,0.0,0.0,0.0,4.7413,4.7961,4.759,4.6261,4.5727,4.5387,0.0,0.0,0.0,0.0,0.0,0.0,0.0,0.0,0.0,0.0,0.0,0.0,0.0,0.0,0.0,0.0,0.0,0.0,0.0,0.0,0.0,0.0,0.0,0.0,0.0,0.0,0.0,0.0,0.0,0.0,0.0,0.0,0.0,0.0,0.0,0.0,0.0,0.0,0.0,0.0,0.0,0.0,0.0,0.0,0.0,0.0,0.0,0.0,0.0,0.0,0.0,0.0,0.0,0.0,0.0,0.0,0.0,0.0,0.0,0.0,0.0,0.0,0.0,0.0,0.0,0.0,0.0,0.0,0.0,0.0,0.0,0.0,0.0,0.0,0.0,0.0,0.0,0.0,0.0,0.0,0.0,0.0,0.0,0.0,0.0,0.0,0.0,0.0,0.0,0.0,0.0,0.0,0.0,0.0,0.0,0.0,0.0,0.0,0.0,0.0,0.0,0.0,0.0,0.0,0.0,0.0,0.0,0.0,4.8029,4.8184,4.8667,4.8444,4.7516,4.6869,4.6247,0.0,0.0,0.0,0.0,0.0,0.0,0.0,0.0,0.0,0.0,0.0,0.0,0.0,0.0,0.0,0.0,0.0,0.0,0.0,0.0,0.0,0.0,0.0,0.0,0.0,0.0,0.0,0.0,0.0,0.0,0.0,0.0,0.0,0.0,0.0,0.0,0.0,0.0,0.0,0.0,0.0,0.0,0.0,0.0,0.0,0.0,0.0,0.0,0.0,0.0,0.0,0.0,0.0,0.0,0.0,0.0,0.0,0.0,0.0,0.0,0.0,0.0,0.0,0.0,0.0,0.0,0.0,0.0,0.0,0.0,0.0,0.0,0.0,0.0,0.0,0.0,0.0,0.0,0.0,0.0,0.0,0.0,0.0,0.0,0.0,0.0,0.0,0.0,0.0,0.0,0.0,0.0,0.0,0.0,0.0,0.0,0.0,0.0,0.0,0.0,0.0,0.0,0.0,0.0,0.0,0.0,0.0,0.0,4.8269,4.889,4.889,4.8936,4.8907,4.8331,4.7302,0.0,0.0,0.0,0.0,0.0,0.0,0.0,0.0,0.0,0.0,0.0,0.0,0.0,0.0,0.0,0.0,0.0,0.0,0.0,0.0,0.0,0.0,0.0,0.0,0.0,0.0,0.0,0.0,0.0,0.0,0.0,0.0,0.0,0.0,0.0,0.0,0.0,0.0,0.0,0.0,0.0,0.0,0.0,0.0,0.0,0.0,0.0,0.0,0.0,0.0,0.0,0.0,0.0,0.0,0.0,0.0,0.0,0.0,0.0,0.0,0.0,0.0,0.0,0.0,0.0,0.0,0.0,0.0,0.0,0.0,0.0,0.0,0.0,0.0,0.0,0.0,0.0,0.0,0.0,0.0,0.0,0.0,0.0,0.0,0.0,0.0,0.0,0.0,0.0,0.0,0.0,0.0,0.0,0.0,0.0,0.0,0.0,0.0,0.0,0.0,0.0,0.0,0.0,0.0,0.0,0.0,0.0,0.0,4.8827,4.889,4.889,4.8953,4.9068,4.8413,4.7641,0.0,0.0,0.0,0.0,0.0,0.0,0.0,0.0,0.0,0.0,0.0,0.0,0.0,0.0,0.0,0.0,0.0,0.0,0.0,0.0,0.0,0.0,0.0,0.0,0.0,0.0,0.0,0.0,0.0,0.0,0.0,0.0,0.0,0.0,0.0,0.0,0.0,0.0,0.0,0.0,0.0,0.0,0.0,0.0,0.0,0.0,0.0,0.0,4.4562,0.0,0.0,0.0,0.0,0.0,0.0,0.0,0.0,0.0,0.0,0.0,0.0,0.0,0.0,0.0,0.0,0.0,0.0,0.0,0.0,0.0,0.0,0.0,0.0,0.0,0.0,0.0,0.0,0.0,0.0,0.0,0.0,0.0,0.0,0.0,0.0,0.0,0.0,0.0,0.0,0.0,0.0,0.0,0.0,0.0,0.0,0.0,0.0,0.0,0.0,0.0,0.0,0.0,0.0,0.0,0.0,0.0,0.0,0.0,4.8979,4.889,4.889,4.8945,4.8996,4.8762,4.8294,0.0,0.0,0.0,0.0,0.0,0.0,0.0,0.0,0.0,0.0,0.0,0.0,0.0,0.0,0.0,0.0,0.0,0.0,0.0,0.0,0.0,0.0,0.0,0.0,0.0,0.0,0.0,0.0,0.0,0.0,0.0,0.0,0.0,0.0,0.0,0.0,0.0,0.0,0.0,0.0,0.0,0.0,0.0,0.0,0.0,0.0,0.0,0.0,0.0,0.0,0.0,0.0,0.0,0.0,0.0,0.0,0.0,0.0,0.0,0.0,0.0,0.0,0.0,0.0,0.0,0.0,0.0,0.0,0.0,0.0,0.0,0.0,0.0,0.0,0.0,0.0,0.0,0.0,0.0,0.0,0.0,0.0,0.0,0.0,0.0,0.0,0.0,0.0,0.0,0.0,0.0,0.0,0.0,0.0,0.0,0.0,0.0,0.0,0.0,0.0,0.0,0.0,0.0,0.0,0.0,0.0,0.0,4.8607,4.8945,4.8933,4.8933,4.897,4.8959,4.9135,4.9029,4.852,0.0,0.0,0.0,0.0,0.0,0.0,0.0,0.0,0.0,0.0,0.0,0.0,0.0,0.0,0.0,0.0,0.0,0.0,0.0,0.0,0.0,0.0,0.0,0.0,0.0,0.0,0.0,0.0,0.0,0.0,0.0,0.0,0.0,0.0,0.0,0.0,0.0,0.0,4.369,4.4378,0.0,0.0,0.0,0.0,0.0,0.0,0.0,0.0,4.6186,0.0,0.0,0.0,0.0,0.0,0.0,0.0,0.0,0.0,0.0,0.0,0.0,0.0,0.0,0.0,0.0,0.0,0.0,0.0,0.0,0.0,0.0,0.0,0.0,0.0,0.0,0.0,0.0,0.0,0.0,0.0,0.0,0.0,0.0,0.0,0.0,0.0,0.0,0.0,0.0,0.0,0.0,0.0,0.0,0.0,0.0,0.0,0.0,0.0,0.0,0.0,0.0,0.0,0.0,0.0,0.0,4.8869,4.901,4.911,4.9156,4.9164,4.9197,4.9225,4.9354,4.9431,4.9363,0.0,0.0,0.0,0.0,0.0,0.0,0.0,0.0,0.0,0.0,0.0,0.0,0.0,0.0,0.0,0.0,0.0,0.0,0.0,0.0,0.0,0.0,0.0,0.0,0.0,0.0,0.0,0.0,0.0,0.0,0.0,0.0,0.0,0.0,0.0,0.0,0.0,0.0,0.0,4.5186,4.5984,0.0,0.0,0.0,0.0,0.0,0.0,0.0,0.0,4.7352,0.0,0.0,0.0,0.0,0.0,0.0,0.0,0.0,0.0,0.0,0.0,0.0,0.0,0.0,0.0,0.0,0.0,0.0,0.0,0.0,0.0,0.0,0.0,0.0,0.0,0.0,0.0,0.0,0.0,0.0,0.0,0.0,0.0,0.0,0.0,0.0,0.0,0.0,0.0,0.0,0.0,0.0,0.0,0.0,0.0,0.0,0.0,0.0,0.0,0.0,0.0,0.0,0.0,0.0,0.0,4.9064,4.9152,4.9164,4.9205,4.9205,4.923,4.9262,4.9305,4.9391,0.0,0.0,0.0,0.0,0.0,0.0,0.0,0.0,0.0,0.0,0.0,0.0,0.0,0.0,0.0,0.0,0.0,0.0,0.0,0.0,0.0,0.0,0.0,0.0,0.0,0.0,0.0,0.0,0.0,0.0,0.0,0.0,0.0,0.0,0.0,0.0,0.0,0.0,0.0,0.0,4.6278,4.6828,4.7599,0.0,0.0,0.0,0.0,0.0,0.0,4.8039,4.8039,0.0,0.0,0.0,0.0,0.0,0.0,0.0,0.0,0.0,0.0,0.0,0.0,0.0,0.0,0.0,0.0,0.0,0.0,0.0,0.0,0.0,0.0,0.0,0.0,0.0,0.0,0.0,0.0,0.0,0.0,0.0,0.0,0.0,0.0,0.0,0.0,0.0,0.0,0.0,0.0,0.0,0.0,0.0,0.0,0.0,0.0,0.0,0.0,0.0,0.0,0.0,0.0,0.0,0.0,0.0,4.935,4.9575,4.9708,4.9749,4.9716,4.9708,4.9749,4.9724,4.9706,0.0,0.0,0.0,0.0,0.0,0.0,0.0,0.0,0.0,0.0,0.0,0.0,0.0,0.0,0.0,0.0,0.0,0.0,0.0,0.0,0.0,0.0,0.0,0.0,0.0,0.0,0.0,0.0,0.0,0.0,0.0,0.0,0.0,0.0,0.0,0.0,0.0,0.0,0.0,0.0,0.0,4.7856,4.8489,4.871,0.0,0.0,0.0,0.0,4.8773,4.8673,0.0,0.0,0.0,0.0,0.0,0.0,0.0,0.0,0.0,0.0,0.0,0.0,0.0,0.0,0.0,0.0,0.0,0.0,0.0,0.0,0.0,0.0,0.0,0.0,0.0,0.0,0.0,0.0,0.0,0.0,0.0,0.0,0.0,0.0,0.0,0.0,0.0,0.0,0.0,0.0,0.0,0.0,0.0,0.0,0.0,0.0,0.0,0.0,0.0,0.0,0.0,0.0,0.0,0.0,0.0,0.0,5.0264,5.0944,5.1403,5.1581,5.1411,5.1403,5.159,5.1516,5.1187,0.0,0.0,0.0,0.0,0.0,0.0,0.0,0.0,0.0,0.0,0.0,0.0,0.0,0.0,0.0,0.0,0.0,0.0,0.0,0.0,0.0,0.0,0.0,0.0,0.0,0.0,0.0,0.0,0.0,0.0,0.0,0.0,0.0,0.0,0.0,0.0,0.0,0.0,0.0,0.0,0.0,4.9344,4.9454,5.0041,5.0508,0.0,0.0,4.9674,5.0398,4.9931,0.0,0.0,0.0,0.0,0.0,0.0,0.0,0.0,0.0,0.0,0.0,0.0,0.0,0.0,0.0,0.0,0.0,0.0,0.0,0.0,0.0,0.0,0.0,0.0,0.0,0.0,0.0,0.0,0.0,0.0,0.0,0.0,0.0,0.0,0.0,0.0,0.0,0.0,0.0,0.0,0.0,0.0,0.0,0.0,0.0,0.0,0.0,0.0,0.0,0.0,0.0,0.0,0.0,0.0,0.0,5.0654,5.1187,5.1603,5.1811,5.1877,5.1819,5.1811,5.1931,5.189,5.1702,0.0,0.0,0.0,0.0,0.0,0.0,0.0,0.0,0.0,0.0,0.0,0.0,0.0,0.0,0.0,0.0,0.0,0.0,0.0,0.0,0.0,0.0,0.0,0.0,0.0,0.0,0.0,0.0,0.0,0.0,0.0,0.0,0.0,0.0,0.0,0.0,0.0,0.0,0.0,0.0,0.0,0.0,5.0225,5.0582,0.0,0.0,0.0,5.0398,5.0765,0.0,0.0,0.0,0.0,0.0,0.0,0.0,0.0,0.0,0.0,0.0,0.0,0.0,0.0,0.0,0.0,0.0,0.0,0.0,0.0,0.0,0.0,0.0,0.0,0.0,0.0,0.0,0.0,0.0,0.0,0.0,0.0,0.0,0.0,0.0,0.0,0.0,0.0,0.0,0.0,0.0,0.0,0.0,0.0,0.0,0.0,0.0,0.0,0.0,0.0,0.0,0.0,0.0,0.0,0.0,0.0,0.0,5.2107,5.2353,5.2507,5.2523,5.2482,5.2557,5.2786,5.2807,0.0,0.0,0.0,0.0,0.0,0.0,0.0,0.0,0.0,0.0,0.0,0.0,0.0,0.0,0.0,0.0,0.0,0.0,0.0,0.0,0.0,0.0,0.0,0.0,0.0,0.0,0.0,4.7214,0.0,0.0,0.0,0.0,0.0,0.0,0.0,0.0,0.0,0.0,0.0,0.0,0.0,0.0,5.0408,5.1022,5.1279,5.1379,0.0,0.0,5.1169,5.1379,5.1242,5.1096,0.0,0.0,0.0,0.0,0.0,0.0,0.0,0.0,0.0,0.0,0.0,0.0,0.0,0.0,0.0,0.0,0.0,0.0,0.0,0.0,0.0,0.0,0.0,0.0,0.0,0.0,0.0,0.0,0.0,0.0,0.0,0.0,0.0,0.0,0.0,0.0,0.0,0.0,0.0,0.0,0.0,0.0,0.0,0.0,0.0,0.0,0.0,0.0,0.0,0.0,0.0,0.0,0.0,0.0,0.0,5.2922,5.3717,5.4135,5.4213,5.4057,5.4385,5.533,5.526,5.4931,0.0,0.0,0.0,0.0,0.0,0.0,0.0,0.0,0.0,0.0,0.0,0.0,0.0,0.0,0.0,0.0,0.0,0.0,0.0,0.0,0.0,0.0,0.0,0.0,0.0,0.0,0.0,0.0,0.0,0.0,0.0,0.0,0.0,0.0,0.0,0.0,0.0,0.0,0.0,0.0,0.0,5.184,5.1914,5.2564,5.3031,0.0,0.0,5.2171,5.292,5.2417,5.1914,5.195,0.0,0.0,0.0,0.0,0.0,0.0,0.0,0.0,0.0,0.0,0.0,0.0,0.0,0.0,0.0,0.0,0.0,0.0,0.0,0.0,0.0,0.0,0.0,0.0,0.0,0.0,0.0,0.0,0.0,0.0,0.0,0.0,0.0,0.0,0.0,0.0,0.0,0.0,0.0,0.0,0.0,0.0,0.0,0.0,0.0,0.0,0.0,0.0,0.0,0.0,0.0,0.0,0.0,5.3259,5.387,5.4161,5.4375,5.44,5.434,5.4715,5.5593,5.5567,5.5679,0.0,0.0,0.0,0.0,0.0,0.0,0.0,0.0,0.0,0.0,0.0,0.0,0.0,0.0,0.0,0.0,0.0,0.0,0.0,0.0,0.0,0.0,0.0,0.0,0.0,0.0,0.0,0.0,5.1518,5.1897,5.1897,0.0,0.0,0.0,0.0,0.0,0.0,0.0,0.0,0.0,0.0,5.2242,5.2685,5.3445,0.0,0.0,5.4116,5.4153,5.3959,5.3702,5.3482,5.3482,5.3492,0.0,0.0,0.0,0.0,0.0,0.0,0.0,0.0,0.0,0.0,0.0,0.0,0.0,0.0,0.0,0.0,0.0,0.0,0.0,0.0,0.0,0.0,0.0,0.0,0.0,0.0,0.0,0.0,0.0,0.0,0.0,0.0,0.0,0.0,0.0,0.0,0.0,0.0,0.0,0.0,0.0,0.0,0.0,0.0,0.0,0.0,0.0,0.0,0.0,0.0,0.0,0.0,5.421,5.516,5.516,5.516,5.516,5.516,5.5527,5.6306,5.6344,5.6615,0.0,0.0,0.0,0.0,0.0,0.0,0.0,0.0,0.0,0.0,0.0,0.0,0.0,0.0,0.0,0.0,0.0,0.0,0.0,0.0,0.0,0.0,0.0,0.0,0.0,0.0,0.0,0.0,5.3243,5.3577,5.355,0.0,0.0,0.0,0.0,0.0,0.0,0.0,0.0,0.0,0.0,5.3397,5.3859,5.4399,5.4766,5.4766,5.5207,5.5401,5.484,5.4777,5.4766,5.4766,0.0,0.0,0.0,0.0,0.0,0.0,0.0,0.0,0.0,0.0,0.0,0.0,0.0,0.0,0.0,0.0,0.0,0.0,0.0,0.0,0.0,0.0,0.0,0.0,0.0,0.0,0.0,0.0,0.0,0.0,0.0,0.0,0.0,0.0,0.0,0.0,0.0,0.0,0.0,0.0,0.0,0.0,0.0,0.0,0.0,0.0,0.0,0.0,0.0,0.0,0.0,0.0,0.0,5.5897,5.6821,5.6774,5.6812,5.6812,5.6849,5.7187,5.7967,5.8042,5.8042,5.8117,0.0,0.0,0.0,0.0,0.0,0.0,0.0,0.0,0.0,0.0,0.0,0.0,0.0,0.0,0.0,0.0,0.0,0.0,0.0,0.0,0.0,0.0,0.0,0.0,0.0,0.0,5.3822,5.5233,5.6162,0.0,0.0,0.0,0.0,0.0,0.0,0.0,0.0,0.0,0.0,5.5733,5.5653,5.5533,5.5559,5.5596,5.5585,5.5622,5.5622,5.5585,5.5585,5.5585,0.0,0.0,0.0,0.0,0.0,0.0,0.0,0.0,0.0,0.0,0.0,0.0,0.0,0.0,0.0,0.0,0.0,0.0,0.0,0.0,0.0,0.0,0.0,0.0,0.0,0.0,0.0,5.0713,5.2165,0.0,0.0,0.0,0.0,0.0,0.0,0.0,0.0,0.0,0.0,0.0,5.5694,5.5931,0.0,0.0,0.0,0.0,0.0,0.0,0.0,0.0,0.0,0.0,0.0,0.0,5.6598,5.6887,5.6887,5.6887,5.6887,5.6887,5.73,5.808,5.8117,5.8643,5.9731,0.0,0.0,0.0,0.0,0.0,0.0,0.0,0.0,0.0,0.0,0.0,0.0,0.0,0.0,0.0,0.0,0.0,0.0,0.0,0.0,0.0,0.0,0.0,0.0,0.0,5.5466,0.0,0.0,0.0,0.0,0.0,0.0,0.0,0.0,0.0,0.0,0.0,5.5845,5.5975,5.5992,5.595,5.5834,5.6292,5.6628,0.0,0.0,0.0,0.0,0.0,0.0,0.0,0.0,0.0,0.0,0.0,0.0,0.0,0.0,5.4006,5.3969,5.4226,5.441,5.441,0.0,0.0,0.0,0.0,0.0,0.0,0.0,0.0,0.0,0.0,0.0,0.0,0.0,0.0,0.0,0.0,5.4568,0.0,0.0,0.0,0.0,0.0,0.0,0.0,0.0,5.7488,5.7563,5.7338,5.7938,5.8201,0.0,5.8473,5.8051,0.0,0.0,0.0,0.0,0.0,0.0,0.0,0.0,5.76,5.8126,5.7901,5.7863,5.8164,5.791,5.7976,5.8492,5.883,5.9469,6.0557,6.0342,6.0041,0.0,0.0,0.0,0.0,0.0,0.0,0.0,0.0,0.0,0.0,0.0,0.0,0.0,0.0,0.0,0.0,0.0,0.0,0.0,0.0,0.0,0.0,0.0,5.6881,0.0,0.0,0.0,0.0,0.0,0.0,0.0,0.0,0.0,5.6803,5.6979,5.7208,5.7375,5.7402,5.7434,5.7576,0.0,0.0,0.0,0.0,0.0,0.0,0.0,5.8148,5.815,5.8102,5.8006,5.7666,5.7446,5.7164,5.6895,0.0,0.0,5.5805,5.5622,5.5622,5.5622,5.6025,5.6429,5.6429,5.6907,5.7262,0.0,0.0,0.0,0.0,0.0,0.0,0.0,0.0,5.53,5.5681,0.0,5.6624,0.0,0.0,0.0,0.0,0.0,0.0,0.0,0.0,5.8689,5.8952,5.838,5.9844,6.0595,6.067,6.1355,6.1703,6.159,5.9403,0.0,0.0,0.0,0.0,0.0,0.0,5.9018,6.052,5.9778,5.9778,6.052,5.9816,5.9365,5.9365,6.0182,6.0595,6.0632,6.1355,6.143,6.067,5.9816,0.0,0.0,0.0,0.0,0.0,0.0,0.0,0.0,0.0,0.0,0.0,0.0,0.0,0.0,0.0,0.0,0.0,0.0,0.0,0.0,5.7213,0.0,0.0,0.0,0.0,0.0,0.0,0.0,0.0,0.0,0.0,5.8019,5.8353,5.9027,5.9736,0.0,0.0,0.0,0.0,5.9967,6.0706,6.0842,6.0879,6.0879,6.0868,6.0796,6.0692,0.0,0.0,5.9488,5.9942,6.0126,5.9416,5.9795,5.9428,5.6393,5.5952,5.5915,5.5915,5.7079,5.7997,5.818,5.9134,6.0126,5.7501,0.0,0.0,0.0,0.0,5.6015,5.6725,5.8634,5.8269,5.854,5.9168,5.8764,0.0,0.0,0.0,0.0,0.0,0.0,6.0079,6.0417,6.0867,6.0942,6.0755,6.1243,6.1468,6.1468,6.1703,6.1844,6.1949,6.176,6.1243,6.0426,0.0,0.0,0.0,0.0,6.0989,6.143,6.1215,6.1205,6.1478,6.1205,6.0792,6.0219,6.1055,6.1168,6.0642,6.1355,6.1703,6.1468,6.1205,0.0,0.0,0.0,0.0,0.0,0.0,0.0,0.0,0.0,0.0,0.0,0.0,0.0,0.0,0.0,0.0,0.0,0.0,0.0,5.8777,5.9101,5.9584,0.0,0.0,0.0,0.0,0.0,0.0,0.0,0.0,0.0,6.1065,6.0693,6.0534,0.0,0.0,6.0862,6.1063,6.1385,6.1649,6.1792,0.0,0.0,0.0,6.259,6.2578,6.2543,6.2411,6.2253,6.214,6.1654,6.1226,6.1065,6.0675,6.0052,5.9318,5.9024,5.9024,5.9061,5.9428,5.9722,5.9758,6.0126,6.0407,6.1624,6.0253,5.8884,5.8809,5.9521,5.8548,5.9214,6.0941,6.0463,6.0557,6.1055,6.0529,6.0004,5.9591,5.9591,0.0,0.0,0.0,6.1318,6.1816,6.1816,6.1956,6.2341,6.2632,6.297,6.327,6.3618,6.3836,6.3923,6.4352,6.4294,6.3769,0.0,0.0,6.1816,6.1816,6.2154,6.2717,6.2116,6.2116,6.2755,6.2154,6.1581,6.113,6.1881,6.2069,6.1618,6.2069,6.2294,6.2294,6.1656,6.1017,0.0,0.0,0.0,0.0,0.0,0.0,0.0,0.0,0.0,0.0,0.0,5.7687,5.8051,0.0,0.0,0.0,5.8965,5.9607,6.0543,6.0607,0.0,0.0,0.0,0.0,0.0,0.0,0.0,6.3193,6.3553,6.385,6.3862,6.3442,6.3007,6.2662,6.2636,6.2736,6.307,0.0,6.3456,6.3685,6.4156,6.4441,6.4407,6.4396,6.4372,6.4265,6.4095,6.3886,6.3701,6.3321,6.3014,6.2818,6.2537,6.2316,6.2316,6.2352,6.1851,6.0676,6.0676,6.086,6.0896,6.1117,6.1361,6.5185,6.4199,6.1057,6.0139,6.0714,6.0714,6.1213,6.1994,6.2003,6.1956,6.1919,6.1919,6.1928,6.2003,6.2003,0.0,6.2116,6.2191,6.2191,6.2106,6.2154,6.2595,6.3421,6.4134,6.4895,6.5598,6.6435,6.6821,6.6756,6.6783,6.6821,6.6756,6.452,6.3008,6.2219,6.2229,6.2942,6.4369,6.2905,6.283,6.4219,6.2792,6.1966,6.1928,6.2707,6.3083,6.3008,6.3045,6.312,6.3045,6.1693,6.1205,6.1853,0.0,0.0,0.0,0.0,0.0,0.0,0.0,0.0,0.0,0.0,0.0,0.0,0.0,0.0,0.0,6.1796,0.0,6.1959,6.1996,0.0,0.0,0.0,6.422,6.4839,6.5671,6.6153,6.6116,0.0,0.0,6.6202,0.0,6.5931,6.5188,6.5002,6.5188,6.5979,6.5411,6.5299,6.5968,6.6228,6.6265,6.629,6.6253,6.6182,6.5989,6.5804,6.547,6.4893,6.4963,6.5109,6.4586,6.4914,6.5215,6.5251,6.5068,6.4383,6.1447,6.1484,6.1924,6.2047,6.2548,6.3013,6.636,6.6134,6.5305,6.4356,6.3401,6.3363,6.3486,6.3693,6.3731,6.3345,6.2782,6.2782,6.313,6.3731,6.3693,6.4031,6.466,6.5308,6.5271,6.4697,6.5308,6.5721,6.5909,6.6097,6.6285,6.651,6.6698,6.6852,6.6876,6.6852,6.6814,6.6839,6.6213,6.5796,6.5609,6.5609,6.5448,6.5223,6.481,6.451,6.4294,6.3919,6.3383,6.282,6.3008,6.2782,6.2144,6.2745,6.312,6.312,6.3308,6.3243,6.282,6.2595,0.0,0.0,0.0,0.0,0.0,0.0,0.0,0.0,0.0,6.1213,6.1438,0.0,6.2751,0.0,6.3235,6.3763,6.4316,6.4342,0.0,0.0,6.5587,6.5706,6.5846,6.6546,6.6797,6.6153,6.6636,6.7008,6.7008,6.7008,6.7156,6.7528,6.6562,6.5856,6.6079,6.6488,6.6785,6.7008,6.7528,6.7936,6.7936,6.7936,6.7912,6.7864,6.7629,6.7442,6.7345,6.671,6.6198,6.6057,6.5612,6.5375,6.5398,6.5325,6.5141,6.4297,6.431,6.442,6.4407,6.4554,6.4701,6.7111,6.681,6.681,6.6247,6.5383,6.5421,6.5421,6.5421,6.5421,6.5158,6.4745,6.4735,6.5008,6.5421,6.5421,6.5646,6.6087,6.6585,6.6548,6.6087,6.6585,6.6998,6.7336,6.7336,6.7513,6.7851,6.7889,6.7915,6.8008,6.7967,6.7967,6.8019,6.7967,6.7946,6.7946,6.718,6.6735,6.6612,6.6612,6.6288,6.5562,6.5472,6.5216,6.4815,6.4389,6.3946,6.3458,6.3233,6.312,6.312,6.3158,6.3168,6.312,6.3458,6.3571,0.0,0.0,0.0,0.0,0.0,0.0,0.0,0.0,0.0,0.0,0.0,6.4745,6.4735,6.5397,6.587,6.5919,6.5865,6.617,6.6944,6.6863,6.6898,6.727,6.7648,6.7676,6.7231,6.7565,6.7825,6.7825,6.7825,6.8122,6.8902,6.8271,6.7565,6.7268,6.7565,6.7936,6.8308,6.8753,6.9199,6.9496,6.9571,6.9546,6.9496,6.9346,6.9282,6.9321,6.8718,6.8238,6.832,6.7857,6.743,6.743,6.7086,6.6903,6.6866,6.6609,6.6132,6.5472,6.5325,6.5325,6.777,6.7132,6.7142,6.7142,6.7142,6.7121,6.6998,6.681,6.681,6.681,6.681,6.681,6.6848,6.6961,6.6961,6.6961,6.6961,6.7036,6.7036,6.6961,6.7073,6.7486,6.8152,6.8152,6.8517,6.9192,6.9192,6.9284,6.9353,6.9363,6.9438,6.9551,6.9438,6.9438,6.9476,6.7915,6.7411,6.7964,6.7889,6.758,6.7095,6.6876,6.6825,6.6831,6.61,6.5674,6.5636,6.4322,6.3571,6.3571,6.2857,6.2782,6.3533,6.4219,6.4923,0.0,6.6397,0.0,0.0,0.0,0.0,0.0,0.0,0.0,0.0,6.7148,6.7261,6.7261,6.7926,6.7975,6.7186,6.7016,6.724,6.8005,6.7878,6.8076,6.8872,6.8876,6.8828,6.8828,6.8902,6.8976,6.9013,6.9051,6.9422,7.0128,7.0239,6.9979,6.9311,6.9013,6.9088,6.9794,6.9855,7.0054,7.0611,7.0821,7.0796,7.0707,7.0594,7.073,7.0765,7.0592,7.0431,7.0498,7.0372,7.0307,7.0293,6.9633,6.9229,6.9142,6.8421,6.7357,6.6109,6.5729,6.5595,6.9052,6.8901,6.8901,6.8901,6.8891,6.8785,6.8002,6.681,6.681,6.681,6.681,6.681,6.7186,6.7739,6.7776,6.7776,6.7814,6.8441,6.8366,6.7814,6.8452,6.8817,6.8967,6.8967,6.9042,6.9192,6.9192,6.9203,6.9225,6.9225,6.9611,7.0261,6.9574,6.9574,7.0212,0.0,0.0,0.0,6.7374,6.6982,6.6835,6.6804,6.6821,6.6804,6.6643,0.0,6.6548,6.6285,6.6097,6.6097,6.5947,0.0,0.0,0.0,0.0,0.0,0.0,0.0,0.0,0.0,0.0,0.0,6.8865,6.9053,6.7926,6.9015,6.9804,6.9804,6.9917,6.9691,6.8854,6.872,6.9003,6.9728,6.9703,6.9873,7.0548,7.0537,7.0462,7.0462,7.1032,7.149,7.1453,7.2048,7.2494,7.2568,7.2679,7.2642,7.2456,7.1255,7.0536,7.0648,7.0834,7.0784,7.0858,7.1007,7.1192,7.0857,7.0744,7.0987,7.1498,7.1461,7.1282,7.1264,7.1643,7.1835,7.1233,7.094,7.0793,7.083,6.9706,6.8385,6.7467,6.7247,6.7223,7.0573,0.0,7.0562,7.053,0.0,7.0658,7.0221,6.943,6.8424,6.8002,6.7964,6.8002,6.8227,6.8592,6.8592,6.8828,6.9241,6.9654,6.9842,6.9831,7.0244,7.0431,7.0431,7.0431,7.0431,7.0431,7.0431,7.0464,7.0556,7.0546,7.0744,7.1158,7.0744,7.0744,7.1158,7.0744,6.9917,6.8688,6.8221,6.8065,6.8169,6.8065,6.7996,6.8059,0.0,0.0,0.0,0.0,0.0,0.0,0.0,0.0,0.0,0.0,0.0,6.7411,6.7776,6.8002,6.8002,6.8753,6.9203,6.9241,7.0743,7.1156,6.9917,7.0968,7.1531,7.1156,7.1456,7.1343,7.0544,7.0762,7.1141,7.1542,7.1792,7.2084,7.2446,7.2422,7.2323,7.2248,7.262,7.2868,7.2804,7.3138,7.3571,7.3943,7.398,7.4166,7.4351,7.3187,7.2258,7.2666,7.3099,7.3322,7.3335,7.3285,7.3259,7.3231,7.3164,7.3259,7.3548,7.3522,7.3397,7.3349,7.3609,7.3662,7.3156,7.2481,7.1894,7.1747,7.061,6.9449,6.8898,6.8288,6.77,7.1808,7.1896,7.1786,7.1741,7.1764,7.2008,7.2199,7.2216,0.0,0.0,0.0,6.9665,6.9643,6.9643,6.9643,7.0018,7.0705,7.0705,7.1043,7.167,7.167,7.167,7.167,7.167,7.167,7.167,7.167,7.1753,7.1852,7.1852,7.1965,7.204,7.1927,7.189,7.1852,7.1852,7.1175,6.9869,6.9697,6.974,6.9968,6.9751,6.9686,6.9804,6.9069,6.8677,6.864,6.8039,6.7674,6.7674,6.7674,6.7674,6.7674,6.8302,6.864,6.8677,6.9267,6.9643,6.9643,7.0292,7.0791,7.093,7.2132,7.262,7.1933,7.2808,7.2996,7.2233,7.2883,7.3033,7.2233,7.2653,7.3105,7.3288,7.3736,7.4088,7.4286,7.425,7.4063,7.4012,7.3974,7.4022,7.4104,7.4166,7.4351,7.5095,7.5392,7.5466,7.5875,7.4872,7.4004,7.4521,7.4991,7.5585,7.5683,7.5548,7.5655,7.5074,7.5148,7.5407,7.5486,7.5425,7.5414,7.5314,7.5514,7.5397,7.5095,7.3913,7.2995,7.2899,7.1541,7.033,7.0183,6.9169,6.8251,7.1912,7.1922,7.1863,7.1852,7.189,7.1808,7.2173,7.2721,7.2067,7.1804,7.1745,7.1476,7.137,7.137,7.1332,7.1407,7.152,7.152,7.1595,0.0,7.167,7.167,7.167,7.167,7.167,7.167,7.1708,7.1719,7.173,7.173,7.2079,7.2605,7.2079,7.1779,7.173,7.173,7.1618,7.1366,7.1343,7.1355,7.1414,7.1392,7.1343,7.1355,7.1231,7.1182,7.1182,7.1043,7.0994,7.0994,7.1032,7.0994,7.1006,7.107,7.1182,7.1182,7.1295,7.1332,7.1332,7.1482,7.182,7.247,7.277,7.2845,7.2808,7.416,7.4723,7.396,7.4573,7.4723,7.396,7.3986,7.4303,7.4794,7.4873,7.5084,7.568,7.5638,7.5559,7.5533,7.5493,7.5804,7.6348,7.6483,7.6692,7.7473,7.7398,7.7733,7.751,7.6507,7.5561,7.5453,7.556,7.5579,7.5694,7.5602,7.5491,7.4501,7.4695,7.5051,7.5357,7.541,7.5573,7.5941,7.6462,7.66,7.6056,7.5197,7.4573,7.4353,7.2738,7.127,7.1233,7.0403,6.9743,7.3587,7.3902,7.4012,7.4342,7.4752,7.5039,7.5466,7.5874,7.5551,7.4596,7.3317,7.3101,7.2796,7.2432,7.2834,7.2796,7.2395,7.3296,7.3446,7.3097,7.3484,7.3484,7.3097,7.3059,7.3071,7.3059,7.3059,7.3071,7.3059,7.3059,7.3247,7.3596,7.3703,7.4072,7.4515,7.4139,7.3913,7.3902,7.2451,7.167,7.167,7.167,7.167,7.167,7.167,7.1741,7.1819,7.1819,7.1819,7.1819,7.1819,7.1786,7.1708,7.167,7.167,7.167,7.167,7.167,7.167,7.2571,7.3397,7.416,7.4685,7.4723,7.4272,7.496,7.5436,7.5511,7.5887,7.5962,7.5612,7.589,7.6242,7.653,7.6792,7.7138,7.7384,7.7472,7.7446,7.7417,7.7367,7.7489,7.7818,7.7788,7.7844,7.8253,7.829,7.8327,7.8327,7.8067,7.7566,7.7056,7.6903,7.6832,7.6741,7.6756,7.6556,7.608,7.6072,7.622,7.6457,7.6442,7.656,7.6831,7.7242,7.7234,7.6769,7.6093,7.5652,7.5359,7.4037,7.2789,7.2496,7.1945,7.1138,7.5582,7.6073,7.6209,7.6661,7.7282,7.797,7.8399,7.8596,7.8509,7.7425,7.5645,7.5163,7.456,7.4044,7.4485,7.4421,7.4157,7.5088,7.54,7.505,7.5626,7.5551,7.5012,7.4986,7.4975,7.4986,7.4975,7.4986,7.4975,7.4986,7.493,7.496,7.5671,7.6342,7.6904,7.6379,7.6078,7.5864,7.3876,7.268,7.235,7.25,7.2613,7.2579,7.2579,7.2624,7.2691,7.2691,7.2615,7.2427,7.2578,7.2646,7.2545,7.2346,7.2346,7.247,7.2346,7.2346,7.2609,7.3897,7.5023,7.5624,7.6262,7.645,7.6037,7.5974,7.6112,7.66,7.7013,7.7314,7.7577,7.7991,7.8366,7.8579,7.8801,7.8947,7.8985,7.8925,7.8825,7.8708,7.8546,7.8357,7.8488,7.8306,7.8163,7.8285,7.8318,7.8364,7.8587,7.9145,7.9112,7.885,7.857,7.8483,7.8338,7.8323,7.8205,7.7982,7.7805,7.7746,7.7768,7.7701,7.7671,7.7677,7.7582,7.7448,7.7268,7.6628,7.613,7.5909,7.4808,7.3964,7.3891,7.3487,7.2532,7.7339,7.7415,7.7415,7.7473,7.7711,7.8513,7.8876,7.9009,7.9618,7.9824,7.9239,7.7956,7.7234,7.7091,7.6492,7.651,7.6948,7.6577,7.6672,7.7176,7.7358,7.7358,7.7166,7.7224,7.7282,7.7224,7.7176,7.707,7.7108,7.7166,7.7083,7.6917,7.7217,7.7175,7.6777,7.6919,7.6844,7.6523,7.6262,7.553,7.4352,7.5015,7.5374,7.5261,7.5234,7.5189,7.4995,7.5084,7.4746,7.4134,7.4671,7.5047,7.4948,7.4385,7.431,7.4911,7.4385,7.4272,7.5023,7.5887,7.6476,7.6476,7.6751,7.7089,7.7589,7.7664,7.7351,7.7089,7.8027,7.9041,7.9917,8.0005,8.0205,8.063,8.0227,7.9988,7.9775,7.9198,7.8708,7.8695,7.8273,7.7873,7.8557,7.8181,7.7955,7.8641,7.842,7.855,7.9145,7.9465,7.9757,8.0073,8.0214,8.0082,7.9783,7.9887,7.9451,7.8814,7.8688,7.8703,7.8578,7.8082,7.754,7.8183,7.7886,7.7503,7.7157,7.668,7.6203,7.6203,7.5542,7.4793,7.4793,7.461,7.3839,7.8055,7.8369,7.8541,7.8912,7.9436,7.9981,8.0204,8.0242,8.054,8.0685,8.0617,7.9974,7.9185,7.8398,7.8492,7.8264,7.7664,7.8302,7.8188,7.7712,7.8131,7.8083,7.7636,7.7598,7.7598,7.7598,7.7598,7.7598,7.7598,7.7598,7.7787,7.8194,7.8351,7.8568,7.8832,7.8537,7.826,7.8138,7.7673,7.7154,7.6642,7.6408,7.6279,7.6221,7.6183,7.6207,7.623,7.623,7.608,7.5767,7.603,7.6195,7.6187,7.5849,7.5812,7.6112,7.63,7.6525,7.6863,7.8077,7.8853,7.8866,7.9304,7.9379,7.8703,7.9091,7.8866,7.7802,7.844,7.9454,8.0243,8.0292,8.0354,8.0603,8.0262,7.9847,7.931,7.9461,7.9512,7.9499,7.9237,7.9099,7.9194,7.8562,7.8566,7.9303,7.9024,7.8625,7.9354,7.9874,8.0305,8.0642,8.1311,8.1266,8.0401,7.9946,7.9814,7.9609,7.9498,7.9529,7.9605,7.933,7.8928,7.8802,7.8305,7.7818,7.7362,7.7142,7.6775,7.6628,7.6166,7.5491,7.5014,7.4903,7.45,7.9292,7.9798,7.9807,8.0153,8.0745,8.0975,8.1093,8.1093,8.1093,8.1093,8.1093,8.1093,8.0515,7.9627,7.9886,7.9428,7.8788,7.9581,7.9543,7.8673,7.9217,7.9179,7.8606,7.8568,7.8568,7.8568,7.8615,7.8577,7.8568,7.8568,7.8864,7.9361,7.9511,7.9837,8.0287,8.0,7.9751,7.9438,7.9056,7.8951,7.8819,7.8063,7.7492,7.7289,7.7194,7.7209,7.7232,7.72,7.7041,7.6768,7.6968,7.7071,7.7025,7.6826,7.6751,7.7013,7.7727,7.834,7.8565,7.9917,8.0743,8.0743,8.1119,8.0768,7.983,7.9842,7.9617,7.8866,7.9129,7.983,8.0543,8.0792,8.0928,8.1102,8.0786,8.0135,7.9699,8.0014,8.0066,7.9903,8.0141,8.0464,8.0194,7.9444,7.9154,7.9935,7.9173,7.8587,7.9316,7.9999,8.0468,8.0988,8.1934,8.1962,8.0948,8.0756,8.0598,8.0598,8.0698,8.075,8.081,8.0644,8.0256,7.9832,7.9165,7.8494,7.7928,7.7656,7.7289,7.7179,7.6775,7.6225,7.5894,7.5637,7.5601,8.1415,8.1976,8.1338,8.11,8.1115,8.1162,8.1131,8.1285,8.117,8.1131,8.117,8.1208,8.1077,8.0876,8.0275,8.0238,8.0699,8.0168,8.0245,8.0667,8.0876,8.0938,8.0946,8.0946,8.0853,8.0613,8.0605,8.0698,8.076,8.0845,8.0778,8.0555,8.08,8.069,8.0516,8.125,8.1136,8.041,8.0848,8.1228,8.1103,8.0395,7.9634,7.9094,7.8697,7.8479,7.8321,7.8134,7.7657,7.6699,7.7475,7.7876,7.7789,7.7089,7.7051,7.7864,7.864,7.9417,8.0243,8.1031,8.1519,8.1444,8.0956,8.0443,8.0255,7.9792,7.9679,8.0143,8.0293,8.0731,8.1444,8.2019,8.2719,8.3333,8.232,8.1556,8.1368,8.0805,8.0042,7.9755,8.0655,8.129,8.1273,8.0349,7.9874,7.9818,7.9042,7.8736,7.9553,7.9739,8.0408,8.1368,8.1897,8.197,8.2379,8.1992,8.2023,8.195,8.1718,8.2017,8.2023,8.185,8.1345,8.0693,7.9717,7.9008,7.8516,7.8038,7.7546,7.7326,7.7289,7.6885,7.6628,7.7032,7.6959,8.287,8.3101,8.2824,8.2708,8.2716,8.2708,8.2716,8.2716,8.2708,8.2362,8.2016,8.2439,8.2131,8.1131,8.1323,8.1285,8.1093,8.0746,8.0785,8.1093,8.1093,8.1093,8.1093,8.1093,8.1093,8.1093,8.1093,8.1093,8.1093,8.1093,8.1322,8.1681,8.1776,8.1988,8.2361,8.2758,8.2711,8.2403,8.2662,8.2777,8.276,8.2509,8.222,8.1883,8.0402,7.9429,7.9176,7.9075,7.8893,7.8496,7.8847,7.8998,7.8937,7.8499,7.8675,7.9618,7.9865,8.0505,8.167,8.1707,8.1857,8.2257,8.1632,8.0956,8.0556,8.0556,8.0618,8.0631,8.1444,8.2083,8.2295,8.2633,8.2933,8.3083,8.2745,8.2145,8.1807,8.1769,8.1781,8.149,8.1808,8.1921,8.1744,8.0991,8.0791,8.1595,8.0734,8.0311,8.0817,8.1077,8.1277,8.1828,8.2282,8.2571,8.2732,8.2544,8.237,8.2355,8.2339,8.2365,8.2355,8.2239,8.1807,8.124,8.0299,7.9706,7.9323,7.8699,7.8112,7.7582,7.7546,7.7656,7.7289,7.7472,7.7436,8.387,8.3601,8.3601,8.3601,8.3601,8.3601,8.3601,8.3601,8.3601,8.3255,8.2901,8.3332,8.2947,8.2131,8.2477,8.2439,8.1862,8.1362,8.1093,8.1131,8.1362,8.1477,8.1554,8.1785,8.19,8.19,8.19,8.19,8.19,8.19,8.217,8.267,8.2708,8.2986,8.3563,8.387,8.3939,8.3717,8.387,8.4016,8.3978,8.3747,8.3755,8.3706,8.2199,8.1088,8.0773,8.065,8.0586,8.0553,8.0315,8.0049,7.9789,7.9436,7.9892,8.1086,8.0806,8.1443,8.3086,8.2771,8.2657,8.3412,8.282,8.2066,8.1613,8.1693,8.1582,8.1633,8.2096,8.2858,8.3158,8.3234,8.3309,8.3421,8.3158,8.2745,8.2458,8.2633,8.2857,8.2914,8.2553,8.2491,8.2533,8.1802,8.1843,8.2842,8.1703,8.1219,8.1591,8.174,8.1861,8.2026,8.2282,8.2735,8.3037,8.297,8.2508,8.2423,8.2327,8.246,8.2508,8.2391,8.2212,8.1681,8.1155,8.0619,8.0021,7.9412,7.8772,7.817,7.8259,7.8516,7.8185,7.7803,7.7766,8.4439,8.3793,8.364,8.3793,8.3832,8.387,8.3717,8.3793,8.3755,8.3793,8.364,8.3717,8.3717,8.3486,8.3524,8.3563,8.3139,8.1977,8.1362,8.14,8.2016,8.2324,8.2362,8.3024,8.3332,8.337,8.3486,8.3486,8.337,8.3332,8.3447,8.3563,8.3601,8.3708,8.3678,8.4516,8.4516,8.414,8.4555,8.4893,8.4816,8.4209,8.417,8.4747,8.3976,8.3389,8.3073,8.2798,8.2487,8.2378,8.1776,8.1015,8.0423,8.0006,8.0569,8.2059,8.1512,8.2308,8.4448,8.4079,8.3769,8.4426,8.4149,8.3465,8.309,8.2597,8.2373,8.2795,8.295,8.3158,8.3847,8.396,8.426,8.4923,8.3834,8.3271,8.3697,8.3309,8.3121,8.3645,8.3198,8.3022,8.3332,8.2896,8.2524,8.2426,8.1978,8.1493,8.1703,8.174,8.1689,8.2063,8.2427,8.2831,8.3135,8.3374,8.2871,8.2455,8.2364,8.2332,8.2364,8.2295,8.2279,8.1912,8.1622,8.1101,8.0424,7.9874,7.9706,7.9286,7.9449,7.9265,7.8919,7.8516,7.8259,8.5555,8.5324,8.5324,8.5324,8.5324,8.5324,8.5324,8.5324,8.5324,8.5016,8.467,8.5093,8.4709,8.3947,8.417,8.417,8.3563,8.3024,8.2832,8.287,8.3101,8.3216,8.3255,8.3486,8.3601,8.3601,8.3601,8.3601,8.364,8.364,8.3862,8.4362,8.4516,8.4786,8.5247,8.5593,8.5555,8.5401,8.5593,8.5747,8.5709,8.544,8.5478,8.5624,8.5478,8.5283,8.5121,8.3788,8.3027,8.299,8.2712,8.2539,8.2382,8.1965,8.2357,8.3408,8.2672,8.2868,8.4513,8.3842,8.3434,8.3957,8.3538,8.2944,8.2785,8.2888,8.2916,8.31,8.3387,8.3847,8.4035,8.411,8.4486,8.5186,8.4373,8.396,8.451,8.4031,8.3664,8.3763,8.3529,8.3447,8.3559,8.3279,8.3181,8.3167,8.2906,8.2794,8.2794,8.2695,8.2878,8.3144,8.3092,8.3089,8.3626,8.3891,8.3528,8.3024,8.2681,8.2341,8.2304,8.2267,8.2251,8.2178,8.1888,8.1542,8.0865,8.0571,8.0424,8.0147,7.989,7.9706,7.9522,7.9302,7.9066,8.6094,8.6094,8.6094,8.6094,8.6094,8.6094,8.6286,8.6517,8.6209,8.617,8.6286,8.6132,8.5747,8.5132,8.5286,8.5055,8.4555,8.4516,8.4516,8.4439,8.417,8.4093,8.4132,8.4439,8.4516,8.4516,8.4516,8.4516,8.4516,8.4555,8.4824,8.5277,8.5354,8.5547,8.6055,8.6094,8.6094,8.6094,8.6094,8.6094,8.6094,8.6094,8.6094,8.6094,8.6094,8.6094,8.6,8.4856,8.4202,8.4164,8.3925,8.3743,8.3591,8.3082,8.3314,8.4029,8.3601,8.3571,8.5034,8.4337,8.3812,8.4414,8.4194,8.379,8.3578,8.3872,8.3776,8.3665,8.3826,8.411,8.411,8.411,8.4486,8.5223,8.4561,8.4373,8.4698,8.4331,8.3953,8.3902,8.3798,8.3805,8.3805,8.3791,8.3754,8.3791,8.3791,8.3767,8.3767,8.373,8.3852,8.3942,8.396,8.4098,8.4367,8.4347,8.4201,8.3682,8.3177,8.2675,8.2398,8.2272,8.2219,8.2219,8.2003,8.1982,8.1452,8.1452,8.1358,8.0918,8.0514,8.0587,8.055,8.0277,8.0021,8.6209,8.6247,8.617,8.6247,8.6247,8.6247,8.6671,8.7171,8.6709,8.7171,8.7979,8.6901,8.6594,8.6978,8.6324,8.5901,8.6055,8.5901,8.5824,8.567,8.5277,8.4978,8.5055,8.5517,8.5747,8.5863,8.5901,8.594,8.5786,8.5824,8.6094,8.5978,8.5978,8.6094,8.6094,8.6094,8.6094,8.6094,8.6094,8.6094,8.6094,8.6094,8.6094,8.6094,8.6094,8.6094,8.6047,8.5868,8.5915,8.5931,8.5214,8.4599,8.3937,8.3435,8.3954,8.492,8.3886,8.4403,8.5471,8.5309,8.5134,8.5732,8.5719,8.5911,8.5245,8.4849,8.4643,8.4353,8.4179,8.411,8.411,8.411,8.4448,8.4974,8.4636,8.4335,8.4148,8.411,8.4084,8.4097,8.411,8.411,8.4033,8.4071,8.4071,8.4071,8.4071,8.4057,8.4207,8.428,8.4468,8.4506,8.4433,8.423,8.421,8.4927,8.4707,8.4108,8.373,8.3413,8.2614,8.2309,8.2186,8.2186,8.2186,8.215,8.2113,8.1966,8.1966,8.1709,8.1562,8.1672,8.1489,8.1158,8.0938,8.744,8.7948,8.7325,8.7055,8.7055,8.7055,8.7171,8.7478,8.7872,8.8141,8.8449,8.7555,8.7171,8.7286,8.6517,8.6094,8.6094,8.6094,8.6094,8.6055,8.5901,8.5786,8.5786,8.5978,8.6094,8.6094,8.6094,8.6094,8.6094,8.6094,8.6094,8.6094,8.6094,8.6094,8.6094,8.6094,8.6094,8.6094,8.6094,8.6094,8.6094,8.6094,8.6094,8.6094,8.6132,8.6132,8.6094,8.6094,8.6094,8.6094,8.5931,8.5709,8.5354,8.5249,8.5318,8.5514,8.5497,8.5424,8.5876,8.5901,8.5901,8.603,8.5902,8.5581,8.5235,8.493,8.4599,8.4318,8.415,8.411,8.411,8.411,8.426,8.4411,8.4673,8.4711,8.4223,8.411,8.411,8.411,8.4148,8.4223,8.426,8.426,8.426,8.426,8.4298,8.4373,8.4636,8.4636,8.4746,8.4598,8.448,8.4077,8.4121,8.4964,8.5132,8.4534,8.4326,8.4394,8.3316,8.2341,8.2219,8.2186,8.2186,8.2186,8.2186,8.2113,8.2186,8.2186,8.2113,8.1929,8.2003,8.1819,8.1782,8.7902,8.8603,8.7748,8.7401,8.7363,8.7017,8.7248,8.7863,8.8064,8.8825,8.921,8.8017,8.7632,8.7795,8.6671,8.6094,8.6094,8.6094,8.6094,8.6094,8.6055,8.6055,8.6094,8.6094,8.6094,8.6094,8.6094,8.6094,8.6094,8.6094,8.6094,8.6094,8.6094,8.6094,8.6094,8.6094,8.6094,8.6094,8.6094,8.6094,8.6094,8.6094,8.6094,8.6209,8.6401,8.6632,8.6632,8.6324,8.6094,8.6094,8.6094,8.6094,8.6094,8.6094,8.6094,8.6094,8.6094,8.6085,8.6094,8.6094,8.6094,8.6069,8.5884,8.5571,8.5183,8.4897,8.4659,8.419,8.4136,8.411,8.411,8.411,8.411,8.4223,8.4824,8.4974,8.4185,8.4448,8.4598,8.4673,8.4861,8.5086,8.5086,8.5086,8.5086,8.5162,8.5274,8.5237,8.5223,8.5086,8.5022,8.5037,8.4975,8.4746,8.4715,8.541,8.5468,8.487,8.4468,8.47,8.377,8.2504,8.2272,8.2186,8.2186,8.2186,8.2186,8.2186,8.2186,8.2186,8.2186,8.2186,8.2186,8.2186,8.2186,8.7979,8.8641,8.794,8.7555,8.7325,8.6709,8.7363,8.8372,8.8132,8.9094,9.0248,8.8671,8.8209,8.8603,8.7055,8.6247,8.6094,8.6094,8.6094,8.6094,8.6094,8.6094,8.6094,8.6094,8.6094,8.6094,8.6094,8.6094,8.6094,8.6094,8.6094,8.6094,8.6094,8.6094,8.6094,8.6094,8.6094,8.6094,8.6094,8.6094,8.6094,8.6094,8.6094,8.6201,8.6901,8.7094,8.6978,8.6632,8.6247,8.6094,8.6094,8.6094,8.6094,8.6094,8.6094,8.6094,8.6094,8.6094,8.6094,8.6094,8.6094,8.6077,8.6052,8.5822,8.5304,8.5062,8.4714,8.428,8.4112,8.4185,8.4373,8.4335,8.4561,8.4711,8.5162,8.4998,8.4711,8.5011,8.5411,8.5449,8.61,8.6401,8.6476,8.6513,8.6438,8.5837,8.5988,8.6025,8.5988,8.595,8.5886,8.5855,8.5741,8.5587,8.5668,8.5894,8.5618,8.5191,8.4647,8.4405,8.3737,8.2819,8.2402,8.2186,8.2186,8.2186,8.2186,8.2186,8.2186,8.2186,8.2186,8.2186,8.2186,8.2186,8.2186,8.8526,8.8756,8.921,8.8594,8.7594,8.791,8.8333,8.8679,8.9171,8.9932,9.0671,8.9816,8.9094,8.8641,8.7594,8.6786,8.6209,8.6132,8.6094,8.6094,8.6094,8.6094,8.6094,8.6094,8.6094,8.6094,8.6094,8.6094,8.6094,8.6094,8.6094,8.6094,8.6094,8.6094,8.6124,8.6209,8.6094,8.6094,8.6162,8.6247,8.6286,8.6286,8.6286,8.6401,8.7055,8.7055,8.6671,8.6863,8.6786,8.6286,8.6132,8.6209,8.6132,8.6094,8.6094,8.6094,8.6094,8.6094,8.6094,8.6094,8.6094,8.6077,8.5893,8.5676,8.5513,8.5084,8.4767,8.4455,8.428,8.4499,8.4974,8.565,8.5762,8.5837,8.6063,8.6175,8.6063,8.6138,8.6251,8.6288,8.6438,8.6513,8.6551,8.6701,8.6664,8.6551,8.6664,8.6776,8.6776,8.6814,8.6636,8.652,8.6246,8.6032,8.5969,8.6221,8.6236,8.5757,8.5175,8.4484,8.3778,8.2876,8.2349,8.2186,8.2186,8.2186,8.2186,8.2186,8.2186,8.2186,8.2186,8.2186,8.2186,8.2186,8.2186,8.8333,8.8679,8.8709,8.8209,8.7555,8.7902,8.8102,8.8325,8.9402,8.9932,9.0017,8.9855,8.944,8.8679,8.8209,8.7517,8.6748,8.6247,8.6094,8.6094,8.6094,8.6094,8.6094,8.6094,8.6094,8.6132,8.6094,8.6094,8.6094,8.6132,8.6094,8.6094,8.6132,8.6401,8.6671,8.6709,8.7017,8.7325,8.7325,8.7325,8.7325,8.7325,8.7594,8.7709,8.8017,8.7863,8.8017,8.7902,8.7748,8.7325,8.694,8.6478,8.617,8.6094,8.6094,8.6094,8.6094,8.6094,8.6094,8.6094,8.6094,8.6132,8.5949,8.6046,8.6021,8.5687,8.5595,8.5622,8.5511,8.5462,8.5824,8.6138,8.6476,8.6588,8.6889,8.7114,8.7114,8.7114,8.7114,8.7189,8.749,8.7677,8.7677,8.7452,8.7602,8.779,8.7828,8.7903,8.7602,8.7527,8.7213,8.7008,8.67,8.6453,8.6293,8.6495,8.6914,8.6456,8.5889,8.5053,8.4281,8.3243,8.2223,8.2186,8.2186,8.2186,8.2186,8.2186,8.2186,8.2186,8.2186,8.2186,8.2186,8.2186,8.2186,8.7748,8.8286,8.7786,8.744,8.7248,8.7517,8.7709,8.7902,8.9239,8.9739,8.9325,8.9816,8.9787,8.9017,8.8902,8.8325,8.7401,8.6786,8.644,8.644,8.6162,8.6401,8.6555,8.6594,8.6555,8.6478,8.644,8.6401,8.6401,8.644,8.6824,8.6594,8.6555,8.7055,8.7517,8.7641,8.7872,8.8363,8.841,8.8449,8.8487,8.8526,8.8786,8.9056,8.9094,8.894,8.9094,8.9017,8.8786,8.8679,8.7987,8.7286,8.6709,8.6324,8.644,8.6517,8.6709,8.6786,8.6824,8.6709,8.6671,8.6517,8.6547,8.6722,8.6977,8.6785,8.6696,8.6802,8.6769,8.6588,8.6701,8.7039,8.7039,8.7114,8.764,8.794,8.7978,8.7978,8.7978,8.8053,8.8241,8.8466,8.8616,8.8579,8.8841,8.8992,8.8954,8.8879,8.8503,8.8241,8.7926,8.765,8.7356,8.6996,8.6851,8.7191,8.7578,8.6957,8.6428,8.563,8.4788,8.3941,8.3047,8.2296,8.2186,8.2223,8.2223,8.2186,8.2186,8.2186,8.2186,8.2186,8.2186,8.2186,8.2186,8.7055,8.6671,8.794,8.7671,8.6671,8.7825,8.841,8.8641,8.947,9.0239,9.0671,9.0855,9.0441,8.9863,8.9701,8.8863,8.7825,8.7248,8.7132,8.7017,8.6671,8.6709,8.7748,8.744,8.7517,8.7902,8.7671,8.7286,8.7401,8.7863,8.7902,8.8141,8.8102,8.8295,8.841,8.8526,8.8603,8.8987,8.8987,8.8987,8.8949,8.8987,8.9026,8.9325,8.9556,8.9556,8.9286,8.9479,8.9402,8.8795,8.8564,8.841,8.8171,8.7632,8.7594,8.7863,8.7987,8.794,8.7979,8.8102,8.8218,8.8256,8.8094,8.8171,8.8188,8.7796,8.7523,8.7514,8.7599,8.7565,8.7602,8.7978,8.8428,8.8579,8.8541,8.8729,8.8729,8.8691,8.8691,8.8654,8.8879,8.8992,8.8992,8.8992,8.8992,8.8992,8.8992,8.8992,8.8804,8.8729,8.8691,8.8377,8.8114,8.7717,8.7394,8.7951,8.8255,8.7369,8.6737,8.6117,8.5316,8.4759,8.3998,8.3243,8.2549,8.2333,8.2296,8.2223,8.2186,8.2186,8.2186,8.2186,8.2186,8.2186,8.2186,8.6478,8.6209,8.7017,8.6901,8.6478,8.794,8.8449,8.8325,8.9787,9.0287,9.0287,9.071,9.0701,9.0201,9.0432,8.9825,8.8786,8.7671,8.7709,8.7748,8.7286,8.7401,8.8641,8.8248,8.8333,8.8603,8.8594,8.8402,8.8141,8.8449,8.8756,8.8679,8.8679,8.8872,8.9248,8.9325,8.9594,8.9787,8.994,8.994,8.994,8.994,8.9979,9.0094,9.0287,9.0325,9.021,9.0287,9.0402,9.0017,8.9594,8.9633,8.9556,8.921,8.8671,8.8756,8.8756,8.8718,8.8718,8.8679,8.8641,8.8641,8.8718,8.894,8.8992,8.8716,8.8315,8.8318,8.8341,8.8428,8.8428,8.8818,8.8954,8.8992,8.8992,8.8992,8.8992,8.8992,8.8992,8.8992,8.8992,8.8992,8.8992,8.8992,8.8992,8.8992,8.8992,8.8992,8.8992,8.8992,8.8992,8.8841,8.8541,8.8387,8.8064,8.833,8.8642,8.7839,8.718,8.6523,8.5957,8.5386,8.4809,8.4093,8.3456,8.2937,8.2333,8.226,8.2223,8.226,8.2333,8.2406,8.226,8.2186,8.226,8.6094,8.6132,8.6286,8.6363,8.6632,8.8209,8.8594,8.844,9.0248,9.0479,8.9517,9.0517,9.0816,9.0509,9.0663,9.0586,8.9633,8.8286,8.8363,8.8372,8.8025,8.8171,8.8979,8.9017,8.9103,8.9517,8.9787,8.9748,8.9133,8.9286,8.9257,8.941,8.9295,8.9479,9.0047,9.0163,9.0663,9.0932,9.1201,9.1201,9.1201,9.1201,9.1201,9.1201,9.1201,9.1133,9.1018,9.1047,9.1086,9.0855,9.0586,9.047,9.0932,9.0509,8.9863,8.9325,8.921,8.921,8.9257,8.9295,8.9449,8.9479,8.9295,8.9594,8.9796,8.9646,8.9181,8.9169,8.9203,8.9152,8.9087,8.9105,8.9088,8.8992,8.8992,8.8992,8.8992,8.8992,8.8992,8.8992,8.8992,8.8992,8.8992,8.8992,8.8992,8.8992,8.8992,8.8992,8.8992,8.8992,8.8992,8.8992,8.8879,8.8879,8.8734,8.8598,8.8679,8.8272,8.7702,8.7142,8.6592,8.6091,8.5546,8.5058,8.4562,8.3985,8.3177,8.268,8.303,8.3177,8.2847,8.27,8.2737,8.2627,8.2553,8.6094,8.617,8.694,8.7248,8.7478,8.9017,8.9701,8.9701,9.071,9.1133,9.0671,9.1056,9.1124,9.1047,9.1047,9.0325,8.944,8.9286,8.921,8.8979,8.8718,8.9325,9.0479,9.0056,9.0171,9.0441,9.0825,9.0547,9.0047,9.0402,9.0748,9.071,9.0633,9.0902,9.0816,9.0855,9.1095,9.1163,9.1201,9.1201,9.1201,9.1201,9.1201,9.1201,9.1201,9.1201,9.1201,9.1201,9.1201,9.1163,9.1086,9.1086,9.1163,9.1133,9.1056,9.0941,9.0902,9.0902,9.071,9.0594,9.0594,9.0556,9.0671,9.0902,9.0691,9.0455,8.9996,8.9553,8.974,8.9764,8.9579,8.9515,8.9333,8.9184,8.9088,8.9047,8.9006,8.8992,8.8992,8.8992,8.8992,8.8992,8.8992,8.8992,8.8992,8.8992,8.8992,8.8992,8.8992,8.8992,8.8992,8.8992,8.8992,8.8992,8.8922,8.8823,8.8679,8.8451,8.8076,8.7681,8.7291,8.686,8.6607,8.6123,8.5642,8.5247,8.4659,8.4329,8.4332,8.4058,8.3728,8.3508,8.3381,8.3197,8.3067,8.6094,8.617,8.7017,8.7401,8.7632,8.9201,8.9893,9.0086,9.0816,9.1201,9.1201,9.1201,9.1201,9.1201,9.1201,9.0825,9.0171,9.0009,9.0047,8.9902,8.971,9.0056,9.0825,9.0864,9.097,9.1047,9.1163,9.1018,9.0816,9.0893,9.1201,9.1201,9.1201,9.1124,9.1201,9.1201,9.1163,9.1201,9.1201,9.1201,9.1201,9.1201,9.1201,9.1201,9.1201,9.1201,9.1201,9.1201,9.1201,9.1201,9.1201,9.1201,9.1201,9.1163,9.1163,9.1163,9.1163,9.1163,9.1124,9.1201,9.1201,9.1201,9.1192,9.1062,9.0915,9.0732,9.0451,8.9956,9.0026,9.0037,8.9944,8.9885,8.9654,8.9464,8.9265,8.9116,8.9047,8.9006,8.8992,8.8992,8.8992,8.8992,8.8992,8.8992,8.8992,8.8992,8.8992,8.8992,8.8992,8.8992,8.8992,8.8992,8.8992,8.8992,8.8894,8.8794,8.8664,8.8451,8.8384,8.8007,8.7926,8.7625,8.73,8.7083,8.6782,8.6387,8.6009,8.5374,8.4809,8.4646,8.4572,8.4389,8.4205,8.4058,8.3801,8.644,8.6517,8.7363,8.7825,8.8132,8.9586,9.0239,9.0316,9.0932,9.1201,9.1201,9.1201,9.1201,9.1201,9.1163,9.097,9.0748,9.0393,9.047,9.0547,9.0586,9.0624,9.1009,9.1163,9.1124,9.1201,9.1201,9.1124,9.1163,9.1201,9.1201,9.1201,9.1201,9.1201,9.1201,9.1201,9.1201,9.1201,9.1201,9.1201,9.1201,9.1201,9.1201,9.1201,9.1201,9.1201,9.1201,9.1201,9.1201,9.1201,9.1201,9.1201,9.1201,9.1201,9.1201,9.1201,9.1201,9.1201,9.1201,9.1201,9.1201,9.1201,9.1145,9.1064,9.0704,9.0645,9.0594,9.0258,9.0415,9.0355,9.0236,9.0159,8.9873,8.9642,8.9449,8.9265,8.9088,8.9033,8.8992,8.8992,8.8992,8.8992,8.8992,8.8992,8.8992,8.8992,8.8992,8.8992,8.8992,8.8992,8.895,8.895,8.8992,8.8964,8.8851,8.8737,8.8569,8.8495,8.8414,8.8293,8.8155,8.8,8.7731,8.7607,8.7485,8.7137,8.651,8.5834,8.5233,8.5527,8.5637,8.527,8.5049,8.4866,8.4535,8.7325,8.7401,8.8256,8.8979,8.9701,9.0701,9.1095,9.097,9.1124,9.1201,9.1201,9.1201,9.1201,9.1201,9.1124,9.0816,9.0124,9.0787,9.0701,9.0586,9.0663,9.1009,9.1201,9.1201,9.1201,9.1201,9.1201,9.1201,9.1201,9.1201,9.1201,9.1201,9.1201,9.1201,9.1201,9.1201,9.1201,9.1201,9.1201,9.1201,9.1201,9.1201,9.1201,9.1201,9.1201,9.1201,9.1201,9.1201,9.1201,9.1201,9.1201,9.1201,9.1201,9.1201,9.1201,9.1201,9.1201,9.1201,9.1201,9.1201,9.1201,9.1201,9.1145,9.1073,9.0781,9.098,9.0924,9.0645,9.08,9.0829,9.0602,9.0312,9.0152,8.9777,8.9566,8.9294,8.9157,8.9019,8.8992,8.8992,8.8992,8.8992,8.8992,8.8992,8.8992,8.8992,8.8992,8.8992,8.8992,8.8978,8.8908,8.8894,8.8964,8.8922,8.8832,8.8693,8.8635,8.8606,8.8533,8.8429,8.8308,8.8118,8.7978,8.7709,8.7518,8.7285,8.7081,8.6478,8.6224,8.6664,8.6664,8.6151,8.5747,8.5527,8.5159,8.8017,8.8932,8.9325,8.9624,8.997,9.0816,9.1201,9.1201,9.1201,9.1201,9.1201,9.1201,9.1201,9.1201,9.1201,9.1047,9.0748,9.1018,9.0902,9.0902,9.1047,9.1163,9.1201,9.1201,9.1201,9.1201,9.1201,9.1201,9.1201,9.1201,9.1201,9.1201,9.1201,9.1201,9.1201,9.1201,9.1201,9.1201,9.1201,9.1201,9.1201,9.1201,9.1201,9.1201,9.1201,9.1201,9.1201,9.1201,9.1201,9.1201,9.1201,9.1201,9.1201,9.1201,9.1201,9.1201,9.1201,9.1201,9.1201,9.1201,9.1201,9.1201,9.1201,9.1118,9.0934,9.1118,9.1127,9.1082,9.1082,9.1073,9.0971,9.0839,9.0661,9.0118,8.9691,8.9412,8.9146,8.9033,8.8992,8.8992,8.8992,8.8992,8.8992,8.8992,8.8992,8.8992,8.8992,8.8992,8.8992,8.8978,8.8908,8.8903,8.8959,8.8945,8.8832,8.8774,8.8731,8.8716,8.8702,8.8562,8.8444,8.8308,8.8103,8.7805,8.7497,8.7301,8.7169,8.7083,8.7012,8.6995,8.6978,8.6831,8.6481,8.6151,8.582,8.8825,8.9893,9.0201,9.0278,9.0355,9.0932,9.1201,9.1201,9.1201,9.1201,9.1201,9.1201,9.1201,9.1201,9.1201,9.1201,9.1124,9.1163,9.1163,9.1163,9.1163,9.1201,9.1201,9.1201,9.1201,9.1201,9.1201,9.1201,9.1201,9.1201,9.1201,9.1201,9.1201,9.1201,9.1201,9.1201,9.1201,9.1201,9.1201,9.1201,9.1201,9.1201,9.1201,9.1201,9.1201,9.1201,9.1201,9.1201,9.1201,9.1201,9.1201,9.1201,9.1201,9.1201,9.1201,9.1201,9.1201,9.1201,9.1201,9.1201,9.1201,9.1201,9.1201,9.1201,9.1201,9.1201,9.1145,9.1192,9.1201,9.1201,9.1154,9.0962,9.0653,9.0091,8.9813,8.9528,8.9173,8.8992,8.8992,8.8992,8.8992,8.8992,8.8992,8.8992,8.8992,8.8992,8.8992,8.8992,8.8992,8.8964,8.8959,8.8931,8.8945,8.8903,8.8832,8.8803,8.8789,8.8808,8.878,8.8708,8.8592,8.8444,8.8202,8.7874,8.7583,8.7318,8.7186,8.7066,8.7031,8.7014,8.6978,8.6978,8.6904,8.6591,8.6554,8.9855,9.0009,9.0778,9.1124,9.1086,9.1163,9.1201,9.1201,9.1201,9.1201,9.1201,9.1201,9.1201,9.1201,9.1201,9.1201,9.1201,9.1201,9.1201,9.1201,9.1201,9.1201,9.1201,9.1201,9.1201,9.1201,9.1201,9.1201,9.1201,9.1201,9.1201,9.1201,9.1201,9.1201,9.1201,9.1201,9.1201,9.1201,9.1201,9.1201,9.1201,9.1201,9.1201,9.1201,9.1201,9.1201,9.1201,9.1201,9.1201,9.1201,9.1201,9.1201,9.1201,9.1201,9.1201,9.1201,9.1201,9.1201,9.1201,9.1201,9.1201,9.1201,9.1201,9.1201,9.1201,9.1201,9.1201,9.1201,9.1201,9.1201,9.1082,9.0876,9.0582,9.0192,8.9909,8.9566,8.924,8.8992,8.8992,8.8992,8.8992,8.8992,8.8992,8.8992,8.8992,8.8992,8.8992,8.8992,8.8992,8.8964,8.8922,8.8931,8.8931,8.8903,8.886,8.8832,8.8846,8.8894,8.8908,8.8823,8.8679,8.8488,8.8217,8.7889,8.7567,8.7268,8.7152,8.7014,8.7014,8.7014,8.7014,8.6978,8.7014,8.6978,8.6831,9.0239,9.0787,9.1095,9.1201,9.1201,9.1201,9.1201,9.1201,9.1201,9.1201,9.1201,9.1201,9.1201,9.1201,9.1201,9.1201,9.1201,9.1201,9.1201,9.1201,9.1201,9.1201,9.1201,9.1201,9.1201,9.1201,9.1201,9.1201,9.1201,9.1201,9.1201,9.1201,9.1201,9.1201,9.1201,9.1201,9.1201,9.1201,9.1201,9.1201,9.1201,9.1201,9.1201,9.1201,9.1201,9.1201,9.1201,9.1201,9.1201,9.1201,9.1201,9.1201,9.1201,9.1201,9.1201,9.1201,9.1201,9.1201,9.1201,9.1201,9.1201,9.1201,9.1201,9.1201,9.1201,9.1201,9.1201,9.1201,9.1201,9.1201,9.1127,9.1109,9.0829,9.0258,8.9894,8.9579,8.9256,8.9064,8.8992,8.8992,8.8992,8.8992,8.8992,8.8992,8.8992,8.8992,8.8992,8.8992,8.8992,8.8978,8.895,8.8894,8.8903,8.8889,8.8874,8.8889,8.8917,8.8936,8.8964,8.895,8.8766,8.8562,8.8278,8.7947,8.76,8.7254,8.7118,8.7014,8.7014,8.7014,8.7014,8.7014,8.7014,8.7014,8.6978,9.0663,9.1171,9.1201,9.1201,9.1201,9.1201,9.1201,9.1201,9.1201,9.1201,9.1201,9.1201,9.1201,9.1201,9.1201,9.1201,9.1201,9.1201,9.1201,9.1201,9.1201,9.1201,9.1201,9.1201,9.1201,9.1201,9.1201,9.1201,9.1201,9.1201,9.1201,9.1201,9.1201,9.1201,9.1201,9.1201,9.1201,9.1201,9.1201,9.1201,9.1201,9.1201,9.1201,9.1201,9.1201,9.1201,9.1201,9.1201,9.1201,9.1201,9.1201,9.1201,9.1201,9.1201,9.1201,9.1201,9.1201,9.1201,9.1201,9.1201,9.1201,9.1201,9.1201,9.1201,9.1201,9.1201,9.1201,9.1201,9.1201,9.1201,9.1201,9.1201,9.0886,9.0323,8.9976,8.9641,8.924,8.9033,8.8992,8.8992,8.8992,8.8992,8.8992,8.8992,8.8992,8.8992,8.8992,8.8992,8.8992,8.8978,8.8978,8.8922,8.8894,8.8908,8.8922,8.8973,8.8964,8.8992,8.8954,8.8879,8.8879,8.8664,8.8346,8.8025,8.7644,8.7318,8.7098,8.7014,8.7014,8.7014,8.7014,8.7014,8.7014,8.7014,8.7014,9.1163,9.1201,9.1201,9.1201,9.1201,9.1201,9.1201,9.1201,9.1201,9.1201,9.1201,9.1201,9.1201,9.1201,9.1201,9.1201,9.1201,9.1201,9.1201,9.1201,9.1201,9.1201,9.1201,9.1201,9.1201,9.1201,9.1201,9.1201,9.1201,9.1201,9.1201,9.1201,9.1201,9.1201,9.1201,9.1201,9.1201,9.1201,9.1201,9.1201,9.1201,9.1201,9.1201,9.1201,9.1201,9.1201,9.1201,9.1201,9.1201,9.1201,9.1201,9.1201,9.1201,9.1201,9.1201,9.1201,9.1201,9.1201,9.1201,9.1201,9.1201,9.1201,9.1201,9.1201,9.1201,9.1201,9.1201,9.1201,9.1201,9.1201,9.1201,9.1055,9.0886,9.0461,9.0125,8.9678,8.9173,8.8992,8.8992,8.8992,8.8992,8.8992,8.8992,8.8992,8.8992,8.8992,8.8992,8.8992,8.8992,8.8992,8.8992,8.8978,8.8964,8.8978,8.8992,8.8978,8.8978,8.8992,8.8766,8.8677,8.8678,8.8648,8.8197,8.7824,8.7655,8.7382,8.7098,8.7014,8.7014,8.7014,8.7014,8.7014,8.7014,8.7014,8.7014,9.1201,9.1201,9.1201,9.1201,9.1201,9.1201,9.1201,9.1201,9.1201,9.1201,9.1201,9.1201,9.1201,9.1201,9.1201,9.1201,9.1201,9.1201,9.1201,9.1201,9.1201,9.1201,9.1201,9.1201,9.1201,9.1201,9.1201,9.1201,9.1201,9.1201,9.1201,9.1201,9.1201,9.1201,9.1201,9.1201,9.1201,9.124,9.124,9.124,9.124,9.124,9.124,9.1278,9.1201,9.1201,9.1201,9.1201,9.1201,9.1201,9.1201,9.1201,9.1201,9.1201,9.1201,9.1201,9.1201,9.1201,9.1201,9.1201,9.1201,9.1201,9.1201,9.1201,9.1201,9.1201,9.1201,9.1201,9.1201,9.1201,9.1201,9.1082,9.0762,9.0366,9.0068,8.9714,8.9254,8.8992,8.8992,8.8992,8.8992,8.8992,8.8992,8.8992,8.8992,8.8992,8.8992,8.8992,8.8992,8.8992,8.8992,8.8992,8.8992,8.8992,8.8992,8.8992,8.8992,8.8954,8.8729,8.8602,8.8645,8.8483,8.7981,8.7597,8.7399,8.7228,8.7046,8.7031,8.7014,8.7014,8.7014,8.7014,8.7014,8.7014,8.7014,9.1201,9.1201,9.1201,9.1201,9.1201,9.1201,9.1201,9.1201,9.1201,9.1201,9.1201,9.1201,9.1201,9.1201,9.1201,9.1201,9.1201,9.1201,9.1201,9.1201,9.1201,9.1201,9.1201,9.1201,9.1201,9.1201,9.1201,9.1201,9.1201,9.1201,9.1201,9.1201,9.1201,9.1201,9.1201,9.1201,9.1441,9.1479,9.1518,9.1479,9.1479,9.1402,9.1402,9.1518,9.1441,9.1201,9.1201,9.1201,9.1201,9.1201,9.1201,9.1201,9.1201,9.1201,9.1201,9.1201,9.1201,9.1201,9.1201,9.1201,9.1201,9.1201,9.1201,9.1201,9.1201,9.1201,9.1201,9.1201,9.1201,9.1201,9.1201,9.1109,9.0643,9.0181,8.9965,8.9739,8.94,8.9075,8.8992,8.8992,8.8992,8.8992,8.8992,8.8992,8.8992,8.8992,8.8992,8.8992,8.8992,8.8992,8.8992,8.8992,8.8992,8.8992,8.8992,8.8992,8.8992,8.8954,8.8841,8.8738,8.8734,8.823,8.7615,8.7302,8.7127,8.7002,8.7031,8.7014,8.7014,8.7014,8.7014,8.7014,8.7014,8.7014,8.7014,9.1201,9.1201,9.1201,9.1201,9.1201,9.1201,9.1201,9.1201,9.1201,9.1201,9.1201,9.1201,9.1201,9.1201,9.1201,9.1201,9.1201,9.1201,9.1201,9.1201,9.1201,9.1201,9.1201,9.1201,9.1201,9.1201,9.1201,9.1201,9.1201,9.1201,9.1201,9.1201,9.1201,9.1201,9.1201,9.1441,9.1748,9.2056,9.1864,9.171,9.1979,9.1825,9.1518,9.1979,9.1672,9.1201,9.1201,9.1201,9.1201,9.1201,9.1201,9.1201,9.1201,9.1201,9.1201,9.1201,9.1201,9.1201,9.1201,9.1201,9.1201,9.1201,9.1201,9.1201,9.1201,9.1201,9.1201,9.1201,9.1201,9.1201,9.1201,9.1136,9.0839,9.0387,9.0114,8.9787,8.9451,8.9157,8.8992,8.8992,8.8992,8.8992,8.8992,8.8992,8.8992,8.8992,8.8992,8.8992,8.8992,8.8992,8.8992,8.8992,8.8992,8.8992,8.8992,8.8992,8.8992,8.8954,8.8841,8.8841,8.8851,8.8103,8.7198,8.7111,8.7067,8.7042,8.7014,8.7014,8.7014,8.7014,8.7014,8.7014,8.7014,8.7014,8.7014,9.1201,9.1201,9.1201,9.1201,9.1201,9.1201,9.1201,9.1201,9.1201,9.1201,9.1201,9.1201,9.1201,9.1201,9.1201,9.1201,9.1201,9.1201,9.1201,9.1201,9.1201,9.1201,9.1201,9.1201,9.1201,9.1201,9.1201,9.1201,9.1201,9.1201,9.1201,9.1201,9.1201,9.1201,9.124,9.1595,9.2095,9.2441,9.2172,9.2056,9.2287,9.1748,9.1355,9.1518,9.124,9.1201,9.1201,9.1201,9.1201,9.1201,9.1201,9.1201,9.1201,9.1201,9.1201,9.1201,9.1201,9.1201,9.1201,9.1201,9.1201,9.1201,9.1201,9.1201,9.1201,9.1201,9.1201,9.1201,9.1201,9.1201,9.1192,9.1127,9.1037,9.0633,9.0225,8.9861,8.9451,8.9238,8.9019,8.8992,8.8992,8.8992,8.8992,8.8992,8.8992,8.8992,8.8992,8.8992,8.8992,8.8992,8.8992,8.8992,8.8992,8.8992,8.8992,8.8992,8.8992,8.8776,8.8612,8.8701,8.8837,8.8167,8.7369,8.7214,8.7129,8.7046,8.7014,8.7014,8.7014,8.7014,8.7014,8.7014,8.7014,8.7014,8.7014,9.1201,9.1201,9.1201,9.1201,9.1201,9.1201,9.1201,9.1201,9.1201,9.1201,9.1201,9.1201,9.1201,9.1201,9.1201,9.1201,9.1201,9.1201,9.1201,9.1201,9.1201,9.1201,9.1201,9.1201,9.1201,9.1201,9.1201,9.1201,9.1201,9.1201,9.1201,9.1201,9.1201,9.1248,9.1287,9.1748,9.221,9.2441,9.221,9.221,9.2326,9.1748,9.1518,9.1556,9.1441,9.1317,9.1201,9.1201,9.1201,9.1201,9.1201,9.1201,9.1201,9.1201,9.1201,9.1201,9.1201,9.1201,9.1201,9.1201,9.1201,9.1201,9.1201,9.1201,9.1201,9.1201,9.1201,9.1201,9.1201,9.1201,9.1201,9.1145,9.0962,9.0615,9.0247,8.9873,8.9464,8.9116,8.9006,8.8992,8.8992,8.8992,8.8992,8.8992,8.8992,8.8992,8.8992,8.8992,8.8992,8.8992,8.8992,8.8992,8.8992,8.8992,8.8992,8.8992,8.8992,8.8738,8.8471,8.8097,8.7966,8.7855,8.7607,8.7167,8.6968,8.7029,8.7014,8.7014,8.7014,8.7014,8.7014,8.7014,8.7014,8.7014,8.7014,9.1201,9.1201,9.1201,9.1201,9.1201,9.1201,9.1201,9.1201,9.1201,9.1201,9.1201,9.1201,9.1201,9.1201,9.1201,9.1201,9.1201,9.1201,9.1201,9.1201,9.1201,9.1201,9.1201,9.1201,9.1201,9.1201,9.1201,9.1201,9.1201,9.1201,9.1201,9.1201,9.1287,9.1325,9.1287,9.1556,9.2095,9.2249,9.2172,9.2018,9.1864,9.1672,9.171,9.1748,9.1672,9.124,9.1201,9.1201,9.1201,9.1201,9.1201,9.1201,9.1201,9.1201,9.1201,9.1201,9.1201,9.1201,9.1201,9.1201,9.1201,9.1201,9.1201,9.1201,9.1201,9.1201,9.1201,9.1201,9.1201,9.1201,9.1201,9.1073,9.0839,9.0594,9.0203,8.9813,8.9399,8.9019,8.9006,8.8992,8.8992,8.8992,8.8992,8.8992,8.8992,8.8992,8.8992,8.8992,8.8992,8.8992,8.8992,8.8992,8.8992,8.8992,8.8992,8.8992,8.8992,8.8926,8.8603,8.7742,8.7185,8.7497,8.7362,8.6736,8.6606,8.6921,8.7014,8.7014,8.7014,8.7014,8.7014,8.7014,8.7014,8.7014,8.7014,9.1201,9.1201,9.1201,9.1201,9.1201,9.1201,9.1201,9.1201,9.1201,9.1201,9.1201,9.1201,9.1201,9.1201,9.1201,9.1201,9.1201,9.1201,9.1201,9.1201,9.1201,9.1201,9.1201,9.1201,9.1201,9.1201,9.1201,9.1201,9.1201,9.1201,9.1201,9.1201,9.1979,9.1902,9.1479,9.1941,9.2595,9.2518,9.2287,9.2133,9.2018,9.1748,9.1364,9.1325,9.1317,9.1201,9.1201,9.1201,9.1201,9.1201,9.1201,9.1201,9.1201,9.1201,9.1201,9.1201,9.1201,9.1201,9.1201,9.1201,9.1201,9.1201,9.1201,9.1201,9.1201,9.1201,9.1201,9.1201,9.1201,9.1201,9.1127,9.0848,9.0625,9.0387,9.0045,8.9604,8.917,8.9033,8.8992,8.8992,8.8992,8.8992,8.8992,8.8992,8.8992,8.8992,8.8992,8.8992,8.8992,8.8992,8.8992,8.8992,8.8992,8.8992,8.8992,8.8992,8.8992,8.8964,8.8799,8.807,8.7629,8.7523,8.728,8.6762,8.6716,8.6958,8.7014,8.7014,8.7014,8.7014,8.7014,8.7014,8.7014,8.7014,8.7014]}]]